[[{"header":{"parameterUnit":"m.s-1","parameterCategory":1,"la1":31.0,"la2":29.5877,"lo1":-88.7671,"lo2":-86.6584,"dy":0.0162,"dx":0.0185,"nx":115,"ny":88,"refTime":"2023-04-29T12:00:00:Z","depth":0,"parameterNumber":2,"parameterNumberName":"U-component_of_WINDS"},"data":[0.0,0.0,0.0,0.0,0.0,0.0,0.0,0.0,0.0,0.0,0.0,0.0,0.0,0.0,0.0,0.0,0.0,0.0,0.0,0.0,0.0,0.0,0.0,0.0,0.0,0.0,0.0,0.0,0.0,0.0,0.0,0.0,0.0,0.0,0.0,0.0,0.0,0.0,0.0,0.0,0.0,0.0,0.0,0.0,0.0,0.0,0.0,0.0,0.0,0.0,0.0,0.0,0.0,0.0,0.0,0.0,0.0,0.0,0.0,0.0,0.0,0.0,0.0,0.0,0.0,0.0,0.0,0.0,0.0,0.0,0.0,0.0,0.0,0.0,0.0,0.0,0.0,0.0,0.0,0.0,0.0,0.0,0.0,0.0,0.0,0.0,0.0,0.0,0.0,0.0,0.0,0.0,0.0,0.0,0.0,0.0,0.0,0.0,0.0,0.0,0.0,0.0,0.0,0.0,0.0,0.0,0.0,0.0,0.0,0.0,0.0,0.0,0.0,0.0,0.0,0.0,0.0,0.0,0.0,0.0,0.0,0.0,0.0,0.0,0.0,0.0,0.0,0.0,0.0,0.0,0.0,0.0,0.0,0.0,0.0,0.0,0.0,0.0,0.0,0.0,0.0,0.0,0.0,0.0,0.0,0.0,0.0,0.0,0.0,0.0,0.0,0.0,0.0,0.0,0.0,0.0,0.0,0.0,0.0,0.0,0.0,0.0,0.0,0.0,0.0,0.0,0.0,0.0,0.0,0.0,0.0,0.0,0.0,0.0,0.0,0.0,0.0,0.0,0.0,0.0,0.0,0.0,0.0,0.0,0.0,0.0,0.0,0.0,0.0,0.0,0.0,0.0,0.0,0.0,0.0,0.0,0.0,0.0,0.0,0.0,0.0,0.0,0.0,0.0,0.0,0.0,0.0,0.0,0.0,0.0,0.0,0.0,0.0,0.0,0.0,0.0,0.0,0.0,0.0,0.0,0.0,0.0,0.0,0.0,0.0,0.0,0.0,0.0,0.0,0.0,0.0,0.0,0.0,0.0,0.0,0.0,0.0,0.0,0.0,0.0,0.0,0.0,0.0,0.0,0.0,0.0,0.0,0.0,0.0,0.0,0.0,0.0,0.0,0.0,0.0,0.0,0.0,0.0,0.0,0.0,0.0,0.0,0.0,0.0,0.0,0.0,0.0,0.0,0.0,0.0,0.0,0.0,0.0,0.0,0.0,0.0,0.0,0.0,0.0,0.0,0.0,0.0,0.0,0.0,0.0,0.0,0.0,0.0,0.0,0.0,0.0,0.0,0.0,0.0,0.0,0.0,0.0,0.0,0.0,0.0,0.0,0.0,0.0,0.0,0.0,0.0,0.0,0.0,0.0,0.0,0.0,0.0,0.0,0.0,0.0,0.0,0.0,0.0,0.0,0.0,0.0,0.0,0.0,0.0,0.0,0.0,0.0,0.0,0.0,0.0,0.0,0.0,0.0,0.0,0.0,0.0,0.0,0.0,0.0,0.0,0.0,0.0,0.0,0.0,0.0,0.0,0.0,0.0,0.0,0.0,0.0,0.0,0.0,0.0,0.0,0.0,0.0,0.0,0.0,0.0,0.0,0.0,0.0,0.0,0.0,0.0,0.0,0.0,0.0,0.0,0.0,0.0,0.0,0.0,0.0,0.0,0.0,0.0,0.0,0.0,0.0,0.0,0.0,0.0,0.0,0.0,0.0,0.0,0.0,0.0,0.0,0.0,0.0,0.0,0.0,0.0,0.0,0.0,0.0,0.0,0.0,0.0,0.0,0.0,0.0,0.0,0.0,0.0,0.0,0.0,0.0,0.0,0.0,0.0,0.0,0.0,0.0,0.0,0.0,0.0,0.0,0.0,0.0,0.0,0.0,0.0,0.0,0.0,0.0,0.0,0.0,0.0,0.0,0.0,0.0,0.0,0.0,0.0,0.0,0.0,0.0,0.0,0.0,0.0,0.0,0.0,0.0,0.0,0.0,0.0,0.0,0.0,0.0,0.0,0.0,0.0,0.0,0.0,0.0,0.0,0.0,0.0,0.0,0.0,0.0,0.0,0.0,0.0,0.0,0.0,0.0,0.0,0.0,0.0,0.0,0.0,0.0,0.0,0.0,0.0,0.0,0.0,0.0,0.0,0.0,0.0,0.0,0.0,0.0,0.0,0.0,0.0,0.0,0.0,0.0,0.0,0.0,0.0,0.0,0.0,0.0,0.0,0.0,0.0,0.0,0.0,0.0,0.0,0.0,0.0,0.0,0.0,0.0,0.0,0.0,0.0,0.0,0.0,0.0,0.0,0.0,0.0,0.0,0.0,0.0,0.0,0.0,0.0,0.0,0.0,0.0,0.0,0.0,0.0,0.0,0.0,0.0,0.0,0.0,0.0,0.0,0.0,0.0,0.0,0.0,0.0,0.0,0.0,0.0,0.0,0.0,0.0,0.0,0.0,0.0,0.0,0.0,0.0,0.0,0.0,0.0,0.0,0.0,0.0,0.0,0.0,0.0,0.0,0.0,0.0,0.0,0.0,0.0,0.0,0.0,0.0,0.0,0.0,0.0,0.0,0.0,0.0,0.0,0.0,0.0,0.0,0.0,0.0,0.0,0.0,0.0,0.0,0.0,0.0,0.0,0.0,0.0,0.0,0.0,0.0,0.0,0.0,0.0,0.0,0.0,0.0,0.0,0.0,0.0,0.0,0.0,0.0,0.0,0.0,0.0,0.0,0.0,0.0,0.0,0.0,0.0,0.0,0.0,0.0,0.0,0.0,0.0,0.0,0.0,0.0,0.0,0.0,0.0,0.0,0.0,0.0,0.0,0.0,0.0,0.0,0.0,0.0,0.0,0.0,0.0,0.0,0.0,0.0,0.0,0.0,0.0,0.0,0.0,0.0,0.0,0.0,0.0,0.0,0.0,0.0,0.0,0.0,0.0,0.0,0.0,0.0,0.0,0.0,0.0,0.0,0.0,0.0,0.0,0.0,0.0,0.0,0.0,0.0,0.0,0.0,0.0,0.0,0.0,0.0,0.0,0.0,0.0,0.0,0.0,0.0,0.0,0.0,0.0,0.0,0.0,0.0,0.0,0.0,0.0,0.0,0.0,0.0,0.0,0.0,0.0,0.0,0.0,0.0,0.0,0.0,0.0,0.0,0.0,0.0,0.0,0.0,0.0,0.0,0.0,0.0,0.0,0.0,0.0,0.0,0.0,0.0,0.0,0.0,0.0,0.0,0.0,0.0,0.0,0.0,0.0,0.0,0.0,0.0,0.0,0.0,0.0,0.0,0.0,0.0,0.0,0.0,0.0,0.0,0.0,0.0,0.0,0.0,0.0,0.0,0.0,0.0,0.0,0.0,0.0,0.0,0.0,0.0,0.0,0.0,0.0,0.0,0.0,0.0,0.0,0.0,0.0,0.0,0.0,0.0,0.0,0.0,0.0,0.0,0.0,0.0,0.0,0.0,0.0,0.0,0.0,0.0,0.0,0.0,0.0,0.0,0.0,0.0,0.0,0.0,0.0,0.0,0.0,0.0,0.0,0.0,0.0,0.0,0.0,0.0,0.0,0.0,0.0,0.0,0.0,0.0,0.0,0.0,0.0,0.0,0.0,0.0,0.0,0.0,0.0,0.0,0.0,0.0,0.0,0.0,0.0,0.0,0.0,0.0,0.0,0.0,0.0,0.0,0.0,0.0,0.0,0.0,0.0,0.0,0.0,0.0,0.0,0.0,0.0,0.0,0.0,0.0,0.0,0.0,0.0,0.0,0.0,0.0,0.0,0.0,0.0,0.0,0.0,0.0,0.0,0.0,0.0,0.0,0.0,0.0,0.0,0.0,0.0,0.0,0.0,0.0,0.0,0.0,0.0,0.0,0.0,0.0,0.0,0.0,0.0,0.0,0.0,0.0,0.0,0.0,0.0,0.0,0.0,0.0,0.0,0.0,0.0,0.0,0.0,0.0,0.0,0.0,0.0,0.0,0.0,0.0,0.0,0.0,0.0,0.0,0.0,0.0,0.0,0.0,0.0,0.0,0.0,0.0,0.0,0.0,0.0,0.0,0.0,0.0,0.0,0.0,0.0,0.0,0.0,0.0,0.0,0.0,0.0,0.0,0.0,0.0,0.0,0.0,0.0,0.0,0.0,0.0,0.0,0.0,0.0,0.0,0.0,0.0,0.0,0.0,0.0,0.0,0.0,0.0,0.0,0.0,0.0,0.0,0.0,0.0,0.0,0.0,0.0,0.0,0.0,0.0,0.0,0.0,0.0,0.0,0.0,0.0,3.3825,0.0,0.0,0.0,0.0,0.0,0.0,0.0,0.0,0.0,0.0,0.0,0.0,0.0,0.0,0.0,0.0,0.0,0.0,0.0,0.0,0.0,0.0,0.0,0.0,0.0,0.0,0.0,0.0,0.0,0.0,0.0,0.0,0.0,0.0,0.0,0.0,0.0,0.0,0.0,0.0,0.0,0.0,0.0,0.0,0.0,0.0,0.0,0.0,0.0,0.0,0.0,0.0,0.0,0.0,0.0,0.0,0.0,0.0,0.0,0.0,0.0,0.0,0.0,0.0,0.0,0.0,0.0,0.0,0.0,0.0,0.0,0.0,0.0,0.0,0.0,0.0,0.0,0.0,0.0,0.0,0.0,0.0,0.0,0.0,0.0,0.0,0.0,0.0,0.0,0.0,0.0,0.0,0.0,0.0,0.0,0.0,0.0,0.0,0.0,0.0,0.0,0.0,0.0,0.0,0.0,0.0,0.0,0.0,0.0,0.0,3.4618,3.4467,3.4458,3.4687,3.5147,0.0,0.0,0.0,0.0,0.0,0.0,0.0,0.0,0.0,0.0,0.0,0.0,0.0,0.0,0.0,0.0,0.0,0.0,0.0,0.0,0.0,0.0,0.0,0.0,0.0,0.0,0.0,0.0,0.0,0.0,0.0,0.0,0.0,0.0,0.0,0.0,0.0,0.0,0.0,0.0,0.0,0.0,0.0,0.0,0.0,0.0,0.0,0.0,0.0,0.0,0.0,0.0,0.0,0.0,0.0,0.0,0.0,0.0,0.0,0.0,0.0,0.0,0.0,0.0,0.0,0.0,0.0,0.0,0.0,0.0,0.0,0.0,0.0,0.0,0.0,0.0,0.0,0.0,0.0,0.0,0.0,0.0,0.0,0.0,0.0,0.0,0.0,0.0,0.0,0.0,0.0,0.0,0.0,0.0,0.0,0.0,0.0,0.0,0.0,0.0,0.0,0.0,0.0,0.0,0.0,0.0,0.0,0.0,0.0,0.0,0.0,0.0,3.5316,3.5692,3.6523,0.0,0.0,0.0,0.0,0.0,0.0,0.0,0.0,0.0,0.0,0.0,0.0,0.0,0.0,0.0,0.0,0.0,0.0,0.0,0.0,0.0,0.0,0.0,0.0,0.0,0.0,0.0,0.0,0.0,0.0,0.0,0.0,0.0,0.0,0.0,0.0,0.0,0.0,0.0,0.0,0.0,0.0,0.0,0.0,0.0,0.0,0.0,0.0,0.0,0.0,0.0,0.0,0.0,0.0,0.0,0.0,0.0,0.0,0.0,0.0,0.0,0.0,0.0,0.0,0.0,0.0,0.0,0.0,0.0,0.0,0.0,0.0,0.0,0.0,0.0,0.0,0.0,0.0,0.0,0.0,0.0,0.0,0.0,0.0,0.0,0.0,0.0,0.0,0.0,0.0,0.0,0.0,0.0,0.0,0.0,0.0,0.0,0.0,0.0,0.0,0.0,0.0,0.0,0.0,0.0,0.0,0.0,0.0,0.0,0.0,3.6779,3.6544,3.6309,0.0,3.7312,0.0,0.0,0.0,0.0,0.0,0.0,0.0,0.0,0.0,0.0,0.0,0.0,0.0,0.0,0.0,0.0,0.0,0.0,0.0,0.0,0.0,0.0,0.0,0.0,0.0,0.0,0.0,0.0,0.0,0.0,0.0,0.0,0.0,0.0,0.0,0.0,0.0,0.0,0.0,0.0,0.0,0.0,0.0,0.0,0.0,0.0,0.0,0.0,0.0,0.0,0.0,0.0,0.0,0.0,0.0,0.0,0.0,0.0,0.0,0.0,0.0,0.0,0.0,0.0,0.0,0.0,0.0,0.0,0.0,0.0,0.0,0.0,0.0,0.0,0.0,0.0,0.0,0.0,0.0,0.0,0.0,0.0,0.0,0.0,0.0,0.0,0.0,0.0,0.0,0.0,0.0,0.0,0.0,0.0,0.0,0.0,0.0,0.0,0.0,0.0,0.0,0.0,0.0,0.0,0.0,0.0,0.0,0.0,0.0,0.0,3.7508,3.7704,3.7868,3.8118,0.0,0.0,0.0,0.0,0.0,0.0,0.0,0.0,0.0,0.0,0.0,0.0,0.0,0.0,0.0,0.0,0.0,0.0,0.0,0.0,0.0,0.0,0.0,0.0,0.0,0.0,0.0,0.0,0.0,0.0,0.0,0.0,0.0,0.0,0.0,0.0,0.0,0.0,0.0,0.0,0.0,0.0,0.0,0.0,0.0,0.0,0.0,0.0,0.0,0.0,0.0,0.0,0.0,0.0,0.0,0.0,0.0,0.0,0.0,0.0,0.0,0.0,0.0,0.0,0.0,0.0,0.0,0.0,0.0,0.0,0.0,0.0,0.0,0.0,0.0,0.0,0.0,0.0,0.0,0.0,0.0,0.0,0.0,0.0,0.0,0.0,0.0,0.0,0.0,0.0,0.0,0.0,0.0,0.0,0.0,0.0,0.0,0.0,0.0,0.0,0.0,0.0,0.0,0.0,0.0,0.0,0.0,0.0,0.0,0.0,3.8178,3.8429,3.8719,3.9053,3.9233,3.9238,0.0,0.0,0.0,0.0,0.0,0.0,0.0,0.0,0.0,0.0,0.0,0.0,0.0,0.0,0.0,0.0,0.0,0.0,0.0,0.0,0.0,0.0,0.0,0.0,0.0,0.0,0.0,0.0,0.0,0.0,0.0,0.0,0.0,0.0,0.0,0.0,0.0,0.0,0.0,0.0,0.0,0.0,0.0,0.0,0.0,0.0,0.0,0.0,0.0,0.0,0.0,0.0,0.0,0.0,0.0,0.0,0.0,0.0,0.0,0.0,0.0,0.0,0.0,0.0,0.0,0.0,0.0,0.0,0.0,0.0,0.0,0.0,0.0,0.0,0.0,0.0,0.0,0.0,0.0,0.0,0.0,0.0,0.0,0.0,0.0,0.0,0.0,0.0,0.0,0.0,0.0,0.0,0.0,0.0,0.0,0.0,0.0,0.0,0.0,0.0,0.0,0.0,0.0,0.0,0.0,0.0,0.0,0.0,3.8895,3.9595,3.9858,3.958,3.9567,3.9567,0.0,0.0,0.0,0.0,0.0,0.0,0.0,0.0,0.0,0.0,0.0,0.0,0.0,0.0,0.0,0.0,0.0,0.0,0.0,0.0,0.0,0.0,0.0,0.0,0.0,0.0,0.0,0.0,0.0,0.0,0.0,0.0,0.0,0.0,0.0,0.0,0.0,0.0,0.0,0.0,0.0,0.0,0.0,0.0,0.0,0.0,0.0,0.0,0.0,0.0,0.0,0.0,0.0,0.0,0.0,0.0,0.0,0.0,0.0,0.0,0.0,0.0,0.0,0.0,0.0,0.0,0.0,0.0,0.0,0.0,0.0,0.0,0.0,0.0,0.0,0.0,0.0,0.0,0.0,0.0,0.0,0.0,0.0,0.0,0.0,0.0,0.0,0.0,0.0,0.0,0.0,0.0,0.0,0.0,0.0,0.0,0.0,0.0,0.0,0.0,0.0,0.0,0.0,0.0,0.0,0.0,0.0,0.0,0.0,3.9921,4.023,4.0296,4.0165,4.001,3.9928,0.0,0.0,0.0,0.0,0.0,0.0,0.0,0.0,0.0,0.0,0.0,0.0,0.0,0.0,0.0,0.0,0.0,0.0,0.0,0.0,0.0,0.0,0.0,0.0,0.0,0.0,0.0,0.0,0.0,0.0,0.0,0.0,0.0,0.0,0.0,0.0,0.0,0.0,0.0,0.0,0.0,0.0,0.0,0.0,0.0,0.0,0.0,0.0,0.0,0.0,0.0,0.0,0.0,0.0,0.0,0.0,0.0,0.0,0.0,0.0,0.0,0.0,0.0,0.0,0.0,0.0,0.0,0.0,0.0,0.0,0.0,0.0,0.0,0.0,0.0,0.0,0.0,0.0,0.0,0.0,0.0,0.0,0.0,0.0,0.0,0.0,0.0,0.0,0.0,0.0,0.0,0.0,0.0,0.0,0.0,0.0,0.0,0.0,0.0,0.0,0.0,0.0,0.0,0.0,0.0,0.0,0.0,0.0,0.0,4.0469,0.0,4.0489,4.0489,4.0335,4.0233,0.0,0.0,0.0,0.0,0.0,0.0,0.0,0.0,0.0,0.0,0.0,0.0,0.0,0.0,0.0,0.0,0.0,0.0,0.0,0.0,0.0,0.0,0.0,0.0,0.0,0.0,0.0,0.0,0.0,0.0,0.0,0.0,0.0,0.0,0.0,0.0,0.0,0.0,0.0,0.0,0.0,0.0,0.0,0.0,0.0,0.0,0.0,0.0,0.0,0.0,0.0,0.0,0.0,0.0,0.0,0.0,0.0,0.0,0.0,0.0,0.0,0.0,0.0,0.0,0.0,0.0,0.0,0.0,0.0,0.0,0.0,0.0,0.0,0.0,0.0,0.0,0.0,0.0,0.0,0.0,0.0,0.0,0.0,0.0,0.0,0.0,0.0,0.0,0.0,0.0,0.0,0.0,0.0,0.0,0.0,0.0,0.0,0.0,0.0,0.0,0.0,0.0,0.0,0.0,0.0,0.0,0.0,0.0,4.0489,4.0489,4.0489,4.0489,4.0489,4.0489,4.0489,0.0,0.0,0.0,0.0,0.0,0.0,0.0,0.0,0.0,0.0,0.0,0.0,0.0,0.0,0.0,0.0,0.0,0.0,0.0,0.0,0.0,0.0,0.0,0.0,0.0,0.0,0.0,0.0,0.0,0.0,0.0,0.0,0.0,0.0,0.0,0.0,0.0,0.0,0.0,0.0,0.0,0.0,0.0,0.0,0.0,0.0,0.0,0.0,0.0,0.0,0.0,0.0,0.0,0.0,0.0,0.0,0.0,0.0,0.0,0.0,0.0,0.0,0.0,0.0,0.0,0.0,0.0,0.0,0.0,0.0,0.0,0.0,0.0,0.0,0.0,0.0,0.0,0.0,0.0,0.0,0.0,0.0,0.0,0.0,0.0,0.0,0.0,0.0,0.0,0.0,0.0,0.0,0.0,0.0,0.0,0.0,0.0,0.0,0.0,0.0,0.0,0.0,0.0,0.0,0.0,0.0,0.0,0.0,0.0,4.0489,4.0489,4.0489,4.0489,4.0489,4.0489,0.0,0.0,0.0,0.0,0.0,0.0,0.0,0.0,0.0,0.0,0.0,0.0,0.0,0.0,0.0,0.0,0.0,0.0,0.0,0.0,0.0,0.0,0.0,0.0,0.0,0.0,0.0,0.0,0.0,0.0,0.0,0.0,0.0,0.0,0.0,0.0,0.0,0.0,0.0,0.0,0.0,0.0,0.0,0.0,0.0,0.0,0.0,0.0,0.0,0.0,0.0,0.0,0.0,0.0,0.0,0.0,0.0,0.0,0.0,0.0,0.0,0.0,0.0,0.0,0.0,0.0,0.0,0.0,0.0,0.0,0.0,0.0,0.0,0.0,0.0,0.0,0.0,0.0,0.0,0.0,0.0,0.0,0.0,0.0,0.0,0.0,0.0,0.0,0.0,0.0,0.0,0.0,0.0,0.0,0.0,0.0,0.0,0.0,0.0,0.0,0.0,0.0,0.0,0.0,0.0,0.0,0.0,0.0,0.0,4.0489,4.0489,4.0489,4.0489,4.0489,4.0489,4.0489,0.0,0.0,0.0,0.0,0.0,0.0,0.0,0.0,0.0,0.0,0.0,0.0,0.0,0.0,0.0,0.0,0.0,0.0,0.0,0.0,0.0,0.0,0.0,0.0,0.0,0.0,0.0,0.0,0.0,0.0,0.0,0.0,0.0,0.0,0.0,0.0,0.0,0.0,0.0,0.0,0.0,0.0,0.0,0.0,0.0,0.0,0.0,0.0,0.0,0.0,0.0,0.0,0.0,0.0,0.0,0.0,0.0,0.0,0.0,0.0,0.0,0.0,0.0,0.0,0.0,0.0,0.0,0.0,0.0,0.0,0.0,0.0,0.0,0.0,0.0,0.0,0.0,0.0,0.0,0.0,0.0,0.0,0.0,0.0,0.0,0.0,0.0,0.0,0.0,0.0,0.0,0.0,0.0,0.0,0.0,0.0,0.0,0.0,0.0,0.0,0.0,0.0,0.0,0.0,0.0,0.0,0.0,0.0,4.0489,4.0489,4.0489,4.0489,4.0489,4.0489,0.0,0.0,0.0,0.0,0.0,0.0,0.0,0.0,0.0,0.0,0.0,0.0,0.0,0.0,0.0,0.0,0.0,0.0,0.0,0.0,0.0,0.0,0.0,0.0,0.0,0.0,0.0,0.0,0.0,0.0,0.0,0.0,0.0,0.0,0.0,0.0,0.0,0.0,0.0,0.0,0.0,0.0,0.0,0.0,0.0,0.0,0.0,0.0,0.0,0.0,0.0,0.0,0.0,0.0,0.0,0.0,0.0,0.0,0.0,0.0,0.0,0.0,0.0,0.0,0.0,0.0,0.0,0.0,0.0,0.0,0.0,0.0,0.0,0.0,0.0,0.0,0.0,0.0,0.0,0.0,0.0,0.0,0.0,0.0,0.0,0.0,0.0,0.0,0.0,0.0,0.0,0.0,0.0,0.0,0.0,0.0,0.0,0.0,0.0,0.0,0.0,0.0,0.0,0.0,0.0,0.0,0.0,0.0,0.0,4.0489,4.0489,4.0489,4.0489,4.0489,4.0489,0.0,0.0,0.0,0.0,0.0,0.0,0.0,0.0,0.0,0.0,0.0,0.0,0.0,0.0,0.0,0.0,0.0,0.0,0.0,0.0,0.0,0.0,0.0,0.0,0.0,0.0,0.0,0.0,0.0,0.0,0.0,0.0,0.0,0.0,0.0,0.0,0.0,0.0,0.0,0.0,0.0,0.0,0.0,0.0,0.0,0.0,0.0,0.0,0.0,0.0,0.0,0.0,0.0,0.0,0.0,0.0,0.0,0.0,0.0,0.0,0.0,0.0,0.0,0.0,0.0,0.0,0.0,0.0,0.0,0.0,0.0,0.0,0.0,0.0,0.0,0.0,0.0,0.0,0.0,0.0,0.0,0.0,0.0,0.0,0.0,0.0,0.0,0.0,0.0,0.0,0.0,0.0,0.0,0.0,0.0,0.0,0.0,0.0,0.0,0.0,0.0,0.0,0.0,0.0,0.0,0.0,0.0,0.0,4.0489,4.0489,4.0489,4.0489,4.0489,4.0489,4.0489,0.0,0.0,0.0,0.0,0.0,0.0,0.0,0.0,0.0,0.0,0.0,0.0,0.0,0.0,0.0,0.0,0.0,0.0,0.0,0.0,0.0,0.0,0.0,0.0,0.0,0.0,0.0,0.0,0.0,0.0,0.0,0.0,0.0,0.0,0.0,0.0,0.0,0.0,0.0,0.0,0.0,0.0,0.0,0.0,0.0,0.0,0.0,0.0,0.0,0.0,0.0,0.0,0.0,0.0,0.0,0.0,0.0,0.0,0.0,0.0,0.0,0.0,0.0,0.0,0.0,0.0,0.0,0.0,0.0,0.0,0.0,0.0,0.0,0.0,0.0,0.0,0.0,0.0,0.0,0.0,0.0,0.0,0.0,0.0,0.0,0.0,0.0,0.0,0.0,0.0,0.0,0.0,0.0,0.0,0.0,0.0,0.0,0.0,0.0,0.0,0.0,0.0,0.0,0.0,0.0,0.0,0.0,0.0,4.0489,4.0489,4.0489,4.0546,4.0623,4.0546,4.0489,0.0,0.0,0.0,0.0,0.0,0.0,0.0,0.0,0.0,0.0,0.0,0.0,0.0,0.0,0.0,0.0,0.0,0.0,0.0,0.0,0.0,0.0,0.0,0.0,0.0,0.0,0.0,0.0,0.0,0.0,0.0,0.0,0.0,0.0,0.0,0.0,0.0,0.0,0.0,0.0,0.0,0.0,0.0,0.0,0.0,0.0,0.0,0.0,0.0,0.0,0.0,0.0,0.0,0.0,0.0,0.0,0.0,0.0,0.0,0.0,0.0,0.0,0.0,0.0,0.0,0.0,0.0,0.0,0.0,0.0,0.0,0.0,0.0,0.0,0.0,0.0,0.0,0.0,0.0,0.0,0.0,0.0,0.0,0.0,0.0,0.0,0.0,0.0,0.0,0.0,0.0,0.0,0.0,0.0,0.0,0.0,0.0,0.0,0.0,0.0,0.0,0.0,0.0,0.0,0.0,0.0,0.0,0.0,4.0489,4.0489,4.0489,4.0835,4.1495,4.0854,4.0489,0.0,0.0,0.0,0.0,0.0,0.0,0.0,0.0,0.0,0.0,0.0,0.0,0.0,0.0,0.0,0.0,0.0,0.0,0.0,0.0,0.0,0.0,0.0,0.0,0.0,0.0,0.0,0.0,0.0,0.0,0.0,0.0,0.0,0.0,0.0,0.0,0.0,0.0,0.0,0.0,0.0,0.0,0.0,0.0,0.0,0.0,0.0,0.0,4.476,0.0,0.0,0.0,0.0,0.0,0.0,0.0,0.0,0.0,0.0,0.0,0.0,0.0,0.0,0.0,0.0,0.0,0.0,0.0,0.0,0.0,0.0,0.0,0.0,0.0,0.0,0.0,0.0,0.0,0.0,0.0,0.0,0.0,0.0,0.0,0.0,0.0,0.0,0.0,0.0,0.0,0.0,0.0,0.0,0.0,0.0,0.0,0.0,0.0,0.0,0.0,0.0,0.0,0.0,0.0,0.0,0.0,0.0,0.0,4.0696,4.1081,4.1101,4.1524,4.2338,4.1937,4.1742,0.0,0.0,0.0,0.0,0.0,0.0,0.0,0.0,0.0,0.0,0.0,0.0,0.0,0.0,0.0,0.0,0.0,0.0,0.0,0.0,0.0,0.0,0.0,0.0,0.0,0.0,0.0,0.0,0.0,0.0,0.0,0.0,0.0,0.0,0.0,0.0,0.0,0.0,0.0,0.0,0.0,0.0,0.0,0.0,0.0,0.0,0.0,0.0,0.0,0.0,0.0,0.0,0.0,0.0,0.0,0.0,0.0,0.0,0.0,0.0,0.0,0.0,0.0,0.0,0.0,0.0,0.0,0.0,0.0,0.0,0.0,0.0,0.0,0.0,0.0,0.0,0.0,0.0,0.0,0.0,0.0,0.0,0.0,0.0,0.0,0.0,0.0,0.0,0.0,0.0,0.0,0.0,0.0,0.0,0.0,0.0,0.0,0.0,0.0,0.0,0.0,0.0,0.0,0.0,0.0,0.0,0.0,4.0831,4.1251,4.1959,4.2002,4.2409,4.3239,4.3284,4.3342,4.3451,0.0,0.0,0.0,0.0,0.0,0.0,0.0,0.0,0.0,0.0,0.0,0.0,0.0,0.0,0.0,0.0,0.0,0.0,0.0,0.0,0.0,0.0,0.0,0.0,0.0,0.0,0.0,0.0,0.0,0.0,0.0,0.0,0.0,0.0,0.0,0.0,0.0,0.0,4.3553,4.4682,0.0,0.0,0.0,0.0,0.0,0.0,0.0,0.0,4.8163,0.0,0.0,0.0,0.0,0.0,0.0,0.0,0.0,0.0,0.0,0.0,0.0,0.0,0.0,0.0,0.0,0.0,0.0,0.0,0.0,0.0,0.0,0.0,0.0,0.0,0.0,0.0,0.0,0.0,0.0,0.0,0.0,0.0,0.0,0.0,0.0,0.0,0.0,0.0,0.0,0.0,0.0,0.0,0.0,0.0,0.0,0.0,0.0,0.0,0.0,0.0,0.0,0.0,0.0,0.0,0.0,4.1604,4.2306,4.2745,4.2896,4.2893,4.3265,4.4051,4.409,4.4453,4.5047,0.0,0.0,0.0,0.0,0.0,0.0,0.0,0.0,0.0,0.0,0.0,0.0,0.0,0.0,0.0,0.0,0.0,0.0,0.0,0.0,0.0,0.0,0.0,0.0,0.0,0.0,0.0,0.0,0.0,0.0,0.0,0.0,0.0,0.0,0.0,0.0,0.0,0.0,0.0,4.6632,4.69,0.0,0.0,0.0,0.0,0.0,0.0,0.0,0.0,4.7237,0.0,0.0,0.0,0.0,0.0,0.0,0.0,0.0,0.0,0.0,0.0,0.0,0.0,0.0,0.0,0.0,0.0,0.0,0.0,0.0,0.0,0.0,0.0,0.0,0.0,0.0,0.0,0.0,0.0,0.0,0.0,0.0,0.0,0.0,0.0,0.0,0.0,0.0,0.0,0.0,0.0,0.0,0.0,0.0,0.0,0.0,0.0,0.0,0.0,0.0,0.0,0.0,0.0,0.0,0.0,4.1854,4.2659,4.3307,4.3692,4.3722,4.4128,4.4934,4.4972,4.5163,0.0,0.0,0.0,0.0,0.0,0.0,0.0,0.0,0.0,0.0,0.0,0.0,0.0,0.0,0.0,0.0,0.0,0.0,0.0,0.0,0.0,0.0,0.0,0.0,0.0,0.0,0.0,0.0,0.0,0.0,0.0,0.0,0.0,0.0,0.0,0.0,0.0,0.0,0.0,0.0,4.748,4.775,4.7842,0.0,0.0,0.0,0.0,0.0,0.0,4.7868,4.7767,0.0,0.0,0.0,0.0,0.0,0.0,0.0,0.0,0.0,0.0,0.0,0.0,0.0,0.0,0.0,0.0,0.0,0.0,0.0,0.0,0.0,0.0,0.0,0.0,0.0,0.0,0.0,0.0,0.0,0.0,0.0,0.0,0.0,0.0,0.0,0.0,0.0,0.0,0.0,0.0,0.0,0.0,0.0,0.0,0.0,0.0,0.0,0.0,0.0,0.0,0.0,0.0,0.0,0.0,0.0,4.2104,4.3066,4.391,4.4542,4.4566,4.4895,4.5566,4.5586,4.5586,0.0,0.0,0.0,0.0,0.0,0.0,0.0,0.0,0.0,0.0,0.0,0.0,0.0,0.0,0.0,0.0,0.0,0.0,0.0,0.0,0.0,0.0,0.0,0.0,0.0,0.0,0.0,0.0,0.0,0.0,0.0,0.0,0.0,0.0,0.0,0.0,0.0,0.0,0.0,0.0,0.0,4.8324,4.8324,4.8324,0.0,0.0,0.0,0.0,4.8324,4.8194,0.0,0.0,0.0,0.0,0.0,0.0,0.0,0.0,0.0,0.0,0.0,0.0,0.0,0.0,0.0,0.0,0.0,0.0,0.0,0.0,0.0,0.0,0.0,0.0,0.0,0.0,0.0,0.0,0.0,0.0,0.0,0.0,0.0,0.0,0.0,0.0,0.0,0.0,0.0,0.0,0.0,0.0,0.0,0.0,0.0,0.0,0.0,0.0,0.0,0.0,0.0,0.0,0.0,0.0,0.0,0.0,4.3008,4.4509,4.5355,4.5468,4.5432,4.5509,4.5586,4.5586,4.5586,0.0,0.0,0.0,0.0,0.0,0.0,0.0,0.0,0.0,0.0,0.0,0.0,0.0,0.0,0.0,0.0,0.0,0.0,0.0,0.0,0.0,0.0,0.0,0.0,0.0,0.0,0.0,0.0,0.0,0.0,0.0,0.0,0.0,0.0,0.0,0.0,0.0,0.0,0.0,0.0,0.0,4.8324,4.8324,4.8324,4.8324,0.0,0.0,4.8324,4.8324,4.7844,0.0,0.0,0.0,0.0,0.0,0.0,0.0,0.0,0.0,0.0,0.0,0.0,0.0,0.0,0.0,0.0,0.0,0.0,0.0,0.0,0.0,0.0,0.0,0.0,0.0,0.0,0.0,0.0,0.0,0.0,0.0,0.0,0.0,0.0,0.0,0.0,0.0,0.0,0.0,0.0,0.0,0.0,0.0,0.0,0.0,0.0,0.0,0.0,0.0,0.0,0.0,0.0,0.0,0.0,0.0,4.3316,4.3797,4.4989,4.5586,4.5586,4.5586,4.5586,4.5586,4.5586,4.5586,0.0,0.0,0.0,0.0,0.0,0.0,0.0,0.0,0.0,0.0,0.0,0.0,0.0,0.0,0.0,0.0,0.0,0.0,0.0,0.0,0.0,0.0,0.0,0.0,0.0,0.0,0.0,0.0,0.0,0.0,0.0,0.0,0.0,0.0,0.0,0.0,0.0,0.0,0.0,0.0,0.0,0.0,4.8324,4.8324,0.0,0.0,0.0,4.8324,4.8324,0.0,0.0,0.0,0.0,0.0,0.0,0.0,0.0,0.0,0.0,0.0,0.0,0.0,0.0,0.0,0.0,0.0,0.0,0.0,0.0,0.0,0.0,0.0,0.0,0.0,0.0,0.0,0.0,0.0,0.0,0.0,0.0,0.0,0.0,0.0,0.0,0.0,0.0,0.0,0.0,0.0,0.0,0.0,0.0,0.0,0.0,0.0,0.0,0.0,0.0,0.0,0.0,0.0,0.0,0.0,0.0,0.0,4.4297,4.5163,4.5586,4.5586,4.5586,4.5586,4.5586,4.5586,0.0,0.0,0.0,0.0,0.0,0.0,0.0,0.0,0.0,0.0,0.0,0.0,0.0,0.0,0.0,0.0,0.0,0.0,0.0,0.0,0.0,0.0,0.0,0.0,0.0,0.0,0.0,4.3479,0.0,0.0,0.0,0.0,0.0,0.0,0.0,0.0,0.0,0.0,0.0,0.0,0.0,0.0,4.8324,4.8324,4.8324,4.8324,0.0,0.0,4.8324,4.8324,4.8324,4.8324,0.0,0.0,0.0,0.0,0.0,0.0,0.0,0.0,0.0,0.0,0.0,0.0,0.0,0.0,0.0,0.0,0.0,0.0,0.0,0.0,0.0,0.0,0.0,0.0,0.0,0.0,0.0,0.0,0.0,0.0,0.0,0.0,0.0,0.0,0.0,0.0,0.0,0.0,0.0,0.0,0.0,0.0,0.0,0.0,0.0,0.0,0.0,0.0,0.0,0.0,0.0,0.0,0.0,0.0,0.0,4.4297,4.5163,4.5586,4.5586,4.5586,4.5586,4.5586,4.5586,4.5586,0.0,0.0,0.0,0.0,0.0,0.0,0.0,0.0,0.0,0.0,0.0,0.0,0.0,0.0,0.0,0.0,0.0,0.0,0.0,0.0,0.0,0.0,0.0,0.0,0.0,0.0,0.0,0.0,0.0,0.0,0.0,0.0,0.0,0.0,0.0,0.0,0.0,0.0,0.0,0.0,0.0,4.8324,4.8324,4.8324,4.8324,0.0,0.0,4.8324,4.8324,4.8324,4.8324,4.8324,0.0,0.0,0.0,0.0,0.0,0.0,0.0,0.0,0.0,0.0,0.0,0.0,0.0,0.0,0.0,0.0,0.0,0.0,0.0,0.0,0.0,0.0,0.0,0.0,0.0,0.0,0.0,0.0,0.0,0.0,0.0,0.0,0.0,0.0,0.0,0.0,0.0,0.0,0.0,0.0,0.0,0.0,0.0,0.0,0.0,0.0,0.0,0.0,0.0,0.0,0.0,0.0,0.0,4.4259,4.5086,4.5413,4.5586,4.5586,4.5586,4.5586,4.5586,4.5586,4.5586,0.0,0.0,0.0,0.0,0.0,0.0,0.0,0.0,0.0,0.0,0.0,0.0,0.0,0.0,0.0,0.0,0.0,0.0,0.0,0.0,0.0,0.0,0.0,0.0,0.0,0.0,0.0,0.0,4.5424,4.6397,4.6856,0.0,0.0,0.0,0.0,0.0,0.0,0.0,0.0,0.0,0.0,4.8324,4.8324,4.8324,0.0,0.0,4.8324,4.8324,4.8324,4.8324,4.8324,4.8324,4.8132,0.0,0.0,0.0,0.0,0.0,0.0,0.0,0.0,0.0,0.0,0.0,0.0,0.0,0.0,0.0,0.0,0.0,0.0,0.0,0.0,0.0,0.0,0.0,0.0,0.0,0.0,0.0,0.0,0.0,0.0,0.0,0.0,0.0,0.0,0.0,0.0,0.0,0.0,0.0,0.0,0.0,0.0,0.0,0.0,0.0,0.0,0.0,0.0,0.0,0.0,0.0,0.0,4.4739,4.5586,4.5586,4.5586,4.5586,4.5586,4.5586,4.5586,4.5586,4.5586,0.0,0.0,0.0,0.0,0.0,0.0,0.0,0.0,0.0,0.0,0.0,0.0,0.0,0.0,0.0,0.0,0.0,0.0,0.0,0.0,0.0,0.0,0.0,0.0,0.0,0.0,0.0,0.0,4.6159,4.7443,4.8214,0.0,0.0,0.0,0.0,0.0,0.0,0.0,0.0,0.0,0.0,4.8324,4.8324,4.8324,4.8324,4.8324,4.8324,4.8324,4.8324,4.8324,4.8324,4.8324,0.0,0.0,0.0,0.0,0.0,0.0,0.0,0.0,0.0,0.0,0.0,0.0,0.0,0.0,0.0,0.0,0.0,0.0,0.0,0.0,0.0,0.0,0.0,0.0,0.0,0.0,0.0,0.0,0.0,0.0,3.8063,0.0,0.0,0.0,0.0,0.0,0.0,0.0,0.0,0.0,0.0,0.0,0.0,0.0,0.0,0.0,0.0,0.0,0.0,0.0,0.0,0.0,0.0,4.4739,4.5566,4.5586,4.5586,4.5586,4.5586,4.5586,4.5586,4.5586,4.5586,4.5586,0.0,0.0,0.0,0.0,0.0,0.0,0.0,0.0,0.0,0.0,0.0,0.0,0.0,0.0,0.0,0.0,0.0,0.0,0.0,0.0,0.0,0.0,0.0,0.0,0.0,0.0,4.48,4.6159,4.7443,0.0,0.0,0.0,0.0,0.0,0.0,0.0,0.0,0.0,0.0,4.8324,4.8324,4.8324,4.8324,4.8324,4.8324,4.8324,4.8324,4.8324,4.8324,4.8324,0.0,0.0,0.0,0.0,0.0,0.0,0.0,0.0,0.0,0.0,0.0,0.0,0.0,0.0,0.0,0.0,0.0,0.0,0.0,0.0,0.0,0.0,0.0,0.0,0.0,0.0,0.0,3.985,3.9792,0.0,0.0,0.0,0.0,0.0,0.0,0.0,0.0,0.0,0.0,0.0,4.1688,4.2344,0.0,0.0,0.0,0.0,0.0,0.0,0.0,0.0,0.0,0.0,0.0,0.0,4.5297,4.5566,4.5586,4.5586,4.5586,4.5586,4.5586,4.5586,4.5586,4.5586,4.5586,0.0,0.0,0.0,0.0,0.0,0.0,0.0,0.0,0.0,0.0,0.0,0.0,0.0,0.0,0.0,0.0,0.0,0.0,0.0,0.0,0.0,0.0,0.0,0.0,0.0,4.6507,0.0,0.0,0.0,0.0,0.0,0.0,0.0,0.0,0.0,0.0,0.0,4.8324,4.8324,4.8324,4.8324,4.8324,4.8324,4.8324,0.0,0.0,0.0,0.0,0.0,0.0,0.0,0.0,0.0,0.0,0.0,0.0,0.0,0.0,4.7365,4.6551,4.6222,4.6083,4.609,0.0,0.0,0.0,0.0,0.0,0.0,0.0,0.0,0.0,0.0,0.0,0.0,0.0,0.0,0.0,0.0,4.0735,0.0,0.0,0.0,0.0,0.0,0.0,0.0,0.0,4.2369,4.2671,4.2685,4.3322,4.3753,0.0,4.3912,4.3994,0.0,0.0,0.0,0.0,0.0,0.0,0.0,0.0,4.5586,4.5586,4.5586,4.5738,4.6026,4.6046,4.62,4.6451,4.6471,4.6471,4.6451,4.6471,4.6471,0.0,0.0,0.0,0.0,0.0,0.0,0.0,0.0,0.0,0.0,0.0,0.0,0.0,0.0,0.0,0.0,0.0,0.0,0.0,0.0,0.0,0.0,0.0,4.7443,0.0,0.0,0.0,0.0,0.0,0.0,0.0,0.0,0.0,4.8324,4.8324,4.8324,4.8324,4.8324,4.8324,4.8324,0.0,0.0,0.0,0.0,0.0,0.0,0.0,4.8416,4.8708,4.8744,4.8857,4.9132,4.9169,4.9032,4.867,0.0,0.0,4.7327,4.6891,4.6748,4.6746,4.6763,4.6827,4.7112,4.7366,4.759,0.0,0.0,0.0,0.0,0.0,0.0,0.0,0.0,4.0978,4.0946,0.0,4.0964,0.0,0.0,0.0,0.0,0.0,4.295,0.0,0.0,4.366,4.373,4.373,4.3789,4.4237,4.5001,4.4899,4.5241,4.5948,4.5037,0.0,0.0,0.0,0.0,0.0,0.0,4.5605,4.5643,4.5643,4.6065,4.6908,4.6929,4.7295,4.8029,4.8067,4.8067,4.8086,4.8067,4.8086,4.8067,4.7336,0.0,0.0,0.0,0.0,0.0,0.0,0.0,0.0,0.0,0.0,0.0,0.0,0.0,0.0,0.0,0.0,0.0,0.0,0.0,0.0,4.667,0.0,0.0,0.0,0.0,0.0,0.0,0.0,0.0,0.0,0.0,4.8324,4.8324,4.8324,4.8324,0.0,0.0,0.0,0.0,4.8324,4.8379,4.8343,4.8361,4.8398,4.8416,4.8689,4.9508,0.0,0.0,5.0655,5.0802,5.0747,5.0802,5.0729,5.0288,4.8671,4.7961,4.7583,4.7553,4.763,4.7807,4.8518,4.9112,4.9731,4.2988,0.0,0.0,0.0,0.0,4.293,4.293,4.291,4.2884,4.2848,4.2802,4.2802,0.0,0.0,0.0,0.0,0.0,0.0,4.3458,4.364,4.424,4.4584,4.4648,4.5273,4.564,4.5786,4.5765,4.5807,4.594,4.5583,4.5434,4.5411,0.0,0.0,0.0,0.0,4.5893,4.649,4.6528,4.6912,4.7754,4.7776,4.7875,4.8087,4.8106,4.8087,4.8105,4.8105,4.8105,4.8105,4.7894,0.0,0.0,0.0,0.0,0.0,0.0,0.0,0.0,0.0,0.0,0.0,0.0,0.0,0.0,0.0,0.0,0.0,0.0,0.0,4.7587,4.7827,4.8049,0.0,0.0,0.0,0.0,0.0,0.0,0.0,0.0,0.0,4.8324,4.8324,4.8324,0.0,0.0,4.8324,4.8324,4.8324,4.8526,4.9132,0.0,0.0,0.0,5.0092,5.0178,5.0413,5.0472,5.0527,5.0747,5.082,5.082,5.082,5.082,5.0637,5.0215,4.9948,4.9843,4.9833,4.982,4.988,5.014,5.0336,5.0508,4.4726,4.4668,4.3984,4.3711,4.3711,4.3711,4.3711,4.3711,4.3711,4.3672,4.3633,4.3633,4.3583,4.3481,4.3792,0.0,0.0,0.0,4.4547,4.4667,4.5167,4.5402,4.5475,4.5909,4.6098,4.6021,4.5978,4.5958,4.5892,4.5794,4.5916,4.624,0.0,0.0,4.6105,4.6124,4.6528,4.7336,4.7375,4.7777,4.8584,4.8951,4.9125,4.9144,4.9125,4.9125,4.9144,4.9125,4.9125,4.9125,4.8798,4.8624,0.0,0.0,0.0,0.0,0.0,0.0,0.0,0.0,0.0,0.0,0.0,4.5186,0.0,0.0,0.0,0.0,4.7094,4.7752,4.8269,4.8324,0.0,0.0,0.0,0.0,0.0,0.0,0.0,4.7629,4.8014,4.8324,4.8324,4.8324,4.8324,4.8324,4.8324,4.8434,4.8765,0.0,4.9114,4.9958,5.0052,5.026,5.0722,5.0802,5.0922,5.1242,5.1555,5.1756,5.1756,5.1775,5.1775,5.1756,5.1756,5.1756,5.1756,5.1756,5.1518,5.0945,5.0798,5.0894,5.1187,5.1279,5.1371,4.6289,4.6152,4.457,4.3926,4.3906,4.3906,4.3926,4.3906,4.3906,4.3906,4.3906,4.3906,4.3887,4.3848,4.4512,0.0,4.5056,4.5773,4.6141,4.6282,4.6145,4.6084,4.6063,4.5968,4.5891,4.5901,4.5838,4.5873,4.5969,4.5815,4.6182,4.703,4.624,4.6201,4.6971,4.7009,4.7394,4.8202,4.8202,4.8624,4.9489,5.0298,5.0683,5.0664,5.0683,5.0664,5.0683,5.0683,5.0683,5.0664,4.9933,4.951,4.949,0.0,0.0,0.0,0.0,0.0,0.0,0.0,0.0,0.0,0.0,0.0,0.0,0.0,0.0,0.0,4.7867,0.0,4.8324,4.8324,0.0,0.0,0.0,4.8324,4.8324,4.8324,4.8324,4.8324,0.0,0.0,4.8324,0.0,4.8343,4.8398,4.8398,4.8691,4.9481,4.9627,4.9976,5.0784,5.0894,5.0912,5.1114,5.1138,5.137,5.199,5.2729,5.3096,5.3115,5.3133,5.3188,5.3115,5.3188,5.317,5.3188,5.3096,5.2766,5.1316,5.1059,5.1261,5.1922,5.2087,5.2289,4.6289,4.6269,4.5859,4.5664,4.5683,4.5683,4.5683,4.5703,4.5683,4.5683,4.5683,4.5664,4.5683,4.5683,4.584,4.5933,4.5964,4.6175,4.6201,4.6145,4.6108,4.6046,4.595,4.5896,4.5866,4.5827,4.5808,4.6084,4.6641,4.6624,4.701,4.7797,4.7605,4.7605,4.7798,4.7817,4.824,4.9067,4.9086,4.951,5.0356,5.0587,5.0683,5.0683,5.0683,5.0683,5.0683,5.0683,5.0683,5.0683,5.0491,5.0394,5.0394,5.0125,0.0,0.0,0.0,0.0,0.0,0.0,0.0,0.0,0.0,4.7141,4.6819,0.0,4.8032,0.0,4.8196,4.8324,4.8324,4.8324,0.0,0.0,4.8324,4.8324,4.8324,4.8324,4.8324,4.8324,4.8324,4.8324,4.8324,4.8324,4.8563,4.9187,4.9279,4.937,4.9572,5.0141,5.0784,5.1518,5.1706,5.1948,5.2454,5.2632,5.2645,5.2894,5.3096,5.3206,5.3206,5.3206,5.3206,5.3206,5.3206,5.3206,5.3206,5.3206,5.3096,5.2729,5.2656,5.2692,5.2876,5.2913,5.2986,4.6289,4.6289,4.6289,4.6289,4.6289,4.6289,4.6289,4.6289,4.6289,4.6289,4.6289,4.6289,4.6289,4.6289,4.6289,4.6289,4.6289,4.6245,4.6177,4.6102,4.5988,4.593,4.5873,4.6182,4.6317,4.6297,4.666,4.7043,4.7409,4.7433,4.7837,4.8663,4.8682,4.8875,4.924,4.8875,4.9106,4.9952,4.999,5.0202,5.0664,5.0683,5.0683,5.0683,5.0683,5.0683,5.0683,5.0683,5.0683,5.0683,5.0683,5.0683,5.0683,5.0683,5.06,0.0,0.0,0.0,0.0,0.0,0.0,0.0,0.0,0.0,0.0,0.0,4.8324,0.0,4.8324,4.8324,4.8324,4.8324,4.8324,4.8324,4.8324,4.8324,4.8324,4.8324,4.8324,4.8324,4.8324,4.8324,4.8324,4.8653,4.9056,4.9536,5.0215,5.0655,5.0692,5.1077,5.1628,5.238,5.2532,5.2661,5.3151,5.3206,5.3206,5.3206,5.3206,5.3206,5.3206,5.3206,5.3206,5.3206,5.3206,5.3206,5.3206,5.3206,5.3298,5.3647,5.3739,5.361,5.328,5.3206,5.328,4.6289,4.6289,4.6289,4.6289,4.6289,4.6289,4.6289,4.6289,4.6289,4.6289,4.6289,4.6289,4.6289,4.6289,4.6289,4.6287,4.627,4.6151,4.6142,4.62,4.6026,4.6007,4.6123,4.674,4.7048,4.7105,4.7794,4.8158,4.8274,4.8279,4.8702,4.9548,4.9586,4.9952,5.0625,4.9952,4.9933,5.0664,5.0683,5.0683,5.0683,5.0683,5.0683,5.0683,5.0683,5.0683,5.0683,5.0683,5.0683,5.0683,5.0683,5.0683,5.0683,5.0683,5.0663,0.0,5.0285,0.0,0.0,0.0,0.0,0.0,0.0,0.0,0.0,4.8324,4.8324,4.8324,4.8324,4.8324,4.8324,4.8324,4.8324,4.8324,4.8324,4.8324,4.8324,4.8324,4.8324,4.8324,4.8324,4.8343,4.8506,4.9105,4.96,5.005,5.1059,5.1867,5.2105,5.2142,5.2399,5.3133,5.3206,5.3133,5.3188,5.3206,5.3206,5.3206,5.3206,5.3206,5.3206,5.3206,5.3243,5.3353,5.3427,5.3445,5.3482,5.3555,5.3794,5.4436,5.4564,5.4363,5.3812,5.3665,5.3696,4.6289,4.6289,4.6289,4.6289,4.6289,4.6289,4.6289,4.6289,4.6289,4.6289,4.6289,4.6289,4.6289,4.6289,4.6289,4.6226,4.6129,4.6111,4.6354,4.6836,4.6778,4.7105,4.7644,4.7817,4.7875,4.7894,4.8029,4.8451,4.9143,4.9144,4.9606,5.0433,5.0433,5.0529,5.0683,0.0,0.0,0.0,5.0683,5.0683,5.0683,5.0683,5.0683,5.0683,5.0683,0.0,5.0683,5.0683,5.0683,5.0683,5.0683,0.0,0.0,0.0,0.0,0.0,0.0,0.0,0.0,0.0,0.0,0.0,4.8736,4.8657,4.8344,4.8324,4.8324,4.8324,4.8324,4.8324,4.8324,4.8324,4.8324,4.8324,4.8324,4.8324,4.8324,4.8324,4.8324,4.8324,4.8324,4.8579,4.9215,4.9486,5.0094,5.1261,5.1811,5.2252,5.2876,5.2931,5.3023,5.3188,5.3206,5.3206,5.3206,5.3206,5.3206,5.3206,5.3206,5.3225,5.3243,5.3261,5.35,5.4032,5.4179,5.4399,5.4968,5.5152,5.5097,5.5335,5.5372,5.5317,5.517,5.5152,5.5019,4.6289,0.0,4.6777,4.6933,0.0,4.7402,4.7578,4.7519,4.668,4.6289,4.6328,4.6738,4.6914,4.6875,4.7281,4.7417,4.7299,4.7221,4.7355,4.7644,4.7586,4.774,4.8125,4.8548,4.874,4.8759,4.9183,4.9625,5.0029,5.0048,5.0279,5.0683,5.0683,5.0683,5.0683,5.0683,5.0683,5.0683,5.0683,5.0683,5.0683,5.0683,5.0683,5.0683,0.0,0.0,0.0,0.0,0.0,0.0,0.0,0.0,0.0,0.0,0.0,5.0432,5.039,5.0293,5.0097,5.0092,4.9924,4.9532,4.9139,4.8709,4.8344,4.8324,4.8324,4.8324,4.8324,4.8324,4.8324,4.8324,4.8324,4.8324,4.8324,4.8324,4.8324,4.8324,4.8324,4.8361,4.8693,4.9114,4.9563,5.0346,5.1028,5.1885,5.2362,5.2729,5.3115,5.3206,5.3206,5.3206,5.3206,5.3206,5.3206,5.3206,5.3225,5.3243,5.3537,5.3775,5.3794,5.4124,5.4528,5.4913,5.4987,5.5152,5.5471,5.5618,5.5721,5.6095,5.618,5.6363,5.662,5.6161,5.5523,4.6758,4.6836,4.7539,4.7832,4.7891,4.8594,4.8887,4.8789,0.0,0.0,0.0,4.75,4.7754,4.7676,4.8385,4.8606,4.8452,4.8337,4.8356,4.8491,4.8375,4.8413,4.8586,4.9298,4.9625,4.9663,5.0356,5.0683,5.0683,5.0683,5.0683,5.0683,5.0683,5.0683,5.0683,5.0683,5.0683,5.0683,5.0683,5.0683,5.0683,5.0683,5.0683,5.0683,5.0683,5.0683,5.0683,5.0683,5.0683,5.0683,5.0683,5.0683,5.0683,5.0683,5.0683,5.0683,5.0683,5.0683,5.0683,5.0683,5.0502,5.0043,4.9326,4.8709,4.8326,4.8324,4.8324,4.8324,4.8324,4.8324,4.8324,4.8324,4.8324,4.8324,4.8324,4.8324,4.8324,4.8324,4.8361,4.8583,4.9136,4.9743,5.0076,5.1133,5.2071,5.2247,5.2766,5.3206,5.3206,5.3206,5.3206,5.3206,5.3206,5.3206,5.3225,5.3384,5.3366,5.3518,5.4106,5.4583,5.4711,5.5152,5.5574,5.5776,5.5812,5.5912,5.6011,5.6132,5.619,5.6713,5.6822,5.693,5.714,5.646,5.5661,4.8535,4.8555,4.8672,4.8711,4.873,4.8848,4.8887,4.8867,4.8633,4.8535,4.8555,4.8652,4.8633,4.8516,4.8651,4.8568,4.8337,4.8299,4.8625,0.0,4.9221,4.9625,5.0317,5.0452,5.051,5.051,5.0625,5.0683,5.0683,5.0683,5.0683,5.0683,5.0683,5.0683,5.0683,5.0683,5.0683,5.0683,5.0683,5.0683,5.0683,5.0683,5.0683,5.0683,5.0683,5.0683,5.0683,5.0683,5.0683,5.0683,5.0683,5.0683,5.0683,5.0683,5.0683,5.0683,5.0683,5.0683,5.0683,5.0683,5.0377,4.9664,4.9171,4.8709,4.8344,4.8324,4.8324,4.8324,4.8324,4.8324,4.8324,4.8324,4.8324,4.8324,4.8324,4.8324,4.8324,4.8361,4.8638,4.9285,4.9487,5.0239,5.1321,5.1828,5.2309,5.2852,5.3096,5.3206,5.3206,5.3206,5.3206,5.3206,5.3206,5.3206,5.3311,5.3818,5.4111,5.4252,5.4895,5.5427,5.5427,5.5629,5.5978,5.6528,5.6638,5.6859,5.7391,5.7648,5.7324,5.703,5.6873,5.6546,5.5645,5.5479,5.563,4.8887,4.8965,4.9414,4.959,4.9629,5.0058,5.0254,5.0254,5.0254,4.9726,4.8984,4.9414,4.9512,4.9355,4.9788,4.9856,4.9606,4.9587,4.9798,5.0067,5.0106,5.0317,5.0664,5.0683,5.0683,5.0683,5.0683,5.0683,5.0683,5.0683,5.0683,5.0683,5.0683,5.0683,5.0683,5.0683,5.0683,5.0683,5.0683,5.0683,5.0683,5.0683,5.0683,5.0683,5.0683,5.0683,5.0683,5.0683,5.0683,5.0683,5.0683,5.0683,5.0683,5.0683,5.0683,5.0683,5.0683,5.0683,5.0683,5.0504,5.0135,4.9532,4.9139,4.8709,4.8344,4.8324,4.8324,4.8324,4.8324,4.8324,4.8324,4.8324,4.8324,4.8324,4.8324,4.8324,4.8379,4.8746,4.9171,4.9597,5.0409,5.1195,5.1925,5.2364,5.2736,5.317,5.3206,5.3206,5.3206,5.3225,5.3225,5.3206,5.3206,5.3402,5.3744,5.4147,5.4569,5.495,5.5721,5.6198,5.629,5.6528,5.7005,5.7354,5.7446,5.7593,5.7941,5.7639,5.7298,5.7047,5.6502,5.5941,5.5385,5.5203,5.5102,4.9473,4.9551,5.0195,5.0469,5.0527,5.1133,5.1387,5.1387,5.1387,5.0644,4.9629,5.0119,5.0295,5.0171,5.0771,5.0933,5.0702,5.0683,5.0683,5.0683,5.0683,5.0683,5.0683,5.0683,5.0683,5.0683,5.0683,5.0683,5.0683,5.0683,5.0683,5.0683,5.0683,5.0683,5.0683,5.0683,5.0683,5.0683,5.0683,5.0683,5.0683,5.0683,5.0683,5.0683,5.0683,5.0683,5.0683,5.0683,5.0683,5.0683,5.0683,5.0683,5.0683,5.0683,5.0683,5.0683,5.0683,5.0663,5.0563,5.0272,4.9879,4.9386,4.9075,4.8709,4.8382,4.8324,4.8324,4.8324,4.8324,4.8324,4.8324,4.8324,4.8324,4.8324,4.8324,4.8324,4.8379,4.9077,4.9703,4.9984,5.1124,5.2022,5.2339,5.2834,5.317,5.3188,5.3206,5.3206,5.3206,5.3335,5.3482,5.3482,5.3463,5.3683,5.4356,5.4825,5.521,5.5812,5.6528,5.6969,5.7152,5.7611,5.7905,5.7923,5.7941,5.785,5.7758,5.7317,5.6891,5.6582,5.5965,5.5419,5.5026,5.4651,5.4391,5.1133,5.1172,5.123,5.1289,5.1269,5.1367,5.1387,5.1387,5.1387,5.1269,5.0937,5.1069,5.1053,5.0981,5.0932,5.0837,5.0702,5.0683,5.0683,5.0683,5.0683,5.0683,5.0683,5.0683,5.0683,5.0683,5.0683,5.0683,5.0683,5.0683,5.0683,5.0683,5.0683,5.0683,5.0683,5.0683,5.0683,5.0683,5.0683,5.0683,5.0683,5.0683,5.0683,5.0683,5.0683,5.0683,5.0683,5.0683,5.0683,5.0683,5.0683,5.0683,5.0683,5.0683,5.0683,5.0683,5.0683,5.0525,5.0206,5.0116,4.9754,4.9043,4.8963,4.8728,4.8344,4.8324,4.8324,4.8324,4.8324,4.8324,4.8324,4.8324,4.8324,4.8324,4.8379,4.8324,4.8489,4.9077,4.9848,5.06,5.1526,5.2261,5.2894,5.3109,5.3206,5.3206,5.3206,5.3261,5.339,5.3812,5.4234,5.4271,5.4295,5.4356,5.4663,5.5695,5.631,5.6675,5.7299,5.7685,5.7795,5.7831,5.7978,5.7978,5.7978,5.7813,5.7382,5.6905,5.6655,5.6023,5.5314,5.4546,5.3954,5.3717,5.3668,5.1387,5.1387,5.1387,5.1387,5.1387,5.1387,5.1387,5.1387,5.1323,5.1238,5.1201,5.1081,5.1013,5.0977,5.0924,5.0818,5.0683,5.0683,5.0683,5.0683,5.0683,5.0683,5.0683,5.0683,5.0683,5.0683,5.0683,5.0683,5.0683,5.0683,5.0683,5.0683,5.0683,5.0683,5.0683,5.0683,5.0683,5.0683,5.0683,5.0683,5.0683,5.0683,5.0683,5.0683,5.0683,5.0683,5.0683,5.0683,5.0683,5.0683,5.0683,5.0683,5.0683,5.0683,5.0683,5.0683,5.0683,5.0624,5.0442,5.0249,4.9872,4.9276,4.9029,4.8709,4.8344,4.8324,4.8324,4.8324,4.8324,4.8324,4.8324,4.8324,4.8324,4.8379,4.8746,4.9058,4.9077,5.0215,5.121,5.1544,5.2201,5.2789,5.3115,5.3206,5.3206,5.3206,5.3225,5.339,5.3812,5.4197,5.4583,5.5034,5.5489,5.5809,5.5831,5.6255,5.6933,5.7428,5.774,5.7978,5.7978,5.7978,5.7978,5.7978,5.7978,5.7923,5.7675,5.7116,5.6671,5.5729,5.4672,5.3839,5.3551,5.3518,5.3636,5.1387,5.1387,5.1387,5.1387,5.1387,5.1387,5.1387,5.1387,5.1256,5.1184,5.1154,5.0979,5.0895,5.0837,5.0837,5.0779,5.0702,5.0683,5.0683,5.0683,5.0683,5.0683,5.0683,5.0683,5.0683,5.0683,5.0683,5.0683,5.0683,5.0683,5.0683,5.0683,5.0683,5.0683,5.0683,5.0683,5.0683,5.0683,5.0683,5.0683,5.0683,5.0683,5.0683,5.0683,5.0683,5.0683,5.0683,5.0683,5.0683,5.0683,5.0683,5.0683,5.0683,5.0683,5.0683,5.0683,5.0683,5.0663,5.0544,5.0159,4.9773,4.9356,4.8963,4.864,4.8364,4.8324,4.8416,4.8675,4.8655,4.8634,4.8324,4.8508,4.8655,4.871,4.9407,4.9903,5.0013,5.1206,5.1944,5.2081,5.2624,5.3206,5.3206,5.3206,5.3206,5.3206,5.3427,5.3683,5.4344,5.4748,5.5335,5.5878,5.661,5.6959,5.6878,5.7043,5.7419,5.7694,5.7978,5.7978,5.7978,5.7978,5.7978,5.7978,5.7978,5.7602,5.6997,5.6606,5.625,5.5288,5.443,5.3753,5.3585,5.3619,5.4008,5.1387,5.1387,5.1387,5.1387,5.1387,5.1387,5.1387,5.1377,5.1256,5.1163,5.1082,5.0952,5.0818,5.0702,5.0702,5.0702,5.0683,5.0683,5.0683,5.0683,5.0683,5.0683,5.0683,5.0683,5.0683,5.0683,5.0683,5.0683,5.0683,5.0683,5.0683,5.0683,5.0683,5.0683,5.0683,5.0683,5.0683,5.0683,5.0683,5.0683,5.0683,5.0683,5.0683,5.0683,5.0683,5.0683,5.0683,5.0683,5.0683,5.0683,5.0683,5.0683,5.0683,5.0683,5.0683,5.0683,5.0683,5.0563,5.0202,4.9846,4.9416,4.8996,4.8676,4.8326,4.8306,4.8398,4.873,4.9432,4.9496,4.9233,4.8689,4.9169,4.9517,4.9572,5.027,5.0692,5.0765,5.1536,5.1944,5.2151,5.2734,5.317,5.3206,5.3206,5.3261,5.3408,5.3867,5.4418,5.4748,5.5757,5.6473,5.6822,5.7299,5.7703,5.7079,5.7281,5.7795,5.796,5.7978,5.7978,5.7978,5.7978,5.7978,5.7932,5.7821,5.7316,5.6254,5.5587,5.5157,5.4678,5.463,5.4182,5.4076,5.4262,5.4668,5.1387,5.1387,5.1387,5.1387,5.1387,5.1387,5.1362,5.1275,5.1179,5.108,5.0952,5.0837,5.0741,5.0683,5.0683,5.0683,5.0683,5.0683,5.0683,5.0683,5.0683,5.0683,5.0683,5.0683,5.0683,5.0683,5.0683,5.0683,5.0683,5.0683,5.0683,5.0683,5.0683,5.0683,5.0683,5.0683,5.0683,5.0683,5.0683,5.0683,5.0683,5.0683,5.0683,5.0683,5.0683,5.0683,5.0683,5.0683,5.0683,5.0683,5.0683,5.0683,5.0683,5.0683,5.0683,5.0683,5.0683,5.0624,5.0442,5.0092,4.97,4.9326,4.8897,4.8569,4.8456,4.8803,4.9303,4.9614,5.0153,5.0159,5.0072,5.0189,5.038,5.0472,5.1077,5.1555,5.1701,5.227,5.2766,5.2826,5.3041,5.3188,5.3206,5.3206,5.3408,5.3885,5.4234,5.484,5.5757,5.6492,5.6987,5.7446,5.7795,5.7923,5.7657,5.7776,5.7978,5.7978,5.7978,5.7978,5.7978,5.7932,5.7886,5.7431,5.7382,5.7,5.5934,5.5287,5.4765,5.5103,5.5005,5.4802,5.4889,5.5057,5.5463,5.1387,5.1387,5.1387,5.1387,5.1387,5.1342,5.1264,5.1202,5.1087,5.0979,5.0875,5.0741,5.0683,5.0683,5.0683,5.0683,5.0683,5.0683,5.0683,5.0683,5.0683,5.0683,5.0683,5.0683,5.0683,5.0683,5.0683,5.0683,5.0683,5.0683,5.0683,5.0683,5.0683,5.0683,5.0683,5.0683,5.0683,5.0683,5.0683,5.0683,5.0683,5.0683,5.0683,5.0683,5.0683,5.0683,5.0683,5.0683,5.0683,5.0683,5.0683,5.0683,5.0683,5.0683,5.0683,5.0683,5.0683,5.0624,5.0483,5.0135,4.9719,4.9363,4.921,4.8993,4.8803,4.9505,5.0022,5.0386,5.0812,5.125,5.1553,5.1582,5.1481,5.1371,5.1903,5.2362,5.2417,5.2876,5.3151,5.3151,5.317,5.3206,5.3261,5.3457,5.3806,5.4381,5.4785,5.5702,5.6528,5.7079,5.7336,5.7868,5.7941,5.7978,5.7886,5.7923,5.7978,5.7978,5.7978,5.7978,5.7932,5.7839,5.7546,5.6997,5.6611,5.6233,5.5738,5.5087,5.5172,5.5549,5.5465,5.5212,5.548,5.5852,5.6173,5.1387,5.1387,5.1387,5.1387,5.1366,5.1276,5.1202,5.1145,5.0972,5.0894,5.0856,5.0741,5.0683,5.0683,5.0683,5.0683,5.0683,5.0683,5.0683,5.0683,5.0683,5.0683,5.0683,5.0683,5.0683,5.0683,5.0683,5.0683,5.0683,5.0683,5.0683,5.0683,5.0683,5.0683,5.0683,5.0683,5.0683,5.0683,5.0683,5.0683,5.0683,5.0683,5.0683,5.0683,5.0683,5.0683,5.0683,5.0683,5.0683,5.0683,5.0683,5.0683,5.0683,5.0683,5.0683,5.0683,5.0683,5.0504,5.0159,4.9773,4.9405,4.922,4.9363,4.9559,4.9685,5.0335,5.1077,5.1584,5.1899,5.2273,5.2889,5.2986,5.2711,5.2215,5.2656,5.3041,5.3115,5.317,5.3206,5.3206,5.3206,5.3206,5.3347,5.3781,5.4294,5.473,5.5647,5.662,5.695,5.7464,5.7886,5.7978,5.7978,5.7978,5.7978,5.7978,5.7978,5.7978,5.7978,5.7978,5.7821,5.766,5.7116,5.6634,5.5932,5.5592,5.5555,5.5008,5.5383,5.5677,5.5612,5.5852,5.6241,5.6596,5.6731,5.1387,5.1387,5.1387,5.1347,5.1263,5.1199,5.1126,5.0991,5.0933,5.0837,5.076,5.0702,5.0683,5.0683,5.0683,5.0683,5.0683,5.0683,5.0683,5.0683,5.0683,5.0683,5.0683,5.0683,5.0683,5.0683,5.0683,5.0683,5.0683,5.0683,5.0683,5.0683,5.0683,5.0683,5.0683,5.0683,5.0683,5.0683,5.0683,5.0683,5.0683,5.0683,5.0683,5.0683,5.0683,5.0683,5.0683,5.0683,5.0683,5.0683,5.0683,5.0683,5.0683,5.0683,5.0683,5.0683,5.0683,5.0523,5.0135,4.9738,4.9577,4.9642,4.9639,4.9887,5.0398,5.1161,5.1716,5.2063,5.2495,5.2981,5.3127,5.3206,5.3078,5.2876,5.3059,5.3206,5.3206,5.3206,5.3206,5.3206,5.3206,5.3206,5.3329,5.3909,5.4642,5.5244,5.618,5.6969,5.7519,5.7776,5.7978,5.7978,5.7978,5.7978,5.7978,5.7875,5.7752,5.7865,5.7912,5.7821,5.766,5.7216,5.6721,5.6035,5.5409,5.5185,5.5154,5.5347,5.575,5.6111,5.6423,5.671,5.712,5.7273,5.7323,5.1387,5.1387,5.1352,5.128,5.1203,5.1126,5.1029,5.0914,5.0837,5.076,5.0702,5.0683,5.0683,5.0683,5.0683,5.0683,5.0683,5.0683,5.0683,5.0683,5.0683,5.0683,5.0683,5.0683,5.0683,5.0683,5.0683,5.0683,5.0683,5.0683,5.0683,5.0683,5.0683,5.0683,5.0683,5.0683,5.0683,5.0683,5.0683,5.0683,5.0683,5.0683,5.0683,5.0683,5.0683,5.0683,5.0683,5.0683,5.0683,5.0683,5.0683,5.0683,5.0683,5.0683,5.0641,5.0486,5.044,5.0239,4.9757,4.9687,4.973,4.9933,5.0264,5.0714,5.1279,5.2022,5.2426,5.2555,5.2839,5.3206,5.3206,5.3206,5.3206,5.3206,5.3206,5.3206,5.3206,5.3206,5.3206,5.3206,5.3206,5.3311,5.3714,5.4338,5.5163,5.5941,5.673,5.7336,5.7868,5.796,5.7978,5.7978,5.7978,5.7978,5.795,5.7799,5.7582,5.765,5.7747,5.7638,5.7449,5.6755,5.6095,5.5252,5.4531,5.5104,5.5161,5.5839,5.6326,5.6718,5.7133,5.7391,5.7594,5.7662,5.7695,5.1387,5.1367,5.1242,5.1202,5.1164,5.101,5.0914,5.0875,5.076,5.0702,5.0683,5.0683,5.0683,5.0683,5.0683,5.0683,5.0683,5.0683,5.0683,5.0683,5.0683,5.0683,5.0683,5.0683,5.0683,5.0683,5.0683,5.0683,5.0683,5.0683,5.0683,5.0683,5.0683,5.0683,5.0683,5.0683,5.0683,5.0683,5.0683,5.0683,5.0683,5.0683,5.0683,5.0683,5.0683,5.0683,5.0683,5.0683,5.0683,5.0683,5.0683,5.0683,5.0683,5.0683,5.0552,5.0193,5.0118,4.9777,4.9365,4.9706,5.0043,5.0133,5.1081,5.2032,5.2123,5.2637,5.3023,5.3059,5.3151,5.3206,5.3206,5.3206,5.3206,5.3206,5.3206,5.3206,5.3206,5.3206,5.3206,5.3206,5.3261,5.3494,5.4221,5.4998,5.5786,5.6602,5.7354,5.7813,5.7941,5.7978,5.7978,5.7978,5.7978,5.7978,5.7932,5.7497,5.7255,5.7239,5.7298,5.6948,5.6825,5.6132,5.5414,5.45,5.4413,5.4975,5.56,5.6234,5.6853,5.7386,5.7679,5.7848,5.7881,5.7881,5.7881,5.1387,5.1387,5.1261,5.1164,5.1106,5.0972,5.0837,5.0741,5.0721,5.0683,5.0683,5.0683,5.0683,5.0683,5.0683,5.0683,5.0683,5.0683,5.0683,5.0683,5.0683,5.0683,5.0683,5.0683,5.0683,5.0683,5.0683,5.0683,5.0683,5.0683,5.0683,5.0683,5.0683,5.0683,5.0683,5.0683,5.0683,5.0683,5.0683,5.0683,5.0683,5.0683,5.0683,5.0683,5.0683,5.0683,5.0683,5.0683,5.0683,5.0683,5.0683,5.0683,5.0683,5.0683,5.047,5.0147,5.0071,5.0021,4.9849,4.998,5.0453,5.1268,5.1738,5.2252,5.2858,5.3059,5.3206,5.3206,5.3206,5.3206,5.3206,5.3206,5.3206,5.3206,5.3206,5.3206,5.3206,5.3206,5.3206,5.3206,5.3206,5.3622,5.4386,5.5103,5.5935,5.674,5.7464,5.7978,5.7978,5.7978,5.7978,5.7978,5.7978,5.7978,5.781,5.7264,5.6991,5.6834,5.6561,5.6039,5.5836,5.5379,5.4606,5.3817,5.4804,5.5434,5.6043,5.6626,5.7273,5.7848,5.7865,5.7881,5.7881,5.7881,5.7881,5.1387,5.1387,5.1236,5.1134,5.1087,5.0914,5.076,5.0702,5.0683,5.0683,5.0683,5.0683,5.0683,5.0683,5.0683,5.0683,5.0683,5.0683,5.0683,5.0683,5.0683,5.0683,5.0683,5.0683,5.0683,5.0683,5.0683,5.0683,5.0683,5.0683,5.0683,5.0683,5.0683,5.0683,5.0683,5.0683,5.0683,5.0683,5.0683,5.0683,5.0683,5.0683,5.0683,5.0683,5.0683,5.0683,5.0683,5.0683,5.0683,5.0683,5.0683,5.0683,5.0683,5.0529,5.0278,4.9882,4.9687,4.9657,4.9936,5.0176,5.0914,5.182,5.2252,5.2711,5.3078,5.3206,5.3206,5.3206,5.3206,5.3206,5.3206,5.3206,5.3206,5.3206,5.3206,5.3206,5.3206,5.3206,5.3206,5.3206,5.3261,5.3659,5.4679,5.534,5.6109,5.7052,5.7685,5.7923,5.7978,5.7978,5.7978,5.7978,5.7702,5.7528,5.7122,5.6541,5.5928,5.5894,5.5602,5.5087,5.4982,5.4695,5.4154,5.3905,5.4992,5.5809,5.6195,5.6731,5.7492,5.7865,5.7881,5.7881,5.7881,5.7881,5.7881,5.1387,5.1355,5.1172,5.1095,5.1048,5.0818,5.0702,5.0683,5.0683,5.0683,5.0683,5.0683,5.0683,5.0683,5.0683,5.0683,5.0683,5.0683,5.0683,5.0683,5.0683,5.0683,5.0683,5.0683,5.0683,5.0683,5.0683,5.0683,5.0683,5.0683,5.0683,5.0683,5.0683,5.0683,5.0683,5.0683,5.0683,5.0683,5.0683,5.0683,5.0683,5.0683,5.0683,5.0683,5.0683,5.0683,5.0683,5.0683,5.0663,5.0643,5.0624,5.0586,5.0586,5.026,4.9935,4.9623,4.9415,4.9428,4.9814,5.0588,5.1301,5.2142,5.2839,5.3206,5.3206,5.3206,5.3206,5.3206,5.3206,5.3206,5.3206,5.3206,5.3206,5.3206,5.3206,5.3206,5.3206,5.3206,5.3206,5.3206,5.3206,5.3977,5.5016,5.5715,5.6136,5.74,5.7905,5.7923,5.7978,5.7978,5.7978,5.7978,5.7546,5.6956,5.6396,5.5705,5.5102,5.4675,5.4378,5.4059,5.4328,5.4106,5.3783,5.3907,5.4669,5.5332,5.5837,5.6562,5.7408,5.7881,5.7881,5.7881,5.7881,5.7881,5.7881,5.1336,5.1242,5.1147,5.1037,5.0933,5.076,5.0683,5.0683,5.0683,5.0683,5.0683,5.0683,5.0683,5.0683,5.0683,5.0683,5.0683,5.0683,5.0683,5.0683,5.0683,5.0683,5.0683,5.0683,5.0683,5.0683,5.0683,5.0683,5.0683,5.0683,5.0683,5.0683,5.0683,5.0683,5.0683,5.0683,5.0683,5.0683,5.0683,5.0683,5.0683,5.0683,5.0683,5.0683,5.0683,5.0683,5.0683,5.0683,5.0544,5.0313,5.0249,5.0221,5.016,4.9855,4.9581,4.9542,4.9731,4.9991,5.0545,5.1224,5.2087,5.2766,5.3041,5.3206,5.3206,5.3206,5.3206,5.3206,5.3206,5.3206,5.3206,5.3206,5.3206,5.3206,5.3206,5.3206,5.3206,5.3206,5.3206,5.3206,5.3243,5.3794,5.5299,5.5542,5.631,5.7602,5.7978,5.7978,5.7932,5.7867,5.7708,5.7576,5.6948,5.6334,5.5973,5.526,5.4564,5.4071,5.3703,5.3501,5.3717,5.3766,5.3551,5.3788,5.4211,5.4804,5.5465,5.6173,5.7057,5.7408,5.7831,5.7814,5.7797,5.7831,5.7881,5.1263,5.1183,5.1061,5.0955,5.0875,5.0741,5.0683,5.0683,5.0683,5.0683,5.0683,5.0683,5.0683,5.0683,5.0683,5.0683,5.0683,5.0683,5.0683,5.0683,5.0683,5.0683,5.0683,5.0683,5.0683,5.0683,5.0683,5.0683,5.0683,5.0683,5.0683,5.0683,5.0683,5.0683,5.0683,5.0683,5.0683,5.0683,5.0683,5.0683,5.0683,5.0683,5.0683,5.0683,5.0683,5.0683,5.0683,5.0683,5.0358,4.9974,4.9827,4.9803,4.9739,4.9441,4.9238,4.9268,4.9625,5.0153,5.0762,5.1536,5.2307,5.3133,5.3206,5.3206,5.3206,5.3206,5.3206,5.3206,5.3206,5.3206,5.3206,5.3206,5.3206,5.3206,5.3206,5.3206,5.3206,5.3206,5.3206,5.3206,5.3225,5.3794,5.4601,5.5149,5.6036,5.7162,5.784,5.7831,5.7382,5.7266,5.7029,5.6675,5.6079,5.5649,5.5411,5.486,5.4068,5.3736,5.3602,5.3518,5.3618,5.3551,5.3501,5.3805,5.4093,5.4483,5.5144,5.5854,5.6498,5.6972,5.7345,5.7526,5.7729,5.7814,5.7865,5.1183,5.1145,5.0991,5.0895,5.0837,5.0741,5.0683,5.0683,5.0683,5.0683,5.0683,5.0683,5.0683,5.0683,5.0683,5.0683,5.0683,5.0683,5.0683,5.0683,5.0683,5.0683,5.0683,5.0683,5.0683,5.0683,5.0683,5.0683,5.0683,5.0683,5.0683,5.0683,5.0683,5.0683,5.0683,5.0683,5.0683,5.0683,5.0683,5.0683,5.0644,5.0625,5.0509,5.0421,5.0529,5.0527,5.0545,5.0504,5.0249,4.9561,4.9445,4.9386,4.9248,4.9026,4.8871,4.8917,4.9533,5.0189,5.0853,5.1683,5.2564,5.3188,5.3206,5.3206,5.3206,5.3206,5.3206,5.3206,5.3206,5.3206,5.3206,5.3206,5.3206,5.3206,5.3206,5.3206,5.3206,5.3206,5.3206,5.3206,5.3243,5.3647,5.4195,5.4811,5.5725,5.6557,5.7198,5.7551,5.7043,5.6755,5.6509,5.6115,5.5544,5.4896,5.4617,5.4537,5.3717,5.3618,5.3518,5.3518,5.3518,5.3518,5.3534,5.3619,5.394,5.4279,5.4669,5.5177,5.5803,5.6396,5.6887,5.7154,5.7459,5.7763,5.7814,5.1106,5.0972,5.0914,5.0818,5.0721,5.0702,5.0683,5.0683,5.0683,5.0683,5.0683,5.0683,5.0683,5.0683,5.0683,5.0683,5.0683,5.0683,5.0683,5.0683,5.0683,5.0683,5.0683,5.0683,5.0683,5.0683,5.0683,5.0683,5.0683,5.0683,5.0683,5.0683,5.0683,5.0683,5.0683,5.0683,5.0624,5.0604,5.0585,5.0565,5.0529,5.0329,5.0049,4.9884,5.0083,5.0183,5.021,5.0183,4.9974,4.9532,4.9152,4.8881,4.8655,4.8503,4.8584,4.8992,4.9793,5.0472,5.0894,5.2105,5.2876,5.3188,5.3206,5.3206,5.3206,5.3206,5.3206,5.3206,5.3206,5.3206,5.3206,5.3206,5.3206,5.3206,5.3206,5.3164,5.3164,5.3103,5.3011,5.2926,5.3091,5.3347,5.3859,5.4255,5.4825,5.5443,5.5904,5.636,5.6258,5.6206,5.6224,5.5712,5.5155,5.4435,5.383,5.3798,5.3568,5.3568,5.3518,5.3518,5.3518,5.3518,5.3551,5.3602,5.367,5.394,5.4296,5.4652,5.511,5.5653,5.621,5.6765,5.7002,5.7222,5.7645,5.1049,5.0914,5.0818,5.076,5.0702,5.0683,5.0683,5.0683,5.0683,5.0683,5.0683,5.0683,5.0683,5.0683,5.0683,5.0683,5.0683,5.0683,5.0683,5.0683,5.0683,5.0683,5.0683,5.0683,5.0683,5.0683,5.0683,5.0664,5.0683,5.0683,5.0683,5.0683,5.0683,5.0683,5.0624,5.0483,5.0421,5.0377,5.0206,5.0103,5.0099,4.9847,4.964,4.9634,4.9652,4.9788,4.9808,4.98,4.9608,4.9234,4.9029,4.8692,4.8421,4.8343,4.8398,4.8767,4.9593,5.042,5.082,5.1958,5.2674,5.3151,5.3188,5.3206,5.3206,5.3206,5.3206,5.3206,5.3206,5.3206,5.3206,5.3206,5.3206,5.3206,5.3164,5.2999,5.2787,5.2662,5.2532,5.2444,5.2804,5.3115,5.3463,5.3772,5.4002,5.4323,5.4669,5.4971,5.5291,5.5393,5.537,5.5032,5.4423,5.4178,5.3584,5.3551,5.3518,5.3518,5.3518,5.3518,5.3518,5.3518,5.3518,5.3534,5.3602,5.3737,5.3721,5.4025,5.45,5.4924,5.5312,5.5767,5.6275,5.6697,5.712,5.0991,5.0856,5.0741,5.0683,5.0683,5.0683,5.0683,5.0683,5.0683,5.0683,5.0683,5.0683,5.0683,5.0683,5.0683,5.0683,5.0683,5.0683,5.0683,5.0683,5.0683,5.0683,5.0683,5.0604,5.0544,5.0485,5.0356,5.0548,5.0683,5.0683,5.0683,5.0683,5.0683,5.0683,5.0624,5.0336,5.0159,4.9993,4.97,4.9492,4.941,4.9383,4.934,4.9321,4.934,4.9375,4.937,4.9386,4.9265,4.8996,4.8813,4.8621,4.8382,4.8324,4.8324,4.8434,4.9118,4.989,5.053,5.1279,5.2068,5.2729,5.2913,5.3023,5.3206,5.3206,5.3206,5.3206,5.3206,5.3206,5.3206,5.3206,5.3206,5.3206,5.3164,5.298,5.2445,5.2152,5.1917,5.2046,5.2451,5.2518,5.2578,5.2394,5.2398,5.3048,5.3406,5.3437,5.377,5.4046,5.4104,5.3918,5.37,5.37,5.3501,5.3551,5.3518,5.3518,5.3518,5.3518,5.3518,5.3518,5.3518,5.3518,5.3518,5.3568,5.3518,5.3518,5.394,5.4279,5.4431,5.4837,5.5429,5.6055,5.6596,5.0837,5.0702,5.0702,5.0683,5.0683,5.0683,5.0683,5.0683,5.0683,5.0683,5.0683,5.0683,5.0683,5.0683,5.0683,5.0683,5.0683,5.0683,5.0683,5.0683,5.0683,5.0683,5.0624,5.0294,5.0272,5.0214,4.9888,5.0106,5.0411,5.0565,5.0624,5.0604,5.0565,5.0644,5.0483,5.0116,5.0111,5.0019,4.9664,4.9315,4.905,4.8948,4.8826,4.8675,4.8768,4.8975,4.8952,4.8963,4.8897,4.8881,4.855,4.8364,4.8324,4.8324,4.8324,4.8526,4.9044,4.9653,4.9924,5.0527,5.1279,5.1977,5.2215,5.2546,5.2986,5.3206,5.3206,5.3206,5.3206,5.3206,5.3206,5.3206,5.3206,5.3206,5.3164,5.2769,5.2224,5.179,5.1538,5.0974,5.1185,5.1221,5.1278,5.0978,5.0752,5.1475,5.2052,5.2148,5.2389,5.2831,5.3249,5.3175,5.3467,5.3518,5.3518,5.3518,5.3518,5.3518,5.3518,5.3518,5.3518,5.3518,5.3518,5.3518,5.3518,5.3518,5.3518,5.3534,5.3585,5.3754,5.4076,5.4346,5.4668,5.531,5.5987,5.0741,5.0683,5.0683,5.0683,5.0683,5.0683,5.0683,5.0683,5.0683,5.0683,5.0683,5.0683,5.0683,5.0683,5.0683,5.0683,5.0683,5.0683,5.0683,5.0683,5.0683,5.0683,5.0604,5.0313,5.0111,4.9948,4.9752,4.9657,4.998,5.0019,5.0019,5.0038,5.0024,4.9974,5.0068,4.9626,4.9475,4.9295,4.9029,4.8739,4.8616,4.855,4.8471,4.8324,4.8471,4.855,4.8569,4.8568,4.8568,4.855,4.8364,4.8306,4.8324,4.8324,4.8324,4.8343,4.862,4.9061,4.9554,4.9921,5.0508,5.1242,5.1738,5.238,5.2986,5.3188,5.3188,5.3206,5.3206,5.3206,5.3206,5.3206,5.3206,5.3164,5.2999,5.2353,5.1808,5.1593,5.1187,5.0482,4.9936,5.009,5.0254,5.0233,5.0115,5.0471,5.0801,5.0695,5.1275,5.2038,5.2442,5.2724,5.3079,5.3518,5.3518,5.3518,5.3518,5.3518,5.3518,5.3518,5.3518,5.3518,5.3518,5.3518,5.3518,5.3518,5.3518,5.3518,5.3551,5.3636,5.3754,5.3974,5.4194,5.4634,5.531,5.0683,5.0683,5.0683,5.0683,5.0683,5.0683,5.0683,5.0683,5.0683,5.0683,5.0683,5.0683,5.0683,5.0683,5.0683,5.0683,5.0683,5.0683,5.0683,5.0683,5.0683,5.0624,5.0421,5.0135,4.9872,4.9781,4.9251,4.9165,4.9184,4.924,4.9296,4.9478,4.9627,4.957,4.9416,4.9202,4.8963,4.8779,4.855,4.8383,4.8326,4.8326,4.8343,4.8324,4.8324,4.8324,4.8324,4.8306,4.8344,4.8344,4.8344,4.8324,4.8324,4.8324,4.8324,4.8324,4.8416,4.86,4.8985,4.9297,4.9738,5.0435,5.1206,5.1807,5.2352,5.27,5.2907,5.2815,5.3109,5.317,5.3164,5.306,5.2831,5.2725,5.2617,5.1825,5.1207,5.0981,5.0554,4.9896,4.9419,4.9256,4.9419,4.9613,4.9649,4.9674,4.9573,4.9419,5.0168,5.1231,5.1761,5.2168,5.2674,5.3197,5.3484,5.3484,5.3501,5.3518,5.3518,5.3518,5.3518,5.3518,5.3518,5.3518,5.3518,5.3518,5.3518,5.3518,5.3518,5.3585,5.3619,5.3568,5.3771,5.4194,5.4617,5.0683,5.0683,5.0683,5.0683,5.0683,5.0683,5.0683,5.0683,5.0683,5.0683,5.0683,5.0683,5.0683,5.0683,5.0643,5.0642,5.0663,5.0683,5.0585,5.0604,5.0663,5.0399,5.0111,4.9746,4.9386,4.9075,4.8744,4.855,4.8421,4.8623,4.8919,4.94,4.9286,4.9412,4.9295,4.8963,4.8657,4.8477,4.8344,4.8306,4.8324,4.8324,4.8324,4.8324,4.8324,4.8324,4.8324,4.8324,4.8324,4.8324,4.8324,4.8324,4.8324,4.8324,4.8324,4.8324,4.8324,4.8434,4.8581,4.8655,4.8912,4.9627,5.038,5.1,5.137,5.181,5.2035,5.2236,5.27,5.3072,5.2962,5.268,5.2427,5.2271,5.2018,5.1292,5.0734,5.0407,4.9993,4.9273,4.9018,4.9018,4.9018,4.9266,4.9317,4.935,4.9333,4.9238,4.9627,5.0507,5.1153,5.1646,5.2152,5.2708,5.3315,5.3467,5.3501,5.3518,5.3518,5.3518,5.3518,5.3518,5.3518,5.3518,5.3518,5.3518,5.3518,5.3518,5.3518,5.3518,5.3518,5.3518,5.3602,5.3974,5.4176,5.0683,5.0683,5.0683,5.0683,5.0683,5.0683,5.0683,5.0683,5.0683,5.0683,5.0683,5.0683,5.0683,5.0643,5.0409,5.0345,5.0304,5.0044,5.0012,4.9949,4.9905,4.9853,4.9589,4.9367,4.9043,4.8795,4.8513,4.8324,4.8344,4.8324,4.8416,4.8716,4.8822,4.8748,4.8676,4.8676,4.8495,4.8364,4.8324,4.8324,4.8324,4.8324,4.8324,4.8324,4.8324,4.8324,4.8324,4.8324,4.8324,4.8324,4.8324,4.8324,4.8324,4.8324,4.8324,4.8324,4.8324,4.8324,4.8324,4.8361,4.8691,4.9389,4.9903,5.0211,5.0552,5.1106,5.154,5.1907,5.2236,5.2535,5.3048,5.2554,5.2112,5.1952,5.1426,5.0716,5.0258,4.9936,4.9681,4.9107,4.9001,4.9018,4.9018,4.9035,4.9035,4.9063,4.9035,4.912,4.9475,4.9796,5.0507,5.1051,5.156,5.2051,5.2657,5.3061,5.345,5.3467,5.345,5.3518,5.3518,5.3518,5.3518,5.3518,5.3518,5.3518,5.3518,5.3518,5.3518,5.3518,5.3518,5.3518,5.3653,5.3805,5.3685,5.0683,5.0683,5.0683,5.0683,5.0683,5.0683,5.0683,5.0683,5.0683,5.0683,5.0683,5.0683,5.0606,5.0448,5.0264,5.0015,4.9905,4.9698,4.9579,4.9532,4.9561,4.9416,4.9265,4.9075,4.8863,4.8692,4.8513,4.8324,4.8324,4.8324,4.8361,4.8361,4.8324,4.8344,4.8344,4.8324,4.8324,4.8324,4.8324,4.8324,4.8324,4.8324,4.8324,4.8324,4.8324,4.8324,4.8324,4.8324,4.8324,4.8324,4.8324,4.8324,4.8324,4.8324,4.8324,4.8324,4.8324,4.8324,4.8324,4.8379,4.8563,4.9022,4.9132,4.9499,4.9921,5.027,5.0674,5.1055,5.1417,5.1967,5.2687,5.2091,5.1706,5.1464,5.0998,5.0297,4.9838,4.9521,4.9376,4.9046,4.9063,4.9018,4.9018,4.9018,4.9018,4.9018,4.9018,4.9035,4.9154,4.952,4.9825,5.0401,5.0909,5.144,5.1916,5.2437,5.2893,5.3061,5.3129,5.345,5.3518,5.3518,5.3518,5.3518,5.3518,5.3518,5.3518,5.3518,5.3518,5.3518,5.3518,5.3518,5.3534,5.3568,5.297,5.0683,5.0683,5.0683,5.0683,5.0683,5.0683,5.0683,5.0683,5.0683,5.0683,5.0683,5.0683,5.0491,5.0219,5.0068,4.9833,4.9517,4.9407,4.9356,4.9295,4.9252,4.919,4.9011,4.8795,4.8676,4.8402,4.8324,4.8324,4.8324,4.8324,4.8324,4.8324,4.8324,4.8324,4.8324,4.8324,4.8324,4.8324,4.8324,4.8324,4.8324,4.8324,4.8324,4.8324,4.8324,4.8324,4.8324,4.8324,4.8324,4.8324,4.8324,4.8324,4.8324,4.8324,4.8324,4.8324,4.8324,4.8324,4.8324,4.8324,4.8416,4.8508,4.8636,4.8691,4.8691,4.9061,4.9763,5.0199,5.0493,5.1165,5.1432,5.1366,5.109,5.085,5.0345,4.9867,4.9393,4.9273,4.9107,4.9063,4.9001,4.9018,4.9018,4.9018,4.9018,4.9018,4.9018,4.9018,4.9035,4.9154,4.9469,4.9837,5.0345,5.0769,5.1237,5.1914,5.2336,5.2504,5.2807,5.3129,5.3416,5.3518,5.3518,5.3501,5.3518,5.3518,5.3518,5.3518,5.3314,5.3177,5.345,5.3518,5.3518,5.3195,5.2557,5.0683,5.0683,5.0683,5.0683,5.0683,5.0683,5.0683,5.0683,5.0683,5.0683,5.0683,5.0683,5.0491,5.0138,4.9778,4.9484,4.9122,4.8753,4.8692,4.8728,4.8763,4.864,4.8532,4.855,4.8458,4.8344,4.8324,4.8324,4.8324,4.8324,4.8324,4.8324,4.8324,4.8324,4.8324,4.8324,4.8324,4.8324,4.8324,4.8324,4.8324,4.8324,4.8324,4.8324,4.8324,4.8324,4.8324,4.8324,4.8324,4.8324,4.8324,4.8324,4.8324,4.8324,4.8324,4.8324,4.8324,4.8324,4.8324,4.8324,4.8324,4.8324,4.8324,4.8324,4.8398,4.8489,4.8989,4.9393,4.9701,5.0358,5.0861,5.0064,4.9706,4.9905,4.9565,4.9186,4.8853,4.8978,4.9001,4.9001,4.9001,4.9018,4.9018,4.9018,4.9018,4.9018,4.9018,4.9018,4.9018,4.9018,4.9232,4.9385,4.9786,5.0136,5.0566,5.118,5.1693,5.1995,5.2367,5.2807,5.3078,5.3247,5.3399,5.3315,5.3416,5.3501,5.3298,5.3111,5.2884,5.2864,5.2834,5.3025,5.3041,5.2574,5.1865,5.0683,5.0683,5.0683,5.0683,5.0683,5.0683,5.0683,5.0663,5.0565,5.0486,5.0431,5.0344,5.0059,4.9682,4.9416,4.9071,4.8695,4.8434,4.8306,4.8324,4.8324,4.8344,4.8344,4.8324,4.8344,4.8324,4.8324,4.8324,4.8324,4.8324,4.8324,4.8324,4.8324,4.8324,4.8324,4.8324,4.8324,4.8324,4.8324,4.8324,4.8324,4.8324,4.8324,4.8324,4.8324,4.8324,4.8324,4.8324,4.8324,4.8324,4.8324,4.8324,4.8324,4.8324,4.8324,4.8324,4.8324,4.8324,4.8324,4.8324,4.8324,4.8324,4.8324,4.8324,4.8324,4.8379,4.862,4.8893,4.8992,4.9341,4.9665,4.8733,4.8597,4.8837,4.8931,4.8489,4.8426,4.8578,4.8951,4.8951,4.9001,4.9001,4.9018,4.9018,4.9018,4.9018,4.9018,4.9018,4.9018,4.9018,4.9018,4.9198,4.93,4.9599,4.9949,5.0402,5.0951,5.14,5.1857,5.2198,5.2418,5.2536,5.2841,5.3162,5.3264,5.3264,5.2977,5.2719,5.2241,5.199,5.1832,5.2048,5.24,5.1865,5.108,5.0683,5.0683,5.0683,5.0683,5.0683,5.0683,5.0683,5.0643,5.0272,5.0122,5.0065,4.9739,4.9435,4.9033,4.8923,4.8709,4.8401,4.8324,4.8324,4.8324,4.8324,4.8324,4.8324,4.8324,4.8324,4.8324,4.8324,4.8324,4.8324,4.8324,4.8324,4.8324,4.8324,4.8324,4.8324,4.8324,4.8324,4.8324,4.8324,4.8324,4.8324,4.8324,4.8324,4.8324,4.8324,4.8324,4.8324,4.8324,4.8324,4.8324,4.8324,4.8324,4.8324,4.8324,4.8324,4.8324,4.8324,4.8324,4.8324,4.8324,4.8324,4.8267,4.821,4.8267,4.8229,4.8192,4.8288,4.8101,4.8031,4.8155,4.8258,4.7908,4.7571,4.7928,4.8248,4.81,4.8005,4.8257,4.8714,4.89,4.8968,4.9001,4.9001,4.9018,4.9018,4.9018,4.9018,4.9018,4.9018,4.9018,4.9018,4.9018,4.9069,4.9052,4.943,4.9814,5.0215,5.0735,5.1011,5.1336,5.1555,5.186,5.2131,5.2486,5.2926,5.2859,5.2286,5.1762,5.142,5.1121,5.0647,5.0973,5.1245,5.0779,5.0087,5.0683,5.0683,5.0683,5.0683,5.0683,5.0683,5.0544,5.0272,5.0116,4.9967,4.9675,4.9554,4.9154,4.8922,4.8884,4.86,4.8384,4.8324,4.8324,4.8306,4.8269,4.8306,4.8324,4.8324,4.8324,4.8324,4.8324,4.8324,4.8324,4.8324,4.8324,4.8324,4.8324,4.8324,4.8324,4.8324,4.8267,4.8267,4.8267,4.8324,4.8324,4.8324,4.8324,4.8324,4.8324,4.8324,4.8324,4.8324,4.8324,4.8324,4.8324,4.8324,4.8324,4.8324,4.8324,4.8324,4.8324,4.8324,4.8324,4.8324,4.8229,4.8075,4.7838,4.7656,4.7756,4.7806,4.7746,4.7452,4.7214,4.7342,4.7156,4.6795,4.6639,4.6862,4.7103,4.7141,4.7158,4.7699,4.8112,4.8489,4.8574,4.8917,4.8951,4.9018,4.9018,4.9018,4.9018,4.9018,4.9018,4.9018,4.9018,4.9018,4.9018,4.9018,4.9018,4.9317,4.9695,5.0034,5.0265,5.0591,5.0997,5.1268,5.1454,5.1543,5.1698,5.1598,5.1245,5.0765,5.004,4.9696,4.9315,4.9757,5.0009,4.952,4.9215,4.9663,4.9663,4.9663,4.9606,4.9486,4.9466,4.919,4.8875,4.9516,4.9635,4.9248,4.907,4.8729,4.82,4.8103,4.7846,4.7316,4.7627,4.7774,4.781,4.8104,4.8288,4.8324,4.8269,4.8324,4.8324,4.8306,4.8324,4.8286,4.8286,4.8324,4.8324,4.8324,4.8267,4.8324,4.8267,4.8132,4.8093,4.8132,4.8267,4.8306,4.8288,4.8306,4.8324,4.8324,4.8324,4.8324,4.8324,4.8267,4.8324,4.8324,4.8324,4.8324,4.8324,4.8324,4.8324,4.8324,4.8132,4.7937,4.7897,4.7797,4.7572,4.7237,4.691,4.691,4.6963,4.6861,4.6717,4.6595,4.6465,4.6027,4.5634,4.5689,4.5777,4.584,4.5964,4.6464,4.7039,4.746,4.7878,4.8259,4.8591,4.8804,4.8951,4.9018,4.9018,4.9018,4.9018,4.9018,4.9018,4.9018,4.9018,4.9018,4.9018,4.9018,4.9018,4.9283,4.9531,4.9554,4.9898,5.0371,5.0548,5.0635,5.0423,5.0209,4.9908,4.9444,4.9059,4.8545,4.8133,4.7867,4.8055,4.8306,4.8337,4.8133,4.8106,4.8126,4.803,4.7945,4.7617,4.769,4.7307,4.6719,4.8405,4.8991,4.8534,4.8234,4.7645,4.7184,4.7059,4.6744,4.6544,4.6801,4.7021,4.704,4.748,4.7737,4.781,4.8141,4.7994,4.8141,4.8267,4.8245,4.8166,4.7992,4.7897,4.8229,4.8035,4.7937,4.8075,4.7897,4.7656,4.7428,4.7638,4.7901,4.8101,4.8157,4.8269,4.8306,4.8324,4.8324,4.8267,4.8267,4.8229,4.8229,4.8132,4.8035,4.7972,4.7974,4.7992,4.7995,4.7897,4.7656,4.7409,4.7281,4.7044,4.671,4.6336,4.6161,4.6161,4.6478,4.647,4.606,4.5908,4.5765,4.5401,4.5137,4.5086,4.5192,4.5297,4.5365,4.5652,4.6261,4.6887,4.7308,4.7631,4.8057,4.8523,4.8591,4.8787,4.8917,4.9018,4.9018,4.9018,4.9018,4.9018,4.9018,4.9018,4.9018,4.9018,4.9018,4.9018,4.9086,4.9058,4.9187,4.9627,4.9742,4.9754,4.9144,4.8442,4.7886,4.7435,4.7245,4.7052,4.6479,4.632,4.6256,4.6496,4.6921,4.7398,4.7952,4.7687,4.7438,4.7271,4.7219,4.7219,4.6911,4.6538,4.6956,4.7006,4.6653,4.6543,4.641,4.621,4.6176,4.5952,4.5917,4.5938,4.614,4.6195,4.6525,4.6707,4.6616,4.7016,4.7238,4.7609,4.7787,4.7947,4.7617,4.7304,4.7168,4.753,4.7324,4.7219,4.7554,4.7281,4.6955,4.6728,4.6802,4.7186,4.7488,4.7654,4.7752,4.8064,4.8229,4.8172,4.8035,4.7797,4.7715,4.7572,4.7088,4.6891,4.6827,4.6866,4.6853,4.6846,4.7017,4.688,4.6774,4.6618,4.6478,4.624,4.5965,4.5732,4.5732,4.6143,4.6077,4.5528,4.5177,4.5073,4.497,4.4744,4.4587,4.4688,4.4773,4.484,4.4908,4.5574,4.6309,4.6676,4.6992,4.7413,4.7956,4.831,4.8523,4.872,4.8951,4.9018,4.9018,4.9018,4.9018,4.9018,4.9018,4.9018,4.9018,4.8973,4.8928,4.8849,4.8837,4.8866,4.8877,4.8412,4.8013,4.7225,4.6593,4.6142,4.5927,4.5881,4.5578,4.5097,4.5214,4.5454,4.5589,4.5882,4.6541,4.6447,4.6263,4.6063,4.5884,4.5726,4.5716,4.5511,4.5203,4.5175,4.5047,4.5041,4.5516,4.5718,4.5443,4.5365,4.5121,4.5068,4.5222,4.5314,4.537,4.5405,4.5583,4.5765,4.5754,4.5983,4.6372,4.7044,4.7187,4.6864,4.6739,4.6677,4.688,4.6524,4.6524,4.6892,4.6524,4.6192,4.5996,4.5985,4.623,4.6649,4.6868,4.7065,4.7409,4.7475,4.7464,4.7367,4.7088,4.7044,4.691,4.6618,4.6504,4.6521,4.6493,4.6461,4.6432,4.6445,4.6304,4.6073,4.5965,4.5865,4.5648,4.5407,4.5089,4.5035,4.5355,4.5372,4.4889,4.4923,4.4795,4.4761,4.4587,4.457,4.4621,4.4654,4.4688,4.4722,4.5049,4.5648,4.6146,4.6438,4.6641,4.7234,4.7966,4.8118,4.8348,4.8595,4.8917,4.8951,4.8798,4.8861,4.8798,4.8719,4.8861,4.9018,4.8883,4.8761,4.8664,4.8456,4.8,4.7589,4.6831,4.6134,4.5762,4.5222,4.4659,4.4527,4.4693,4.4473,4.4183,4.4458,4.484,4.4915,4.502,4.5618,4.4638,4.4511,4.4503,4.427,4.3974,4.3962,4.3846,4.3603,4.355,4.3587,4.3754,4.4875,4.4965,4.4759,4.4536,4.4026,4.3848,4.4145,4.4364,4.4381,4.4418,4.4263,4.4204,4.4353,4.4741,4.5239,4.5827,4.6041,4.598,4.5912,4.5979,4.6182,4.624,4.6192,4.624,4.6094,4.5815,4.5527,4.5373,4.5407,4.5653,4.5935,4.6307,4.6416,4.6397,4.6381,4.6406,4.6336,4.6336,4.6209,4.6112,4.5975,4.5923,4.5884,4.5957,4.5903,4.5877,4.5677,4.551,4.5355,4.5089,4.4797,4.4609,4.4626,4.4626,4.4626,4.4626,4.4643,4.466,4.466,4.457,4.457,4.457,4.457,4.457,4.457,4.4587,4.466,4.5072,4.5592,4.5784,4.5954,4.6537,4.725,4.7561,4.7808,4.8179,4.8595,4.8787,4.8526,4.8433,4.8225,4.8015,4.8289,4.8861,4.858,4.8327,4.8051,4.7683,4.6977,4.633,4.585,4.5285,4.4646,4.4113,4.3851,4.3648,4.3732,4.3528,4.3449,4.3748,4.4197,4.4227,4.4392,4.4811,4.441,4.4077,4.3822,4.3664,4.3579,4.3597,4.3563,4.3513,4.3479,4.3479,4.3426,4.3243,4.3353,4.3718,4.3734,4.3465,4.3305,4.3341,4.3099,4.3057,4.2887,4.2632,4.2658,4.3094,4.3711,4.4152,4.4547,4.4729,4.4814,4.4924,4.5166,4.5561,4.5108,4.5232,4.5545,4.5355,4.5072,4.4875,4.4875,4.4889,4.4971,4.5367,4.5937,4.6175,4.6381,4.6411,4.6277,4.59,4.5732,4.5563,4.5337,4.5142,4.5142,4.5196,4.5166,4.5248,4.5213,4.5116,4.4958,4.4889,4.4665,4.4665,4.457,4.457,4.4626,4.4626,4.4626,4.4626,4.4587,4.4587,4.457,4.457,4.457,4.457,4.457,4.457,4.457,4.4587,4.4778,4.497,4.5004,4.5331,4.5779,4.6269,4.6448,4.6743,4.7312,4.7681,4.7797,4.7794,4.7785,4.7622,4.7324,4.7998,4.856,4.795,4.7571,4.7359,4.6827,4.5936,4.5342,4.5153,4.4586,4.4004,4.3708,4.3457,4.3344,4.3344,4.3344,4.3389,4.3374,4.3524,4.3599,4.3778,4.4182]},{"header":{"parameterUnit":"m.s-1","parameterCategory":1,"la1":31.0,"la2":29.5877,"lo1":-88.7671,"lo2":-86.6584,"dy":0.0162,"dx":0.0185,"nx":115,"ny":88,"refTime":"2023-04-29T12:00:00:Z","depth":0,"parameterNumber":3,"parameterNumberName":"V-component_of_WINDS"},"data":[0.0,0.0,0.0,0.0,0.0,0.0,0.0,0.0,0.0,0.0,0.0,0.0,0.0,0.0,0.0,0.0,0.0,0.0,0.0,0.0,0.0,0.0,0.0,0.0,0.0,0.0,0.0,0.0,0.0,0.0,0.0,0.0,0.0,0.0,0.0,0.0,0.0,0.0,0.0,0.0,0.0,0.0,0.0,0.0,0.0,0.0,0.0,0.0,0.0,0.0,0.0,0.0,0.0,0.0,0.0,0.0,0.0,0.0,0.0,0.0,0.0,0.0,0.0,0.0,0.0,0.0,0.0,0.0,0.0,0.0,0.0,0.0,0.0,0.0,0.0,0.0,0.0,0.0,0.0,0.0,0.0,0.0,0.0,0.0,0.0,0.0,0.0,0.0,0.0,0.0,0.0,0.0,0.0,0.0,0.0,0.0,0.0,0.0,0.0,0.0,0.0,0.0,0.0,0.0,0.0,0.0,0.0,0.0,0.0,0.0,0.0,0.0,0.0,0.0,0.0,0.0,0.0,0.0,0.0,0.0,0.0,0.0,0.0,0.0,0.0,0.0,0.0,0.0,0.0,0.0,0.0,0.0,0.0,0.0,0.0,0.0,0.0,0.0,0.0,0.0,0.0,0.0,0.0,0.0,0.0,0.0,0.0,0.0,0.0,0.0,0.0,0.0,0.0,0.0,0.0,0.0,0.0,0.0,0.0,0.0,0.0,0.0,0.0,0.0,0.0,0.0,0.0,0.0,0.0,0.0,0.0,0.0,0.0,0.0,0.0,0.0,0.0,0.0,0.0,0.0,0.0,0.0,0.0,0.0,0.0,0.0,0.0,0.0,0.0,0.0,0.0,0.0,0.0,0.0,0.0,0.0,0.0,0.0,0.0,0.0,0.0,0.0,0.0,0.0,0.0,0.0,0.0,0.0,0.0,0.0,0.0,0.0,0.0,0.0,0.0,0.0,0.0,0.0,0.0,0.0,0.0,0.0,0.0,0.0,0.0,0.0,0.0,0.0,0.0,0.0,0.0,0.0,0.0,0.0,0.0,0.0,0.0,0.0,0.0,0.0,0.0,0.0,0.0,0.0,0.0,0.0,0.0,0.0,0.0,0.0,0.0,0.0,0.0,0.0,0.0,0.0,0.0,0.0,0.0,0.0,0.0,0.0,0.0,0.0,0.0,0.0,0.0,0.0,0.0,0.0,0.0,0.0,0.0,0.0,0.0,0.0,0.0,0.0,0.0,0.0,0.0,0.0,0.0,0.0,0.0,0.0,0.0,0.0,0.0,0.0,0.0,0.0,0.0,0.0,0.0,0.0,0.0,0.0,0.0,0.0,0.0,0.0,0.0,0.0,0.0,0.0,0.0,0.0,0.0,0.0,0.0,0.0,0.0,0.0,0.0,0.0,0.0,0.0,0.0,0.0,0.0,0.0,0.0,0.0,0.0,0.0,0.0,0.0,0.0,0.0,0.0,0.0,0.0,0.0,0.0,0.0,0.0,0.0,0.0,0.0,0.0,0.0,0.0,0.0,0.0,0.0,0.0,0.0,0.0,0.0,0.0,0.0,0.0,0.0,0.0,0.0,0.0,0.0,0.0,0.0,0.0,0.0,0.0,0.0,0.0,0.0,0.0,0.0,0.0,0.0,0.0,0.0,0.0,0.0,0.0,0.0,0.0,0.0,0.0,0.0,0.0,0.0,0.0,0.0,0.0,0.0,0.0,0.0,0.0,0.0,0.0,0.0,0.0,0.0,0.0,0.0,0.0,0.0,0.0,0.0,0.0,0.0,0.0,0.0,0.0,0.0,0.0,0.0,0.0,0.0,0.0,0.0,0.0,0.0,0.0,0.0,0.0,0.0,0.0,0.0,0.0,0.0,0.0,0.0,0.0,0.0,0.0,0.0,0.0,0.0,0.0,0.0,0.0,0.0,0.0,0.0,0.0,0.0,0.0,0.0,0.0,0.0,0.0,0.0,0.0,0.0,0.0,0.0,0.0,0.0,0.0,0.0,0.0,0.0,0.0,0.0,0.0,0.0,0.0,0.0,0.0,0.0,0.0,0.0,0.0,0.0,0.0,0.0,0.0,0.0,0.0,0.0,0.0,0.0,0.0,0.0,0.0,0.0,0.0,0.0,0.0,0.0,0.0,0.0,0.0,0.0,0.0,0.0,0.0,0.0,0.0,0.0,0.0,0.0,0.0,0.0,0.0,0.0,0.0,0.0,0.0,0.0,0.0,0.0,0.0,0.0,0.0,0.0,0.0,0.0,0.0,0.0,0.0,0.0,0.0,0.0,0.0,0.0,0.0,0.0,0.0,0.0,0.0,0.0,0.0,0.0,0.0,0.0,0.0,0.0,0.0,0.0,0.0,0.0,0.0,0.0,0.0,0.0,0.0,0.0,0.0,0.0,0.0,0.0,0.0,0.0,0.0,0.0,0.0,0.0,0.0,0.0,0.0,0.0,0.0,0.0,0.0,0.0,0.0,0.0,0.0,0.0,0.0,0.0,0.0,0.0,0.0,0.0,0.0,0.0,0.0,0.0,0.0,0.0,0.0,0.0,0.0,0.0,0.0,0.0,0.0,0.0,0.0,0.0,0.0,0.0,0.0,0.0,0.0,0.0,0.0,0.0,0.0,0.0,0.0,0.0,0.0,0.0,0.0,0.0,0.0,0.0,0.0,0.0,0.0,0.0,0.0,0.0,0.0,0.0,0.0,0.0,0.0,0.0,0.0,0.0,0.0,0.0,0.0,0.0,0.0,0.0,0.0,0.0,0.0,0.0,0.0,0.0,0.0,0.0,0.0,0.0,0.0,0.0,0.0,0.0,0.0,0.0,0.0,0.0,0.0,0.0,0.0,0.0,0.0,0.0,0.0,0.0,0.0,0.0,0.0,0.0,0.0,0.0,0.0,0.0,0.0,0.0,0.0,0.0,0.0,0.0,0.0,0.0,0.0,0.0,0.0,0.0,0.0,0.0,0.0,0.0,0.0,0.0,0.0,0.0,0.0,0.0,0.0,0.0,0.0,0.0,0.0,0.0,0.0,0.0,0.0,0.0,0.0,0.0,0.0,0.0,0.0,0.0,0.0,0.0,0.0,0.0,0.0,0.0,0.0,0.0,0.0,0.0,0.0,0.0,0.0,0.0,0.0,0.0,0.0,0.0,0.0,0.0,0.0,0.0,0.0,0.0,0.0,0.0,0.0,0.0,0.0,0.0,0.0,0.0,0.0,0.0,0.0,0.0,0.0,0.0,0.0,0.0,0.0,0.0,0.0,0.0,0.0,0.0,0.0,0.0,0.0,0.0,0.0,0.0,0.0,0.0,0.0,0.0,0.0,0.0,0.0,0.0,0.0,0.0,0.0,0.0,0.0,0.0,0.0,0.0,0.0,0.0,0.0,0.0,0.0,0.0,0.0,0.0,0.0,0.0,0.0,0.0,0.0,0.0,0.0,0.0,0.0,0.0,0.0,0.0,0.0,0.0,0.0,0.0,0.0,0.0,0.0,0.0,0.0,0.0,0.0,0.0,0.0,0.0,0.0,0.0,0.0,0.0,0.0,0.0,0.0,0.0,0.0,0.0,0.0,0.0,0.0,0.0,0.0,0.0,0.0,0.0,0.0,0.0,0.0,0.0,0.0,0.0,0.0,0.0,0.0,0.0,0.0,0.0,0.0,0.0,0.0,0.0,0.0,0.0,0.0,0.0,0.0,0.0,0.0,0.0,0.0,0.0,0.0,0.0,0.0,0.0,0.0,0.0,0.0,0.0,0.0,0.0,0.0,0.0,0.0,0.0,0.0,0.0,0.0,0.0,0.0,0.0,0.0,0.0,0.0,0.0,0.0,0.0,0.0,0.0,0.0,0.0,0.0,0.0,0.0,0.0,0.0,0.0,0.0,0.0,0.0,0.0,0.0,0.0,0.0,0.0,0.0,0.0,0.0,0.0,0.0,0.0,0.0,0.0,0.0,0.0,0.0,0.0,0.0,0.0,0.0,0.0,0.0,0.0,0.0,0.0,0.0,0.0,0.0,0.0,0.0,0.0,0.0,0.0,0.0,0.0,0.0,0.0,0.0,0.0,0.0,0.0,0.0,0.0,0.0,0.0,0.0,0.0,0.0,0.0,0.0,0.0,0.0,0.0,0.0,0.0,0.0,0.0,0.0,0.0,0.0,0.0,0.0,0.0,0.0,0.0,0.0,0.0,0.0,0.0,0.0,0.0,0.0,0.0,0.0,0.0,0.0,0.0,0.0,0.0,0.0,0.0,0.0,0.0,0.0,0.0,0.0,0.0,-1.2311,0.0,0.0,0.0,0.0,0.0,0.0,0.0,0.0,0.0,0.0,0.0,0.0,0.0,0.0,0.0,0.0,0.0,0.0,0.0,0.0,0.0,0.0,0.0,0.0,0.0,0.0,0.0,0.0,0.0,0.0,0.0,0.0,0.0,0.0,0.0,0.0,0.0,0.0,0.0,0.0,0.0,0.0,0.0,0.0,0.0,0.0,0.0,0.0,0.0,0.0,0.0,0.0,0.0,0.0,0.0,0.0,0.0,0.0,0.0,0.0,0.0,0.0,0.0,0.0,0.0,0.0,0.0,0.0,0.0,0.0,0.0,0.0,0.0,0.0,0.0,0.0,0.0,0.0,0.0,0.0,0.0,0.0,0.0,0.0,0.0,0.0,0.0,0.0,0.0,0.0,0.0,0.0,0.0,0.0,0.0,0.0,0.0,0.0,0.0,0.0,0.0,0.0,0.0,0.0,0.0,0.0,0.0,0.0,0.0,0.0,-1.0419,-1.2716,-1.2798,-1.2797,-1.2792,0.0,0.0,0.0,0.0,0.0,0.0,0.0,0.0,0.0,0.0,0.0,0.0,0.0,0.0,0.0,0.0,0.0,0.0,0.0,0.0,0.0,0.0,0.0,0.0,0.0,0.0,0.0,0.0,0.0,0.0,0.0,0.0,0.0,0.0,0.0,0.0,0.0,0.0,0.0,0.0,0.0,0.0,0.0,0.0,0.0,0.0,0.0,0.0,0.0,0.0,0.0,0.0,0.0,0.0,0.0,0.0,0.0,0.0,0.0,0.0,0.0,0.0,0.0,0.0,0.0,0.0,0.0,0.0,0.0,0.0,0.0,0.0,0.0,0.0,0.0,0.0,0.0,0.0,0.0,0.0,0.0,0.0,0.0,0.0,0.0,0.0,0.0,0.0,0.0,0.0,0.0,0.0,0.0,0.0,0.0,0.0,0.0,0.0,0.0,0.0,0.0,0.0,0.0,0.0,0.0,0.0,0.0,0.0,0.0,0.0,0.0,0.0,-1.3292,-1.3345,-1.3293,0.0,0.0,0.0,0.0,0.0,0.0,0.0,0.0,0.0,0.0,0.0,0.0,0.0,0.0,0.0,0.0,0.0,0.0,0.0,0.0,0.0,0.0,0.0,0.0,0.0,0.0,0.0,0.0,0.0,0.0,0.0,0.0,0.0,0.0,0.0,0.0,0.0,0.0,0.0,0.0,0.0,0.0,0.0,0.0,0.0,0.0,0.0,0.0,0.0,0.0,0.0,0.0,0.0,0.0,0.0,0.0,0.0,0.0,0.0,0.0,0.0,0.0,0.0,0.0,0.0,0.0,0.0,0.0,0.0,0.0,0.0,0.0,0.0,0.0,0.0,0.0,0.0,0.0,0.0,0.0,0.0,0.0,0.0,0.0,0.0,0.0,0.0,0.0,0.0,0.0,0.0,0.0,0.0,0.0,0.0,0.0,0.0,0.0,0.0,0.0,0.0,0.0,0.0,0.0,0.0,0.0,0.0,0.0,0.0,0.0,-1.0546,-1.3121,-1.3756,0.0,-1.3581,0.0,0.0,0.0,0.0,0.0,0.0,0.0,0.0,0.0,0.0,0.0,0.0,0.0,0.0,0.0,0.0,0.0,0.0,0.0,0.0,0.0,0.0,0.0,0.0,0.0,0.0,0.0,0.0,0.0,0.0,0.0,0.0,0.0,0.0,0.0,0.0,0.0,0.0,0.0,0.0,0.0,0.0,0.0,0.0,0.0,0.0,0.0,0.0,0.0,0.0,0.0,0.0,0.0,0.0,0.0,0.0,0.0,0.0,0.0,0.0,0.0,0.0,0.0,0.0,0.0,0.0,0.0,0.0,0.0,0.0,0.0,0.0,0.0,0.0,0.0,0.0,0.0,0.0,0.0,0.0,0.0,0.0,0.0,0.0,0.0,0.0,0.0,0.0,0.0,0.0,0.0,0.0,0.0,0.0,0.0,0.0,0.0,0.0,0.0,0.0,0.0,0.0,0.0,0.0,0.0,0.0,0.0,0.0,0.0,0.0,-0.9005,-1.1617,-1.2579,-1.2939,0.0,0.0,0.0,0.0,0.0,0.0,0.0,0.0,0.0,0.0,0.0,0.0,0.0,0.0,0.0,0.0,0.0,0.0,0.0,0.0,0.0,0.0,0.0,0.0,0.0,0.0,0.0,0.0,0.0,0.0,0.0,0.0,0.0,0.0,0.0,0.0,0.0,0.0,0.0,0.0,0.0,0.0,0.0,0.0,0.0,0.0,0.0,0.0,0.0,0.0,0.0,0.0,0.0,0.0,0.0,0.0,0.0,0.0,0.0,0.0,0.0,0.0,0.0,0.0,0.0,0.0,0.0,0.0,0.0,0.0,0.0,0.0,0.0,0.0,0.0,0.0,0.0,0.0,0.0,0.0,0.0,0.0,0.0,0.0,0.0,0.0,0.0,0.0,0.0,0.0,0.0,0.0,0.0,0.0,0.0,0.0,0.0,0.0,0.0,0.0,0.0,0.0,0.0,0.0,0.0,0.0,0.0,0.0,0.0,0.0,-0.7076,-0.7731,-0.9564,-1.083,-1.1621,-1.1809,0.0,0.0,0.0,0.0,0.0,0.0,0.0,0.0,0.0,0.0,0.0,0.0,0.0,0.0,0.0,0.0,0.0,0.0,0.0,0.0,0.0,0.0,0.0,0.0,0.0,0.0,0.0,0.0,0.0,0.0,0.0,0.0,0.0,0.0,0.0,0.0,0.0,0.0,0.0,0.0,0.0,0.0,0.0,0.0,0.0,0.0,0.0,0.0,0.0,0.0,0.0,0.0,0.0,0.0,0.0,0.0,0.0,0.0,0.0,0.0,0.0,0.0,0.0,0.0,0.0,0.0,0.0,0.0,0.0,0.0,0.0,0.0,0.0,0.0,0.0,0.0,0.0,0.0,0.0,0.0,0.0,0.0,0.0,0.0,0.0,0.0,0.0,0.0,0.0,0.0,0.0,0.0,0.0,0.0,0.0,0.0,0.0,0.0,0.0,0.0,0.0,0.0,0.0,0.0,0.0,0.0,0.0,0.0,-0.9338,-0.7876,-0.7118,-0.7336,-0.8772,-0.9957,0.0,0.0,0.0,0.0,0.0,0.0,0.0,0.0,0.0,0.0,0.0,0.0,0.0,0.0,0.0,0.0,0.0,0.0,0.0,0.0,0.0,0.0,0.0,0.0,0.0,0.0,0.0,0.0,0.0,0.0,0.0,0.0,0.0,0.0,0.0,0.0,0.0,0.0,0.0,0.0,0.0,0.0,0.0,0.0,0.0,0.0,0.0,0.0,0.0,0.0,0.0,0.0,0.0,0.0,0.0,0.0,0.0,0.0,0.0,0.0,0.0,0.0,0.0,0.0,0.0,0.0,0.0,0.0,0.0,0.0,0.0,0.0,0.0,0.0,0.0,0.0,0.0,0.0,0.0,0.0,0.0,0.0,0.0,0.0,0.0,0.0,0.0,0.0,0.0,0.0,0.0,0.0,0.0,0.0,0.0,0.0,0.0,0.0,0.0,0.0,0.0,0.0,0.0,0.0,0.0,0.0,0.0,0.0,0.0,-0.7941,-0.7365,-0.7105,-0.7173,-0.7687,-0.8487,0.0,0.0,0.0,0.0,0.0,0.0,0.0,0.0,0.0,0.0,0.0,0.0,0.0,0.0,0.0,0.0,0.0,0.0,0.0,0.0,0.0,0.0,0.0,0.0,0.0,0.0,0.0,0.0,0.0,0.0,0.0,0.0,0.0,0.0,0.0,0.0,0.0,0.0,0.0,0.0,0.0,0.0,0.0,0.0,0.0,0.0,0.0,0.0,0.0,0.0,0.0,0.0,0.0,0.0,0.0,0.0,0.0,0.0,0.0,0.0,0.0,0.0,0.0,0.0,0.0,0.0,0.0,0.0,0.0,0.0,0.0,0.0,0.0,0.0,0.0,0.0,0.0,0.0,0.0,0.0,0.0,0.0,0.0,0.0,0.0,0.0,0.0,0.0,0.0,0.0,0.0,0.0,0.0,0.0,0.0,0.0,0.0,0.0,0.0,0.0,0.0,0.0,0.0,0.0,0.0,0.0,0.0,0.0,0.0,-0.7136,0.0,-0.7139,-0.7139,-0.7112,-0.7457,0.0,0.0,0.0,0.0,0.0,0.0,0.0,0.0,0.0,0.0,0.0,0.0,0.0,0.0,0.0,0.0,0.0,0.0,0.0,0.0,0.0,0.0,0.0,0.0,0.0,0.0,0.0,0.0,0.0,0.0,0.0,0.0,0.0,0.0,0.0,0.0,0.0,0.0,0.0,0.0,0.0,0.0,0.0,0.0,0.0,0.0,0.0,0.0,0.0,0.0,0.0,0.0,0.0,0.0,0.0,0.0,0.0,0.0,0.0,0.0,0.0,0.0,0.0,0.0,0.0,0.0,0.0,0.0,0.0,0.0,0.0,0.0,0.0,0.0,0.0,0.0,0.0,0.0,0.0,0.0,0.0,0.0,0.0,0.0,0.0,0.0,0.0,0.0,0.0,0.0,0.0,0.0,0.0,0.0,0.0,0.0,0.0,0.0,0.0,0.0,0.0,0.0,0.0,0.0,0.0,0.0,0.0,0.0,-0.7139,-0.7139,-0.7139,-0.7139,-0.7139,-0.7139,-0.7139,0.0,0.0,0.0,0.0,0.0,0.0,0.0,0.0,0.0,0.0,0.0,0.0,0.0,0.0,0.0,0.0,0.0,0.0,0.0,0.0,0.0,0.0,0.0,0.0,0.0,0.0,0.0,0.0,0.0,0.0,0.0,0.0,0.0,0.0,0.0,0.0,0.0,0.0,0.0,0.0,0.0,0.0,0.0,0.0,0.0,0.0,0.0,0.0,0.0,0.0,0.0,0.0,0.0,0.0,0.0,0.0,0.0,0.0,0.0,0.0,0.0,0.0,0.0,0.0,0.0,0.0,0.0,0.0,0.0,0.0,0.0,0.0,0.0,0.0,0.0,0.0,0.0,0.0,0.0,0.0,0.0,0.0,0.0,0.0,0.0,0.0,0.0,0.0,0.0,0.0,0.0,0.0,0.0,0.0,0.0,0.0,0.0,0.0,0.0,0.0,0.0,0.0,0.0,0.0,0.0,0.0,0.0,0.0,0.0,-0.7139,-0.7139,-0.7139,-0.7139,-0.7139,-0.7139,0.0,0.0,0.0,0.0,0.0,0.0,0.0,0.0,0.0,0.0,0.0,0.0,0.0,0.0,0.0,0.0,0.0,0.0,0.0,0.0,0.0,0.0,0.0,0.0,0.0,0.0,0.0,0.0,0.0,0.0,0.0,0.0,0.0,0.0,0.0,0.0,0.0,0.0,0.0,0.0,0.0,0.0,0.0,0.0,0.0,0.0,0.0,0.0,0.0,0.0,0.0,0.0,0.0,0.0,0.0,0.0,0.0,0.0,0.0,0.0,0.0,0.0,0.0,0.0,0.0,0.0,0.0,0.0,0.0,0.0,0.0,0.0,0.0,0.0,0.0,0.0,0.0,0.0,0.0,0.0,0.0,0.0,0.0,0.0,0.0,0.0,0.0,0.0,0.0,0.0,0.0,0.0,0.0,0.0,0.0,0.0,0.0,0.0,0.0,0.0,0.0,0.0,0.0,0.0,0.0,0.0,0.0,0.0,0.0,-0.7139,-0.7139,-0.7139,-0.7139,-0.7139,-0.7139,-0.7139,0.0,0.0,0.0,0.0,0.0,0.0,0.0,0.0,0.0,0.0,0.0,0.0,0.0,0.0,0.0,0.0,0.0,0.0,0.0,0.0,0.0,0.0,0.0,0.0,0.0,0.0,0.0,0.0,0.0,0.0,0.0,0.0,0.0,0.0,0.0,0.0,0.0,0.0,0.0,0.0,0.0,0.0,0.0,0.0,0.0,0.0,0.0,0.0,0.0,0.0,0.0,0.0,0.0,0.0,0.0,0.0,0.0,0.0,0.0,0.0,0.0,0.0,0.0,0.0,0.0,0.0,0.0,0.0,0.0,0.0,0.0,0.0,0.0,0.0,0.0,0.0,0.0,0.0,0.0,0.0,0.0,0.0,0.0,0.0,0.0,0.0,0.0,0.0,0.0,0.0,0.0,0.0,0.0,0.0,0.0,0.0,0.0,0.0,0.0,0.0,0.0,0.0,0.0,0.0,0.0,0.0,0.0,0.0,-0.7139,-0.7139,-0.7139,-0.7139,-0.7139,-0.7139,0.0,0.0,0.0,0.0,0.0,0.0,0.0,0.0,0.0,0.0,0.0,0.0,0.0,0.0,0.0,0.0,0.0,0.0,0.0,0.0,0.0,0.0,0.0,0.0,0.0,0.0,0.0,0.0,0.0,0.0,0.0,0.0,0.0,0.0,0.0,0.0,0.0,0.0,0.0,0.0,0.0,0.0,0.0,0.0,0.0,0.0,0.0,0.0,0.0,0.0,0.0,0.0,0.0,0.0,0.0,0.0,0.0,0.0,0.0,0.0,0.0,0.0,0.0,0.0,0.0,0.0,0.0,0.0,0.0,0.0,0.0,0.0,0.0,0.0,0.0,0.0,0.0,0.0,0.0,0.0,0.0,0.0,0.0,0.0,0.0,0.0,0.0,0.0,0.0,0.0,0.0,0.0,0.0,0.0,0.0,0.0,0.0,0.0,0.0,0.0,0.0,0.0,0.0,0.0,0.0,0.0,0.0,0.0,0.0,-0.7139,-0.7139,-0.7139,-0.7139,-0.7139,-0.7139,0.0,0.0,0.0,0.0,0.0,0.0,0.0,0.0,0.0,0.0,0.0,0.0,0.0,0.0,0.0,0.0,0.0,0.0,0.0,0.0,0.0,0.0,0.0,0.0,0.0,0.0,0.0,0.0,0.0,0.0,0.0,0.0,0.0,0.0,0.0,0.0,0.0,0.0,0.0,0.0,0.0,0.0,0.0,0.0,0.0,0.0,0.0,0.0,0.0,0.0,0.0,0.0,0.0,0.0,0.0,0.0,0.0,0.0,0.0,0.0,0.0,0.0,0.0,0.0,0.0,0.0,0.0,0.0,0.0,0.0,0.0,0.0,0.0,0.0,0.0,0.0,0.0,0.0,0.0,0.0,0.0,0.0,0.0,0.0,0.0,0.0,0.0,0.0,0.0,0.0,0.0,0.0,0.0,0.0,0.0,0.0,0.0,0.0,0.0,0.0,0.0,0.0,0.0,0.0,0.0,0.0,0.0,0.0,-0.7139,-0.7139,-0.7139,-0.7139,-0.7139,-0.7139,-0.7139,0.0,0.0,0.0,0.0,0.0,0.0,0.0,0.0,0.0,0.0,0.0,0.0,0.0,0.0,0.0,0.0,0.0,0.0,0.0,0.0,0.0,0.0,0.0,0.0,0.0,0.0,0.0,0.0,0.0,0.0,0.0,0.0,0.0,0.0,0.0,0.0,0.0,0.0,0.0,0.0,0.0,0.0,0.0,0.0,0.0,0.0,0.0,0.0,0.0,0.0,0.0,0.0,0.0,0.0,0.0,0.0,0.0,0.0,0.0,0.0,0.0,0.0,0.0,0.0,0.0,0.0,0.0,0.0,0.0,0.0,0.0,0.0,0.0,0.0,0.0,0.0,0.0,0.0,0.0,0.0,0.0,0.0,0.0,0.0,0.0,0.0,0.0,0.0,0.0,0.0,0.0,0.0,0.0,0.0,0.0,0.0,0.0,0.0,0.0,0.0,0.0,0.0,0.0,0.0,0.0,0.0,0.0,0.0,-0.7139,-0.7139,-0.7139,-0.7149,-0.7163,-0.7149,-0.7139,0.0,0.0,0.0,0.0,0.0,0.0,0.0,0.0,0.0,0.0,0.0,0.0,0.0,0.0,0.0,0.0,0.0,0.0,0.0,0.0,0.0,0.0,0.0,0.0,0.0,0.0,0.0,0.0,0.0,0.0,0.0,0.0,0.0,0.0,0.0,0.0,0.0,0.0,0.0,0.0,0.0,0.0,0.0,0.0,0.0,0.0,0.0,0.0,0.0,0.0,0.0,0.0,0.0,0.0,0.0,0.0,0.0,0.0,0.0,0.0,0.0,0.0,0.0,0.0,0.0,0.0,0.0,0.0,0.0,0.0,0.0,0.0,0.0,0.0,0.0,0.0,0.0,0.0,0.0,0.0,0.0,0.0,0.0,0.0,0.0,0.0,0.0,0.0,0.0,0.0,0.0,0.0,0.0,0.0,0.0,0.0,0.0,0.0,0.0,0.0,0.0,0.0,0.0,0.0,0.0,0.0,0.0,0.0,-0.7139,-0.7139,-0.7139,-0.72,-0.7504,-0.7204,-0.7139,0.0,0.0,0.0,0.0,0.0,0.0,0.0,0.0,0.0,0.0,0.0,0.0,0.0,0.0,0.0,0.0,0.0,0.0,0.0,0.0,0.0,0.0,0.0,0.0,0.0,0.0,0.0,0.0,0.0,0.0,0.0,0.0,0.0,0.0,0.0,0.0,0.0,0.0,0.0,0.0,0.0,0.0,0.0,0.0,0.0,0.0,0.0,0.0,-1.7519,0.0,0.0,0.0,0.0,0.0,0.0,0.0,0.0,0.0,0.0,0.0,0.0,0.0,0.0,0.0,0.0,0.0,0.0,0.0,0.0,0.0,0.0,0.0,0.0,0.0,0.0,0.0,0.0,0.0,0.0,0.0,0.0,0.0,0.0,0.0,0.0,0.0,0.0,0.0,0.0,0.0,0.0,0.0,0.0,0.0,0.0,0.0,0.0,0.0,0.0,0.0,0.0,0.0,0.0,0.0,0.0,0.0,0.0,0.0,-0.7084,-0.7151,-0.7155,-0.7228,-0.7561,-0.7583,-0.7454,0.0,0.0,0.0,0.0,0.0,0.0,0.0,0.0,0.0,0.0,0.0,0.0,0.0,0.0,0.0,0.0,0.0,0.0,0.0,0.0,0.0,0.0,0.0,0.0,0.0,0.0,0.0,0.0,0.0,0.0,0.0,0.0,0.0,0.0,0.0,0.0,0.0,0.0,0.0,0.0,0.0,0.0,0.0,0.0,0.0,0.0,0.0,0.0,0.0,0.0,0.0,0.0,0.0,0.0,0.0,0.0,0.0,0.0,0.0,0.0,0.0,0.0,0.0,0.0,0.0,0.0,0.0,0.0,0.0,0.0,0.0,0.0,0.0,0.0,0.0,0.0,0.0,0.0,0.0,0.0,0.0,0.0,0.0,0.0,0.0,0.0,0.0,0.0,0.0,0.0,0.0,0.0,0.0,0.0,0.0,0.0,0.0,0.0,0.0,0.0,0.0,0.0,0.0,0.0,0.0,0.0,0.0,-0.7108,-0.7088,-0.7116,-0.7217,-0.7382,-0.7624,-0.7925,-0.7935,-0.7662,0.0,0.0,0.0,0.0,0.0,0.0,0.0,0.0,0.0,0.0,0.0,0.0,0.0,0.0,0.0,0.0,0.0,0.0,0.0,0.0,0.0,0.0,0.0,0.0,0.0,0.0,0.0,0.0,0.0,0.0,0.0,0.0,0.0,0.0,0.0,0.0,0.0,0.0,-1.8712,-1.8394,0.0,0.0,0.0,0.0,0.0,0.0,0.0,0.0,-1.8247,0.0,0.0,0.0,0.0,0.0,0.0,0.0,0.0,0.0,0.0,0.0,0.0,0.0,0.0,0.0,0.0,0.0,0.0,0.0,0.0,0.0,0.0,0.0,0.0,0.0,0.0,0.0,0.0,0.0,0.0,0.0,0.0,0.0,0.0,0.0,0.0,0.0,0.0,0.0,0.0,0.0,0.0,0.0,0.0,0.0,0.0,0.0,0.0,0.0,0.0,0.0,0.0,0.0,0.0,0.0,0.0,-0.7336,-0.7175,-0.7153,-0.7082,-0.7563,-0.7921,-0.7966,-0.7973,-0.7938,-0.7943,0.0,0.0,0.0,0.0,0.0,0.0,0.0,0.0,0.0,0.0,0.0,0.0,0.0,0.0,0.0,0.0,0.0,0.0,0.0,0.0,0.0,0.0,0.0,0.0,0.0,0.0,0.0,0.0,0.0,0.0,0.0,0.0,0.0,0.0,0.0,0.0,0.0,0.0,0.0,-1.7435,-1.7886,0.0,0.0,0.0,0.0,0.0,0.0,0.0,0.0,-2.1155,0.0,0.0,0.0,0.0,0.0,0.0,0.0,0.0,0.0,0.0,0.0,0.0,0.0,0.0,0.0,0.0,0.0,0.0,0.0,0.0,0.0,0.0,0.0,0.0,0.0,0.0,0.0,0.0,0.0,0.0,0.0,0.0,0.0,0.0,0.0,0.0,0.0,0.0,0.0,0.0,0.0,0.0,0.0,0.0,0.0,0.0,0.0,0.0,0.0,0.0,0.0,0.0,0.0,0.0,0.0,-0.738,-0.7426,-0.7344,-0.741,-0.7808,-0.798,-0.8024,-0.8031,-0.7963,0.0,0.0,0.0,0.0,0.0,0.0,0.0,0.0,0.0,0.0,0.0,0.0,0.0,0.0,0.0,0.0,0.0,0.0,0.0,0.0,0.0,0.0,0.0,0.0,0.0,0.0,0.0,0.0,0.0,0.0,0.0,0.0,0.0,0.0,0.0,0.0,0.0,0.0,0.0,0.0,-1.7281,-1.7735,-1.8485,0.0,0.0,0.0,0.0,0.0,0.0,-1.9583,-2.003,0.0,0.0,0.0,0.0,0.0,0.0,0.0,0.0,0.0,0.0,0.0,0.0,0.0,0.0,0.0,0.0,0.0,0.0,0.0,0.0,0.0,0.0,0.0,0.0,0.0,0.0,0.0,0.0,0.0,0.0,0.0,0.0,0.0,0.0,0.0,0.0,0.0,0.0,0.0,0.0,0.0,0.0,0.0,0.0,0.0,0.0,0.0,0.0,0.0,0.0,0.0,0.0,0.0,0.0,0.0,-0.7424,-0.7594,-0.7644,-0.7654,-0.7858,-0.8017,-0.8035,-0.8038,-0.8038,0.0,0.0,0.0,0.0,0.0,0.0,0.0,0.0,0.0,0.0,0.0,0.0,0.0,0.0,0.0,0.0,0.0,0.0,0.0,0.0,0.0,0.0,0.0,0.0,0.0,0.0,0.0,0.0,0.0,0.0,0.0,0.0,0.0,0.0,0.0,0.0,0.0,0.0,0.0,0.0,0.0,-1.7589,-1.7589,-1.7589,0.0,0.0,0.0,0.0,-1.7589,-1.766,0.0,0.0,0.0,0.0,0.0,0.0,0.0,0.0,0.0,0.0,0.0,0.0,0.0,0.0,0.0,0.0,0.0,0.0,0.0,0.0,0.0,0.0,0.0,0.0,0.0,0.0,0.0,0.0,0.0,0.0,0.0,0.0,0.0,0.0,0.0,0.0,0.0,0.0,0.0,0.0,0.0,0.0,0.0,0.0,0.0,0.0,0.0,0.0,0.0,0.0,0.0,0.0,0.0,0.0,0.0,0.0,-0.7584,-0.7848,-0.7997,-0.7915,-0.8011,-0.8024,-0.8038,-0.8038,-0.8038,0.0,0.0,0.0,0.0,0.0,0.0,0.0,0.0,0.0,0.0,0.0,0.0,0.0,0.0,0.0,0.0,0.0,0.0,0.0,0.0,0.0,0.0,0.0,0.0,0.0,0.0,0.0,0.0,0.0,0.0,0.0,0.0,0.0,0.0,0.0,0.0,0.0,0.0,0.0,0.0,0.0,-1.7589,-1.7589,-1.7589,-1.7589,0.0,0.0,-1.7589,-1.7589,-1.7651,0.0,0.0,0.0,0.0,0.0,0.0,0.0,0.0,0.0,0.0,0.0,0.0,0.0,0.0,0.0,0.0,0.0,0.0,0.0,0.0,0.0,0.0,0.0,0.0,0.0,0.0,0.0,0.0,0.0,0.0,0.0,0.0,0.0,0.0,0.0,0.0,0.0,0.0,0.0,0.0,0.0,0.0,0.0,0.0,0.0,0.0,0.0,0.0,0.0,0.0,0.0,0.0,0.0,0.0,0.0,-0.7638,-0.7723,-0.7933,-0.8038,-0.8038,-0.8038,-0.8038,-0.8038,-0.8038,-0.8038,0.0,0.0,0.0,0.0,0.0,0.0,0.0,0.0,0.0,0.0,0.0,0.0,0.0,0.0,0.0,0.0,0.0,0.0,0.0,0.0,0.0,0.0,0.0,0.0,0.0,0.0,0.0,0.0,0.0,0.0,0.0,0.0,0.0,0.0,0.0,0.0,0.0,0.0,0.0,0.0,0.0,0.0,-1.7589,-1.7589,0.0,0.0,0.0,-1.7589,-1.7589,0.0,0.0,0.0,0.0,0.0,0.0,0.0,0.0,0.0,0.0,0.0,0.0,0.0,0.0,0.0,0.0,0.0,0.0,0.0,0.0,0.0,0.0,0.0,0.0,0.0,0.0,0.0,0.0,0.0,0.0,0.0,0.0,0.0,0.0,0.0,0.0,0.0,0.0,0.0,0.0,0.0,0.0,0.0,0.0,0.0,0.0,0.0,0.0,0.0,0.0,0.0,0.0,0.0,0.0,0.0,0.0,0.0,-0.7811,-0.7963,-0.8038,-0.8038,-0.8038,-0.8038,-0.8038,-0.8038,0.0,0.0,0.0,0.0,0.0,0.0,0.0,0.0,0.0,0.0,0.0,0.0,0.0,0.0,0.0,0.0,0.0,0.0,0.0,0.0,0.0,0.0,0.0,0.0,0.0,0.0,0.0,-1.5825,0.0,0.0,0.0,0.0,0.0,0.0,0.0,0.0,0.0,0.0,0.0,0.0,0.0,0.0,-1.7589,-1.7589,-1.7589,-1.7589,0.0,0.0,-1.7589,-1.7589,-1.7589,-1.7589,0.0,0.0,0.0,0.0,0.0,0.0,0.0,0.0,0.0,0.0,0.0,0.0,0.0,0.0,0.0,0.0,0.0,0.0,0.0,0.0,0.0,0.0,0.0,0.0,0.0,0.0,0.0,0.0,0.0,0.0,0.0,0.0,0.0,0.0,0.0,0.0,0.0,0.0,0.0,0.0,0.0,0.0,0.0,0.0,0.0,0.0,0.0,0.0,0.0,0.0,0.0,0.0,0.0,0.0,0.0,-0.7811,-0.7963,-0.8038,-0.8038,-0.8038,-0.8038,-0.8038,-0.8038,-0.8038,0.0,0.0,0.0,0.0,0.0,0.0,0.0,0.0,0.0,0.0,0.0,0.0,0.0,0.0,0.0,0.0,0.0,0.0,0.0,0.0,0.0,0.0,0.0,0.0,0.0,0.0,0.0,0.0,0.0,0.0,0.0,0.0,0.0,0.0,0.0,0.0,0.0,0.0,0.0,0.0,0.0,-1.7589,-1.7589,-1.7589,-1.7589,0.0,0.0,-1.7589,-1.7589,-1.7589,-1.7589,-1.7589,0.0,0.0,0.0,0.0,0.0,0.0,0.0,0.0,0.0,0.0,0.0,0.0,0.0,0.0,0.0,0.0,0.0,0.0,0.0,0.0,0.0,0.0,0.0,0.0,0.0,0.0,0.0,0.0,0.0,0.0,0.0,0.0,0.0,0.0,0.0,0.0,0.0,0.0,0.0,0.0,0.0,0.0,0.0,0.0,0.0,0.0,0.0,0.0,0.0,0.0,0.0,0.0,0.0,-0.7804,-0.795,-0.8007,-0.8038,-0.8038,-0.8038,-0.8038,-0.8038,-0.8038,-0.8038,0.0,0.0,0.0,0.0,0.0,0.0,0.0,0.0,0.0,0.0,0.0,0.0,0.0,0.0,0.0,0.0,0.0,0.0,0.0,0.0,0.0,0.0,0.0,0.0,0.0,0.0,0.0,0.0,-1.6533,-1.6887,-1.7054,0.0,0.0,0.0,0.0,0.0,0.0,0.0,0.0,0.0,0.0,-1.7589,-1.7589,-1.7589,0.0,0.0,-1.7589,-1.7589,-1.7589,-1.7589,-1.7589,-1.7589,-1.7996,0.0,0.0,0.0,0.0,0.0,0.0,0.0,0.0,0.0,0.0,0.0,0.0,0.0,0.0,0.0,0.0,0.0,0.0,0.0,0.0,0.0,0.0,0.0,0.0,0.0,0.0,0.0,0.0,0.0,0.0,0.0,0.0,0.0,0.0,0.0,0.0,0.0,0.0,0.0,0.0,0.0,0.0,0.0,0.0,0.0,0.0,0.0,0.0,0.0,0.0,0.0,0.0,-0.7889,-0.8038,-0.8038,-0.8038,-0.8038,-0.8038,-0.8038,-0.8038,-0.8038,-0.8038,0.0,0.0,0.0,0.0,0.0,0.0,0.0,0.0,0.0,0.0,0.0,0.0,0.0,0.0,0.0,0.0,0.0,0.0,0.0,0.0,0.0,0.0,0.0,0.0,0.0,0.0,0.0,0.0,-1.68,-1.7268,-1.7549,0.0,0.0,0.0,0.0,0.0,0.0,0.0,0.0,0.0,0.0,-1.7589,-1.7589,-1.7589,-1.7589,-1.7589,-1.7589,-1.7589,-1.7589,-1.7589,-1.7589,-1.7589,0.0,0.0,0.0,0.0,0.0,0.0,0.0,0.0,0.0,0.0,0.0,0.0,0.0,0.0,0.0,0.0,0.0,0.0,0.0,0.0,0.0,0.0,0.0,0.0,0.0,0.0,0.0,0.0,0.0,0.0,-0.7054,0.0,0.0,0.0,0.0,0.0,0.0,0.0,0.0,0.0,0.0,0.0,0.0,0.0,0.0,0.0,0.0,0.0,0.0,0.0,0.0,0.0,0.0,-0.7889,-0.8035,-0.8038,-0.8038,-0.8038,-0.8038,-0.8038,-0.8038,-0.8038,-0.8038,-0.8038,0.0,0.0,0.0,0.0,0.0,0.0,0.0,0.0,0.0,0.0,0.0,0.0,0.0,0.0,0.0,0.0,0.0,0.0,0.0,0.0,0.0,0.0,0.0,0.0,0.0,0.0,-1.6306,-1.68,-1.7268,0.0,0.0,0.0,0.0,0.0,0.0,0.0,0.0,0.0,0.0,-1.7589,-1.7589,-1.7589,-1.7589,-1.7589,-1.7589,-1.7589,-1.7589,-1.7589,-1.7589,-1.7589,0.0,0.0,0.0,0.0,0.0,0.0,0.0,0.0,0.0,0.0,0.0,0.0,0.0,0.0,0.0,0.0,0.0,0.0,0.0,0.0,0.0,0.0,0.0,0.0,0.0,0.0,0.0,-0.6937,-0.6927,0.0,0.0,0.0,0.0,0.0,0.0,0.0,0.0,0.0,0.0,0.0,-0.3739,-0.6045,0.0,0.0,0.0,0.0,0.0,0.0,0.0,0.0,0.0,0.0,0.0,0.0,-0.7987,-0.8035,-0.8038,-0.8038,-0.8038,-0.8038,-0.8038,-0.8038,-0.8038,-0.8038,-0.8038,0.0,0.0,0.0,0.0,0.0,0.0,0.0,0.0,0.0,0.0,0.0,0.0,0.0,0.0,0.0,0.0,0.0,0.0,0.0,0.0,0.0,0.0,0.0,0.0,0.0,-1.6927,0.0,0.0,0.0,0.0,0.0,0.0,0.0,0.0,0.0,0.0,0.0,-1.7589,-1.7589,-1.7589,-1.7589,-1.7589,-1.7589,-1.7589,0.0,0.0,0.0,0.0,0.0,0.0,0.0,0.0,0.0,0.0,0.0,0.0,0.0,0.0,-2.0228,-2.2579,-2.2047,-2.1611,-2.2854,0.0,0.0,0.0,0.0,0.0,0.0,0.0,0.0,0.0,0.0,0.0,0.0,0.0,0.0,0.0,0.0,-0.7091,0.0,0.0,0.0,0.0,0.0,0.0,0.0,0.0,-0.38,-0.233,-0.2424,-0.3885,-0.4309,0.0,-0.5976,-0.6771,0.0,0.0,0.0,0.0,0.0,0.0,0.0,0.0,-0.8038,-0.8038,-0.8038,-0.7962,-0.8012,-0.8016,-0.8042,-0.8191,-0.8194,-0.8194,-0.8191,-0.8194,-0.8194,0.0,0.0,0.0,0.0,0.0,0.0,0.0,0.0,0.0,0.0,0.0,0.0,0.0,0.0,0.0,0.0,0.0,0.0,0.0,0.0,0.0,0.0,0.0,-1.7268,0.0,0.0,0.0,0.0,0.0,0.0,0.0,0.0,0.0,-1.7589,-1.7589,-1.7589,-1.7589,-1.7589,-1.7589,-1.7589,0.0,0.0,0.0,0.0,0.0,0.0,0.0,-1.7622,-1.7849,-1.7862,-1.7782,-1.7883,-1.7896,-1.8211,-1.9049,0.0,0.0,-1.9968,-2.0146,-2.0327,-2.1057,-2.1065,-2.0971,-2.1099,-2.0718,-2.0446,0.0,0.0,0.0,0.0,0.0,0.0,0.0,0.0,-0.2506,-0.4665,0.0,-0.6671,0.0,0.0,0.0,0.0,0.0,-0.6995,0.0,0.0,-0.2479,-0.0191,0.0,0.0,-0.1352,-0.3739,-0.5811,-0.5755,-0.4121,-0.653,0.0,0.0,0.0,0.0,0.0,0.0,-0.8041,-0.8048,-0.8048,-0.8019,-0.7955,-0.8064,-0.8127,-0.8469,-0.8476,-0.8476,-0.8479,-0.8476,-0.8479,-0.8476,-0.8347,0.0,0.0,0.0,0.0,0.0,0.0,0.0,0.0,0.0,0.0,0.0,0.0,0.0,0.0,0.0,0.0,0.0,0.0,0.0,0.0,-1.7333,0.0,0.0,0.0,0.0,0.0,0.0,0.0,0.0,0.0,0.0,-1.7589,-1.7589,-1.7589,-1.7589,0.0,0.0,0.0,0.0,-1.7589,-1.7609,-1.7595,-1.7602,-1.7615,-1.7622,-1.7842,-1.8387,0.0,0.0,-1.8437,-1.849,-1.847,-1.849,-1.8464,-1.8303,-1.7835,-1.8772,-1.971,-2.0185,-1.9851,-1.968,-1.9849,-1.9099,-1.8347,0.0,0.0,0.0,0.0,0.0,0.0,0.0,-0.0094,-0.0749,-0.1403,-0.2056,-0.2056,0.0,0.0,0.0,0.0,0.0,0.0,-0.5529,-0.7009,-0.5726,-0.3313,0.0,0.0,-0.2392,-0.6537,-0.3501,-0.3706,-0.6559,-0.5698,-0.6082,-0.7905,0.0,0.0,0.0,0.0,-0.8092,-0.8197,-0.8204,-0.8166,-0.7991,-0.8209,-0.8442,-0.8804,-0.8591,-0.8587,-0.8482,-0.8482,-0.8482,-0.8482,-0.8445,0.0,0.0,0.0,0.0,0.0,0.0,0.0,0.0,0.0,0.0,0.0,0.0,0.0,0.0,0.0,0.0,0.0,0.0,0.0,-1.7556,-1.7526,-1.7488,0.0,0.0,0.0,0.0,0.0,0.0,0.0,0.0,0.0,-1.7589,-1.7589,-1.7589,0.0,0.0,-1.7589,-1.7589,-1.7589,-1.7662,-1.7883,0.0,0.0,0.0,-1.7985,-1.8263,-1.8474,-1.837,-1.839,-1.847,-1.8497,-1.8497,-1.8497,-1.8497,-1.843,-1.8277,-1.8551,-1.8884,-1.9129,-1.9,-1.8898,-1.8871,-1.857,-1.8384,0.0,0.0,0.0,0.0,0.0,0.0,0.0,0.0,0.0,0.0,0.0,0.0,-0.1617,-0.4282,-0.4313,0.0,0.0,0.0,-0.4977,-0.4399,-0.6448,-0.5877,-0.318,-0.2105,-0.3224,-0.6263,-0.4225,-0.483,-0.7989,-0.6334,-0.6453,-0.8153,0.0,0.0,-0.813,-0.8133,-0.8204,-0.8347,-0.8353,-0.8317,-0.8239,-0.8521,-0.8773,-0.8887,-0.8773,-0.8662,-0.8665,-0.8662,-0.8662,-0.8662,-0.8604,-0.8464,0.0,0.0,0.0,0.0,0.0,0.0,0.0,0.0,0.0,0.0,0.0,-1.6446,0.0,0.0,0.0,0.0,-1.7257,-1.7617,-1.7569,-1.7589,0.0,0.0,0.0,0.0,0.0,0.0,0.0,-1.71,-1.7357,-1.7589,-1.7589,-1.7589,-1.7589,-1.7589,-1.7589,-1.7629,-1.7749,0.0,-1.7876,-1.8183,-1.8094,-1.7921,-1.7962,-1.849,-1.8786,-1.8651,-1.8764,-1.8838,-1.8838,-1.8844,-1.8844,-1.8838,-1.8838,-1.8838,-1.8838,-1.8838,-1.8751,-1.8668,-1.8615,-1.8524,-1.8631,-1.8664,-1.8698,0.0,0.0,0.0,0.0,0.0,0.0,0.0,0.0,0.0,0.0,0.0,0.0,0.0,0.0,0.0,0.0,-0.6533,-0.7147,-0.4951,-0.0808,-0.5768,-0.8022,-0.7915,-0.5441,-0.4318,-0.442,-0.6851,-0.7985,-0.8002,-0.7975,-0.8143,-0.8504,-0.8153,-0.8147,-0.8282,-0.8289,-0.8357,-0.8499,-0.8499,-0.8464,-0.8504,-0.8756,-0.8937,-0.8933,-0.8937,-0.8933,-0.8937,-0.8937,-0.8937,-0.8933,-0.8804,-0.873,-0.8838,0.0,0.0,0.0,0.0,0.0,0.0,0.0,0.0,0.0,0.0,0.0,0.0,0.0,0.0,0.0,-1.7304,0.0,-1.7589,-1.7589,0.0,0.0,0.0,-1.7589,-1.7589,-1.7589,-1.7589,-1.7589,0.0,0.0,-1.7589,0.0,-1.7595,-1.7615,-1.7615,-1.7722,-1.8009,-1.8063,-1.819,-1.8484,-1.8524,-1.8531,-1.8604,-1.8993,-1.9207,-1.9051,-1.9192,-1.9325,-1.9332,-1.9339,-1.9359,-1.9332,-1.9359,-1.9352,-1.9359,-1.9325,-1.9205,-1.8677,-1.8584,-1.8657,-1.8898,-1.8958,-1.9032,0.0,0.0,0.0,0.0,0.0,0.0,0.0,0.0,0.0,0.0,0.0,0.0,0.0,0.0,0.0,-0.0601,-0.1706,-0.1814,-0.3433,-0.6075,-0.7406,-0.8016,-0.7999,-0.7372,-0.7059,-0.7054,-0.7666,-0.8022,-0.8014,-0.8221,-0.8395,-0.832,-0.8394,-0.8394,-0.8428,-0.8431,-0.8506,-0.8652,-0.8655,-0.873,-0.8766,-0.892,-0.8937,-0.8937,-0.8937,-0.8937,-0.8937,-0.8937,-0.8937,-0.8937,-0.8903,-0.8886,-0.8886,-0.8838,0.0,0.0,0.0,0.0,0.0,0.0,0.0,0.0,0.0,-1.5888,-1.7041,0.0,-1.7364,0.0,-1.7542,-1.7589,-1.7589,-1.7589,0.0,0.0,-1.7589,-1.7589,-1.7589,-1.7589,-1.7589,-1.7589,-1.7589,-1.7589,-1.7589,-1.7589,-1.7675,-1.7903,-1.7936,-1.7969,-1.8043,-1.825,-1.8484,-1.8751,-1.8692,-1.8651,-1.9092,-1.9287,-1.9422,-1.9252,-1.9325,-1.9366,-1.9366,-1.9366,-1.9366,-1.9366,-1.9366,-1.9366,-1.9366,-1.9366,-1.9325,-1.9192,-1.9165,-1.9178,-1.9245,-1.9259,-1.9285,0.0,0.0,0.0,0.0,0.0,0.0,0.0,0.0,0.0,0.0,0.0,0.0,0.0,0.0,0.0,0.0,0.0,-0.2424,-0.5159,-0.7922,-0.8006,-0.7995,-0.7985,-0.8143,-0.8167,-0.8163,-0.8018,-0.7978,-0.804,-0.847,-0.865,-0.8581,-0.8584,-0.8618,-0.8682,-0.8618,-0.8659,-0.8808,-0.8815,-0.8852,-0.8933,-0.8937,-0.8937,-0.8937,-0.8937,-0.8937,-0.8937,-0.8937,-0.8937,-0.8937,-0.8937,-0.8937,-0.8937,-0.8937,-0.9607,0.0,0.0,0.0,0.0,0.0,0.0,0.0,0.0,0.0,0.0,0.0,-1.7589,0.0,-1.7589,-1.7589,-1.7589,-1.7589,-1.7589,-1.7589,-1.7589,-1.7589,-1.7589,-1.7589,-1.7589,-1.7589,-1.7589,-1.7589,-1.7589,-1.7828,-1.7976,-1.8029,-1.8277,-1.8437,-1.845,-1.8591,-1.8791,-1.9065,-1.899,-1.9037,-1.9345,-1.9366,-1.9366,-1.9366,-1.9366,-1.9366,-1.9366,-1.9366,-1.9366,-1.9366,-1.9366,-1.9366,-1.9366,-1.9366,-1.9399,-1.9526,-1.9559,-1.9512,-1.9392,-1.9366,-1.9392,0.0,0.0,0.0,0.0,0.0,0.0,0.0,0.0,0.0,0.0,0.0,0.0,0.0,0.0,0.0,-0.0404,-0.1313,-0.5871,-0.8032,-0.8042,-0.8012,-0.8009,-0.8029,-0.8241,-0.8296,-0.8306,-0.8105,-0.8059,-0.8078,-0.8622,-0.8917,-0.8848,-0.8743,-0.8808,-0.8927,-0.8808,-0.8804,-0.8933,-0.8937,-0.8937,-0.8937,-0.8937,-0.8937,-0.8937,-0.8937,-0.8937,-0.8937,-0.8937,-0.8937,-0.8937,-0.8937,-0.8937,-0.8937,-0.8937,-0.9047,0.0,-1.1494,0.0,0.0,0.0,0.0,0.0,0.0,0.0,0.0,-1.7589,-1.7589,-1.7589,-1.7589,-1.7589,-1.7589,-1.7589,-1.7589,-1.7589,-1.7589,-1.7589,-1.7589,-1.7589,-1.7589,-1.7589,-1.7589,-1.7595,-1.7775,-1.8238,-1.8421,-1.8217,-1.8584,-1.8878,-1.8965,-1.8978,-1.9072,-1.9339,-1.9366,-1.9339,-1.9359,-1.9366,-1.9366,-1.9366,-1.9366,-1.9366,-1.9366,-1.9366,-1.9379,-1.9419,-1.9446,-1.9452,-1.9466,-1.9492,-1.9579,-1.9813,-1.986,-1.9786,-1.9586,-1.9533,-1.9676,0.0,0.0,0.0,0.0,0.0,0.0,0.0,0.0,0.0,0.0,0.0,0.0,0.0,0.0,0.0,-0.2423,-0.6483,-0.751,-0.8069,-0.8258,-0.8248,-0.8306,-0.8401,-0.8431,-0.8442,-0.8445,-0.8469,-0.8434,-0.8444,-0.8776,-0.8858,-0.8893,-0.8893,-0.891,-0.8937,0.0,0.0,0.0,-0.8937,-0.8937,-0.8937,-0.8937,-0.8937,-0.8937,-0.8937,0.0,-0.8937,-0.8937,-0.8937,-0.8937,-0.8937,0.0,0.0,0.0,0.0,0.0,0.0,0.0,0.0,0.0,0.0,0.0,-1.56,-1.628,-1.7477,-1.7589,-1.7589,-1.7589,-1.7589,-1.7589,-1.7589,-1.7589,-1.7589,-1.7589,-1.7589,-1.7589,-1.7589,-1.7589,-1.7589,-1.7589,-1.7589,-1.7802,-1.8279,-1.8502,-1.8605,-1.8657,-1.8858,-1.9018,-1.9245,-1.9265,-1.9299,-1.9359,-1.9366,-1.9366,-1.9366,-1.9366,-1.9366,-1.9366,-1.9366,-1.9372,-1.9379,-1.9386,-1.9472,-1.9666,-1.972,-1.98,-2.0007,-2.0074,-2.0054,-2.014,-2.0154,-2.0134,-2.008,-2.0074,-2.0434,0.0,0.0,0.0,0.0,0.0,0.0,0.0,0.0,0.0,0.0,0.0,0.0,0.0,0.0,-0.3099,-0.5822,-0.8446,-0.8326,-0.835,-0.8401,-0.8391,-0.8418,-0.8486,-0.856,-0.8594,-0.8598,-0.8672,-0.8639,-0.8709,-0.8825,-0.8866,-0.8937,-0.8937,-0.8937,-0.8937,-0.8937,-0.8937,-0.8937,-0.8937,-0.8937,-0.8937,-0.8937,-0.8937,-0.8937,0.0,0.0,0.0,0.0,0.0,0.0,0.0,0.0,0.0,0.0,0.0,-1.026,-0.9453,-0.9548,-1.0992,-1.1105,-1.1755,-1.3156,-1.4556,-1.6062,-1.7477,-1.7589,-1.7589,-1.7589,-1.7589,-1.7589,-1.7589,-1.7589,-1.7589,-1.7589,-1.7589,-1.7589,-1.7589,-1.7589,-1.7589,-1.7602,-1.7603,-1.7876,-1.8408,-1.8824,-1.8952,-1.8885,-1.9058,-1.9192,-1.9332,-1.9366,-1.9366,-1.9366,-1.9366,-1.9366,-1.9366,-1.9366,-1.9372,-1.9379,-1.9486,-1.9573,-1.9579,-1.97,-1.9846,-1.9987,-2.0013,-2.0074,-2.0053,-2.0106,-2.0281,-2.0279,-2.0448,-2.0514,-2.0608,-2.0441,-2.0759,0.0,0.0,0.0,0.0,0.0,0.0,0.0,0.0,0.0,0.0,0.0,0.0,0.0,0.0,-0.6263,-0.8899,-0.8871,-0.8741,-0.8635,-0.8659,-0.853,-0.8537,-0.8567,-0.8693,-0.875,-0.8757,-0.8879,-0.8937,-0.8937,-0.8937,-0.8937,-0.8937,-0.8937,-0.8937,-0.8937,-0.8937,-0.8937,-0.8937,-0.8937,-0.8937,-0.8937,-0.8937,-0.8937,-0.8937,-0.8937,-0.8937,-0.8937,-0.8937,-0.8937,-0.8937,-0.8937,-0.8937,-0.8937,-0.8937,-0.8937,-0.8937,-0.8937,-0.8937,-0.8937,-0.8937,-0.9702,-1.1324,-1.3911,-1.6062,-1.747,-1.7589,-1.7589,-1.7589,-1.7589,-1.7589,-1.7589,-1.7589,-1.7589,-1.7589,-1.7589,-1.7589,-1.7589,-1.7589,-1.7602,-1.7563,-1.7642,-1.7859,-1.8598,-1.9118,-1.9339,-1.9146,-1.9205,-1.9366,-1.9366,-1.9366,-1.9366,-1.9366,-1.9366,-1.9366,-1.9372,-1.9562,-1.9555,-1.9479,-1.9693,-1.9867,-1.9913,-2.0074,-2.0227,-2.0301,-2.0314,-2.0212,-2.011,-2.0292,-2.059,-2.0922,-2.1245,-2.1569,-2.2221,-2.1814,-2.1926,0.0,0.0,0.0,0.0,0.0,0.0,0.0,0.0,0.0,0.0,0.0,0.0,0.0,0.0,-0.6189,-0.8892,-0.885,-0.8734,-0.8683,0.0,-0.8679,-0.875,-0.8872,-0.8896,-0.8906,-0.8906,-0.8927,-0.8937,-0.8937,-0.8937,-0.8937,-0.8937,-0.8937,-0.8937,-0.8937,-0.8937,-0.8937,-0.8937,-0.8937,-0.8937,-0.8937,-0.8937,-0.8937,-0.8937,-0.8937,-0.8937,-0.8937,-0.8937,-0.8937,-0.8937,-0.8937,-0.8937,-0.8937,-0.8937,-0.8937,-0.8937,-0.8937,-0.8937,-0.8937,-0.8937,-1.0135,-1.2729,-1.4449,-1.6062,-1.7477,-1.7589,-1.7589,-1.7589,-1.7589,-1.7589,-1.7589,-1.7589,-1.7589,-1.7589,-1.7589,-1.7589,-1.7589,-1.7602,-1.7583,-1.7574,-1.7646,-1.8038,-1.9061,-1.9378,-1.9428,-1.9367,-1.9325,-1.9366,-1.9366,-1.9366,-1.9366,-1.9366,-1.9366,-1.9366,-1.9535,-1.9854,-1.9963,-1.9746,-1.998,-2.0174,-2.0174,-2.0247,-2.0374,-2.0575,-2.0615,-2.0695,-2.0889,-2.0982,-2.1575,-2.2608,-2.3412,-2.444,-2.6244,-2.5723,-2.5206,0.0,0.0,0.0,0.0,0.0,0.0,0.0,0.0,0.0,0.0,0.0,0.0,0.0,0.0,-0.6224,-0.8903,-0.8858,-0.8855,-0.8781,-0.8828,-0.8835,-0.8872,-0.8933,-0.8937,-0.8937,-0.8937,-0.8937,-0.8937,-0.8937,-0.8937,-0.8937,-0.8937,-0.8937,-0.8937,-0.8937,-0.8937,-0.8937,-0.8937,-0.8937,-0.8937,-0.8937,-0.8937,-0.8937,-0.8937,-0.8937,-0.8937,-0.8937,-0.8937,-0.8937,-0.8937,-0.8937,-0.8937,-0.8937,-0.8937,-0.8937,-0.8937,-0.8937,-0.8937,-0.8937,-0.9588,-1.1,-1.3156,-1.4556,-1.6062,-1.7477,-1.7589,-1.7589,-1.7589,-1.7589,-1.7589,-1.7589,-1.7589,-1.7589,-1.7589,-1.7589,-1.7589,-1.7609,-1.7742,-1.7775,-1.7685,-1.7851,-1.8381,-1.9285,-1.9448,-1.9456,-1.9352,-1.9366,-1.9366,-1.9366,-1.9372,-1.9372,-1.9366,-1.9366,-1.9569,-1.9827,-1.9976,-2.0132,-2.0,-2.0281,-2.0454,-2.0488,-2.0575,-2.0748,-2.0875,-2.0909,-2.0962,-2.1089,-2.1121,-2.2138,-2.4362,-2.5601,-2.6533,-2.7013,-2.7073,-2.7323,0.0,0.0,0.0,0.0,0.0,0.0,0.0,0.0,0.0,0.0,0.0,-0.1312,-0.1317,-0.0657,-0.6234,-0.8866,-0.894,-0.8937,-0.8937,-0.8937,-0.8937,-0.8937,-0.8937,-0.8937,-0.8937,-0.8937,-0.8937,-0.8937,-0.8937,-0.8937,-0.8937,-0.8937,-0.8937,-0.8937,-0.8937,-0.8937,-0.8937,-0.8937,-0.8937,-0.8937,-0.8937,-0.8937,-0.8937,-0.8937,-0.8937,-0.8937,-0.8937,-0.8937,-0.8937,-0.8937,-0.8937,-0.8937,-0.8937,-0.8937,-0.8937,-0.8937,-0.8937,-0.9047,-0.9485,-1.0457,-1.186,-1.3696,-1.477,-1.6062,-1.7371,-1.7589,-1.7589,-1.7589,-1.7589,-1.7589,-1.7589,-1.7589,-1.7589,-1.7589,-1.7589,-1.7589,-1.7609,-1.7862,-1.7968,-1.7823,-1.823,-1.8678,-1.9179,-1.9361,-1.9352,-1.9359,-1.9366,-1.9366,-1.9366,-1.9412,-1.9466,-1.9466,-1.9459,-1.9539,-1.9918,-2.0226,-2.0368,-2.0314,-2.0575,-2.0735,-2.0802,-2.0969,-2.1076,-2.1082,-2.1089,-2.1056,-2.1022,-2.1146,-2.2267,-2.4749,-2.6844,-2.8085,-2.7735,-2.8298,-2.892,0.0,0.0,0.0,0.0,0.0,0.0,0.0,0.0,0.0,0.0,0.0,-0.5706,-0.4916,-0.1224,-0.6366,-0.8964,-0.894,-0.8937,-0.8937,-0.8937,-0.8937,-0.8937,-0.8937,-0.8937,-0.8937,-0.8937,-0.8937,-0.8937,-0.8937,-0.8937,-0.8937,-0.8937,-0.8937,-0.8937,-0.8937,-0.8937,-0.8937,-0.8937,-0.8937,-0.8937,-0.8937,-0.8937,-0.8937,-0.8937,-0.8937,-0.8937,-0.8937,-0.8937,-0.8937,-0.8937,-0.8937,-0.8937,-0.8937,-0.8937,-0.8937,-0.8937,-0.8937,-0.9478,-1.0672,-1.0996,-1.229,-1.4877,-1.5204,-1.6068,-1.7477,-1.7589,-1.7589,-1.7589,-1.7589,-1.7589,-1.7589,-1.7589,-1.7589,-1.7589,-1.7609,-1.7589,-1.7649,-1.7862,-1.8143,-1.8417,-1.85,-1.8764,-1.9252,-1.9461,-1.9366,-1.9366,-1.9366,-1.9386,-1.9432,-1.9586,-1.974,-1.9753,-1.9628,-1.9516,-1.9761,-2.0409,-2.0774,-2.0628,-2.0855,-2.0995,-2.1036,-2.1049,-2.1102,-2.1102,-2.1102,-2.1042,-2.1027,-2.1135,-2.2174,-2.5237,-2.8032,-3.0391,-3.037,-3.0392,-3.0518,0.0,0.0,0.0,0.0,0.0,0.0,0.0,0.0,-0.3814,-0.3358,-0.1005,-0.6272,-0.751,-0.547,-0.7838,-0.896,-0.8937,-0.8937,-0.8937,-0.8937,-0.8937,-0.8937,-0.8937,-0.8937,-0.8937,-0.8937,-0.8937,-0.8937,-0.8937,-0.8937,-0.8937,-0.8937,-0.8937,-0.8937,-0.8937,-0.8937,-0.8937,-0.8937,-0.8937,-0.8937,-0.8937,-0.8937,-0.8937,-0.8937,-0.8937,-0.8937,-0.8937,-0.8937,-0.8937,-0.8937,-0.8937,-0.8937,-0.8937,-0.8937,-0.8937,-0.8937,-0.8937,-0.9154,-0.9805,-1.0566,-1.1973,-1.4014,-1.499,-1.6062,-1.7477,-1.7589,-1.7589,-1.7589,-1.7589,-1.7589,-1.7589,-1.7589,-1.7589,-1.7609,-1.7742,-1.7856,-1.7862,-1.8277,-1.8512,-1.8506,-1.8871,-1.9083,-1.9332,-1.9366,-1.9366,-1.9366,-1.9372,-1.9432,-1.9586,-1.9726,-1.9867,-2.0167,-2.0059,-2.0037,-2.0321,-2.0753,-2.1004,-2.0902,-2.1015,-2.1102,-2.1102,-2.1102,-2.1102,-2.1102,-2.1102,-2.1082,-2.1135,-2.3076,-2.4788,-2.7331,-2.8764,-3.0927,-3.0918,-3.0898,-3.0967,0.0,0.0,0.0,0.0,0.0,0.0,0.0,0.0,-0.6293,-0.6398,-0.3129,-0.7051,-0.886,-0.8964,-0.8964,-0.8954,-0.894,-0.8937,-0.8937,-0.8937,-0.8937,-0.8937,-0.8937,-0.8937,-0.8937,-0.8937,-0.8937,-0.8937,-0.8937,-0.8937,-0.8937,-0.8937,-0.8937,-0.8937,-0.8937,-0.8937,-0.8937,-0.8937,-0.8937,-0.8937,-0.8937,-0.8937,-0.8937,-0.8937,-0.8937,-0.8937,-0.8937,-0.8937,-0.8937,-0.8937,-0.8937,-0.8937,-0.8937,-0.8937,-0.8937,-0.8937,-0.8937,-0.9047,-0.9482,-1.0891,-1.2295,-1.3804,-1.5204,-1.6393,-1.7364,-1.7589,-1.7622,-1.7596,-1.7709,-1.7822,-1.7589,-1.7655,-1.7709,-1.7729,-1.7983,-1.8163,-1.8203,-1.8637,-1.8778,-1.8571,-1.9024,-1.9366,-1.9366,-1.9366,-1.9366,-1.9366,-1.9446,-1.9539,-1.978,-1.9927,-2.014,-2.0476,-2.0465,-2.0591,-2.0983,-2.1044,-2.1041,-2.1141,-2.1102,-2.1102,-2.1102,-2.1102,-2.1102,-2.1102,-2.1102,-2.1108,-2.1169,-2.3447,-2.638,-2.9397,-3.0638,-3.0567,-3.0782,-3.0957,-3.1182,0.0,0.0,0.0,0.0,0.0,0.0,0.0,-0.1009,-0.6293,-0.8562,-0.8091,-0.8641,-0.896,-0.894,-0.894,-0.894,-0.8937,-0.8937,-0.8937,-0.8937,-0.8937,-0.8937,-0.8937,-0.8937,-0.8937,-0.8937,-0.8937,-0.8937,-0.8937,-0.8937,-0.8937,-0.8937,-0.8937,-0.8937,-0.8937,-0.8937,-0.8937,-0.8937,-0.8937,-0.8937,-0.8937,-0.8937,-0.8937,-0.8937,-0.8937,-0.8937,-0.8937,-0.8937,-0.8937,-0.8937,-0.8937,-0.8937,-0.8937,-0.8937,-0.8937,-0.8937,-0.8937,-0.9485,-1.0785,-1.2082,-1.3588,-1.5097,-1.6287,-1.747,-1.7582,-1.7615,-1.7616,-1.7626,-1.8138,-1.8285,-1.7842,-1.7896,-1.8023,-1.8043,-1.8297,-1.845,-1.8477,-1.8758,-1.8778,-1.8724,-1.9063,-1.9352,-1.9366,-1.9366,-1.9386,-1.9439,-1.9606,-1.9806,-1.9927,-2.0294,-2.0555,-2.0681,-2.0855,-2.1002,-2.1058,-2.1132,-2.1036,-2.1096,-2.1102,-2.1102,-2.1102,-2.1102,-2.1102,-2.1229,-2.1475,-2.143,-2.1313,-2.2741,-2.572,-2.8161,-2.9508,-2.9879,-3.1064,-3.1328,-3.1562,0.0,0.0,0.0,0.0,0.0,0.0,-0.213,-0.5616,-0.5944,-0.7179,-0.8755,-0.8964,-0.8947,-0.8937,-0.8937,-0.8937,-0.8937,-0.8937,-0.8937,-0.8937,-0.8937,-0.8937,-0.8937,-0.8937,-0.8937,-0.8937,-0.8937,-0.8937,-0.8937,-0.8937,-0.8937,-0.8937,-0.8937,-0.8937,-0.8937,-0.8937,-0.8937,-0.8937,-0.8937,-0.8937,-0.8937,-0.8937,-0.8937,-0.8937,-0.8937,-0.8937,-0.8937,-0.8937,-0.8937,-0.8937,-0.8937,-0.8937,-0.8937,-0.8937,-0.8937,-0.8937,-0.8937,-0.9154,-0.9805,-1.1105,-1.2507,-1.3911,-1.5417,-1.6723,-1.7397,-1.7643,-1.758,-1.7813,-1.8502,-1.8878,-1.8721,-1.8516,-1.8337,-1.837,-1.8591,-1.8764,-1.8818,-1.9025,-1.9205,-1.9097,-1.9305,-1.9359,-1.9366,-1.9366,-1.9439,-1.9613,-1.974,-1.996,-2.0294,-2.0561,-2.0742,-2.0909,-2.1036,-2.1082,-2.1128,-2.1029,-2.1102,-2.1102,-2.1102,-2.1102,-2.1102,-2.1229,-2.1355,-2.2334,-2.2459,-2.231,-2.2457,-2.5487,-2.7904,-2.9453,-3.049,-3.0534,-3.1531,-3.1787,-3.2021,0.0,0.0,0.0,0.0,0.0,-0.2129,-0.5162,-0.8568,-0.6839,-0.7051,-0.8742,-0.8947,-0.8937,-0.8937,-0.8937,-0.8937,-0.8937,-0.8937,-0.8937,-0.8937,-0.8937,-0.8937,-0.8937,-0.8937,-0.8937,-0.8937,-0.8937,-0.8937,-0.8937,-0.8937,-0.8937,-0.8937,-0.8937,-0.8937,-0.8937,-0.8937,-0.8937,-0.8937,-0.8937,-0.8937,-0.8937,-0.8937,-0.8937,-0.8937,-0.8937,-0.8937,-0.8937,-0.8937,-0.8937,-0.8937,-0.8937,-0.8937,-0.8937,-0.8937,-0.8937,-0.8937,-0.8937,-0.9154,-0.9699,-1.1,-1.2512,-1.3922,-1.5398,-1.675,-1.7643,-1.7652,-1.7714,-1.809,-1.8746,-1.9417,-1.9275,-1.903,-1.8738,-1.8698,-1.8891,-1.9058,-1.9078,-1.9245,-1.9345,-1.9345,-1.9352,-1.9366,-1.9386,-1.9589,-1.9717,-1.9793,-1.994,-2.0274,-2.0575,-2.0775,-2.0869,-2.1062,-2.1089,-2.1102,-2.1069,-2.1082,-2.1102,-2.1102,-2.1102,-2.1102,-2.1229,-2.1481,-2.209,-2.3318,-2.3739,-2.358,-2.5108,-2.822,-3.0268,-3.191,-3.1861,-3.1556,-3.2031,-3.2246,-3.2432,0.0,0.0,0.0,0.0,-0.1457,-0.5956,-0.8683,-0.8788,-0.8759,-0.8631,-0.8967,-0.8947,-0.8937,-0.8937,-0.8937,-0.8937,-0.8937,-0.8937,-0.8937,-0.8937,-0.8937,-0.8937,-0.8937,-0.8937,-0.8937,-0.8937,-0.8937,-0.8937,-0.8937,-0.8937,-0.8937,-0.8937,-0.8937,-0.8937,-0.8937,-0.8937,-0.8937,-0.8937,-0.8937,-0.8937,-0.8937,-0.8937,-0.8937,-0.8937,-0.8937,-0.8937,-0.8937,-0.8937,-0.8937,-0.8937,-0.8937,-0.8937,-0.8937,-0.8937,-0.8937,-0.8937,-0.8937,-0.9588,-1.0891,-1.2295,-1.3701,-1.5166,-1.6877,-1.7793,-1.7961,-1.7825,-1.7837,-1.8394,-1.9018,-1.9414,-1.9381,-1.9285,-1.9185,-1.9005,-1.9165,-1.9305,-1.9332,-1.9352,-1.9366,-1.9366,-1.9366,-1.9366,-1.9549,-1.9841,-2.003,-1.992,-2.0254,-2.0608,-2.0728,-2.0915,-2.1069,-2.1102,-2.1102,-2.1102,-2.1102,-2.1102,-2.1102,-2.1102,-2.1102,-2.1102,-2.1475,-2.1846,-2.3076,-2.4186,-2.623,-2.6219,-2.6796,-2.9712,-3.1175,-3.247,-3.227,-3.2246,-3.2471,-3.2676,-3.2754,0.0,0.0,0.0,-0.2466,-0.6067,-0.8224,-0.89,-0.8876,-0.8866,-0.8964,-0.895,-0.894,-0.8937,-0.8937,-0.8937,-0.8937,-0.8937,-0.8937,-0.8937,-0.8937,-0.8937,-0.8937,-0.8937,-0.8937,-0.8937,-0.8937,-0.8937,-0.8937,-0.8937,-0.8937,-0.8937,-0.8937,-0.8937,-0.8937,-0.8937,-0.8937,-0.8937,-0.8937,-0.8937,-0.8937,-0.8937,-0.8937,-0.8937,-0.8937,-0.8937,-0.8937,-0.8937,-0.8937,-0.8937,-0.8937,-0.8937,-0.8937,-0.8937,-0.8937,-0.8937,-0.8937,-0.8937,-0.9592,-1.1,-1.2516,-1.4099,-1.5652,-1.7213,-1.8034,-1.8343,-1.8243,-1.8314,-1.8564,-1.8977,-1.9414,-1.9468,-1.9366,-1.9319,-1.9245,-1.9312,-1.9366,-1.9366,-1.9366,-1.9366,-1.9366,-1.9366,-1.9366,-1.9542,-1.9888,-2.0159,-2.0107,-2.0448,-2.0735,-2.0935,-2.1029,-2.1102,-2.1102,-2.1102,-2.1102,-2.1102,-2.1495,-2.188,-2.1635,-2.1509,-2.1475,-2.1846,-2.2827,-2.3931,-2.5684,-2.7626,-2.888,-2.9481,-3.0679,-3.2187,-3.2887,-3.274,-3.2907,-3.2978,-3.3066,-3.3096,0.0,0.0,-0.2354,-0.539,-0.8798,-0.89,-0.8883,-0.8863,-0.8964,-0.895,-0.894,-0.8937,-0.8937,-0.8937,-0.8937,-0.8937,-0.8937,-0.8937,-0.8937,-0.8937,-0.8937,-0.8937,-0.8937,-0.8937,-0.8937,-0.8937,-0.8937,-0.8937,-0.8937,-0.8937,-0.8937,-0.8937,-0.8937,-0.8937,-0.8937,-0.8937,-0.8937,-0.8937,-0.8937,-0.8937,-0.8937,-0.8937,-0.8937,-0.8937,-0.8937,-0.8937,-0.8937,-0.8937,-0.8937,-0.8937,-0.8937,-0.8937,-0.8937,-0.8937,-0.9386,-1.0386,-1.0606,-1.1253,-1.2521,-1.3779,-1.4967,-1.6466,-1.7676,-1.8333,-1.8664,-1.8678,-1.8823,-1.8869,-1.9232,-1.9366,-1.9366,-1.9366,-1.9366,-1.9366,-1.9366,-1.9366,-1.9366,-1.9366,-1.9366,-1.9366,-1.9366,-1.9535,-1.9683,-1.9912,-2.0214,-2.0361,-2.0648,-2.0869,-2.1062,-2.1096,-2.1102,-2.1102,-2.1102,-2.1102,-2.1235,-2.1754,-2.2537,-2.2419,-2.2167,-2.2125,-2.2341,-2.3799,-2.5269,-2.7547,-2.9608,-3.0231,-3.0892,-3.1915,-3.3178,-3.3243,-3.3152,-3.3135,-3.3252,-3.3291,-3.331,0.0,0.0,-0.6405,-0.8568,-0.8907,-0.888,-0.8863,-0.8856,-0.895,-0.894,-0.8937,-0.8937,-0.8937,-0.8937,-0.8937,-0.8937,-0.8937,-0.8937,-0.8937,-0.8937,-0.8937,-0.8937,-0.8937,-0.8937,-0.8937,-0.8937,-0.8937,-0.8937,-0.8937,-0.8937,-0.8937,-0.8937,-0.8937,-0.8937,-0.8937,-0.8937,-0.8937,-0.8937,-0.8937,-0.8937,-0.8937,-0.8937,-0.8937,-0.8937,-0.8937,-0.8937,-0.8937,-0.8937,-0.8937,-0.8937,-0.8937,-0.8937,-0.8937,-0.8937,-1.0056,-1.2631,-1.3312,-1.4039,-1.5093,-1.5315,-1.6381,-1.7753,-1.8466,-1.8938,-1.8971,-1.9158,-1.9299,-1.9312,-1.9345,-1.9366,-1.9366,-1.9366,-1.9366,-1.9366,-1.9366,-1.9366,-1.9366,-1.9366,-1.9366,-1.9366,-1.9386,-1.9603,-2.0003,-2.0154,-2.0443,-2.0601,-2.0875,-2.1042,-2.1089,-2.1102,-2.1102,-2.1102,-2.1102,-2.1102,-2.1229,-2.2649,-2.3716,-2.5485,-2.4469,-2.3589,-2.3683,-2.5138,-2.6729,-2.9131,-3.0629,-3.1262,-3.1939,-3.2794,-3.3322,-3.3299,-3.3301,-3.3398,-3.3418,-3.3418,-3.3418,0.0,0.0,-0.6408,-0.8907,-0.8897,-0.8873,-0.8964,-0.8947,-0.8944,-0.8937,-0.8937,-0.8937,-0.8937,-0.8937,-0.8937,-0.8937,-0.8937,-0.8937,-0.8937,-0.8937,-0.8937,-0.8937,-0.8937,-0.8937,-0.8937,-0.8937,-0.8937,-0.8937,-0.8937,-0.8937,-0.8937,-0.8937,-0.8937,-0.8937,-0.8937,-0.8937,-0.8937,-0.8937,-0.8937,-0.8937,-0.8937,-0.8937,-0.8937,-0.8937,-0.8937,-0.8937,-0.8937,-0.8937,-0.8937,-0.8937,-0.8937,-0.8937,-0.8937,-0.8937,-1.0268,-1.2969,-1.5189,-1.6132,-1.5837,-1.5878,-1.6759,-1.8407,-1.8831,-1.9018,-1.9239,-1.9312,-1.9366,-1.9366,-1.9366,-1.9366,-1.9366,-1.9366,-1.9366,-1.9366,-1.9366,-1.9366,-1.9366,-1.9366,-1.9366,-1.9366,-1.9366,-1.965,-2.0064,-2.0602,-2.0774,-2.0792,-2.0915,-2.1102,-2.1102,-2.1102,-2.1102,-2.1102,-2.1102,-2.1102,-2.1614,-2.3282,-2.5225,-2.8182,-2.7586,-2.5391,-2.5741,-2.6712,-2.8426,-3.0294,-3.0691,-3.1363,-3.2031,-3.2858,-3.3066,-3.3398,-3.3408,-3.3418,-3.3418,-3.3418,-3.3418,0.0,0.0,-0.5046,-0.7756,-0.8778,-0.8863,-0.895,-0.894,-0.8937,-0.8937,-0.8937,-0.8937,-0.8937,-0.8937,-0.8937,-0.8937,-0.8937,-0.8937,-0.8937,-0.8937,-0.8937,-0.8937,-0.8937,-0.8937,-0.8937,-0.8937,-0.8937,-0.8937,-0.8937,-0.8937,-0.8937,-0.8937,-0.8937,-0.8937,-0.8937,-0.8937,-0.8937,-0.8937,-0.8937,-0.8937,-0.8937,-0.8937,-0.8937,-0.8937,-0.8937,-0.8937,-0.8937,-0.8937,-0.8937,-0.8937,-0.8937,-0.8937,-0.8937,-0.891,-1.0229,-1.3133,-1.6024,-1.7341,-1.6951,-1.6911,-1.7531,-1.8605,-1.9018,-1.9185,-1.9319,-1.9366,-1.9366,-1.9366,-1.9366,-1.9366,-1.9366,-1.9366,-1.9366,-1.9366,-1.9366,-1.9366,-1.9366,-1.9366,-1.9366,-1.9366,-1.9386,-1.9663,-2.0172,-2.0691,-2.0978,-2.0906,-2.0995,-2.1082,-2.1102,-2.1102,-2.1102,-2.1102,-2.1288,-2.1366,-2.2213,-2.3855,-2.6377,-2.9252,-2.972,-2.7615,-2.7563,-2.817,-2.9403,-3.0654,-3.0955,-3.1415,-3.2118,-3.2754,-3.3193,-3.3408,-3.3418,-3.3418,-3.3418,-3.3418,-3.3418,0.0,-0.1121,-0.3466,-0.6161,-0.8657,-0.896,-0.894,-0.8937,-0.8937,-0.8937,-0.8937,-0.8937,-0.8937,-0.8937,-0.8937,-0.8937,-0.8937,-0.8937,-0.8937,-0.8937,-0.8937,-0.8937,-0.8937,-0.8937,-0.8937,-0.8937,-0.8937,-0.8937,-0.8937,-0.8937,-0.8937,-0.8937,-0.8937,-0.8937,-0.8937,-0.8937,-0.8937,-0.8937,-0.8937,-0.8937,-0.8937,-0.8937,-0.8937,-0.8937,-0.8937,-0.8937,-0.8937,-0.8937,-0.9047,-0.9158,-0.9154,-0.9147,-0.9034,-0.8862,-1.0728,-1.3645,-1.6414,-1.7868,-1.8008,-1.8163,-1.8546,-1.8978,-1.9232,-1.9366,-1.9366,-1.9366,-1.9366,-1.9366,-1.9366,-1.9366,-1.9366,-1.9366,-1.9366,-1.9366,-1.9366,-1.9366,-1.9366,-1.9366,-1.9366,-1.9366,-1.9366,-1.9646,-2.016,-2.0693,-2.1128,-2.1034,-2.1076,-2.1082,-2.1102,-2.1102,-2.1102,-2.1102,-2.1373,-2.1721,-2.2929,-2.4511,-2.7323,-2.9996,-3.0453,-2.9658,-2.9039,-2.953,-3.0274,-3.0966,-3.1088,-3.1465,-3.2075,-3.2656,-3.3144,-3.3418,-3.3418,-3.3418,-3.3418,-3.3418,-3.3418,-0.269,-0.686,-0.515,-0.6154,-0.8638,-0.895,-0.8937,-0.8937,-0.8937,-0.8937,-0.8937,-0.8937,-0.8937,-0.8937,-0.8937,-0.8937,-0.8937,-0.8937,-0.8937,-0.8937,-0.8937,-0.8937,-0.8937,-0.8937,-0.8937,-0.8937,-0.8937,-0.8937,-0.8937,-0.8937,-0.8937,-0.8937,-0.8937,-0.8937,-0.8937,-0.8937,-0.8937,-0.8937,-0.8937,-0.8937,-0.8937,-0.8937,-0.8937,-0.8937,-0.8937,-0.8937,-0.8937,-0.8937,-0.9482,-1.0351,-1.0566,-1.0218,-0.941,-0.9015,-1.1333,-1.5383,-1.7367,-1.8319,-1.8397,-1.8644,-1.8958,-1.9205,-1.9305,-1.9366,-1.9366,-1.9366,-1.9366,-1.9366,-1.9366,-1.9366,-1.9366,-1.9366,-1.9366,-1.9366,-1.9366,-1.9366,-1.9366,-1.9366,-1.9366,-1.9366,-1.9379,-1.9579,-2.0127,-2.0766,-2.1053,-2.1108,-2.1102,-2.1102,-2.1229,-2.1348,-2.172,-2.1957,-2.1576,-2.219,-2.4338,-2.5915,-2.8253,-3.0281,-3.0694,-3.0889,-3.0392,-3.0265,-3.0762,-3.0898,-3.0984,-3.1482,-3.1861,-3.2432,-3.2776,-3.3144,-3.3389,-3.3379,-3.3369,-3.3389,-3.3418,-0.6067,-0.868,-0.7176,-0.7502,-0.8742,-0.8947,-0.8937,-0.8937,-0.8937,-0.8937,-0.8937,-0.8937,-0.8937,-0.8937,-0.8937,-0.8937,-0.8937,-0.8937,-0.8937,-0.8937,-0.8937,-0.8937,-0.8937,-0.8937,-0.8937,-0.8937,-0.8937,-0.8937,-0.8937,-0.8937,-0.8937,-0.8937,-0.8937,-0.8937,-0.8937,-0.8937,-0.8937,-0.8937,-0.8937,-0.8937,-0.8937,-0.8937,-0.8937,-0.8937,-0.8937,-0.8937,-0.8937,-0.8937,-1.0131,-1.1538,-1.2077,-1.1842,-1.0799,-0.9835,-1.1935,-1.6485,-1.8185,-1.8502,-1.8601,-1.8758,-1.9038,-1.9339,-1.9366,-1.9366,-1.9366,-1.9366,-1.9366,-1.9366,-1.9366,-1.9366,-1.9366,-1.9366,-1.9366,-1.9366,-1.9366,-1.9366,-1.9366,-1.9366,-1.9366,-1.9366,-1.9372,-1.9579,-1.9873,-2.0757,-2.0951,-2.0947,-2.1195,-2.1335,-2.2459,-2.2702,-2.3186,-2.3331,-2.2515,-2.3051,-2.5545,-2.7502,-2.9356,-3.0557,-3.0791,-3.0898,-3.0645,-3.0762,-3.0889,-3.0908,-3.0917,-3.1139,-3.1517,-3.2085,-3.2455,-3.2727,-3.2941,-3.3213,-3.333,-3.3379,-3.3408,-0.891,-0.8903,-0.8876,-0.886,-0.8964,-0.8947,-0.8937,-0.8937,-0.8937,-0.8937,-0.8937,-0.8937,-0.8937,-0.8937,-0.8937,-0.8937,-0.8937,-0.8937,-0.8937,-0.8937,-0.8937,-0.8937,-0.8937,-0.8937,-0.8937,-0.8937,-0.8937,-0.8937,-0.8937,-0.8937,-0.8937,-0.8937,-0.8937,-0.8937,-0.8937,-0.8937,-0.8937,-0.8937,-0.8937,-0.8937,-0.893,-0.8927,-0.9133,-0.9915,-0.9023,-0.9251,-0.9368,-0.9588,-1.0566,-1.3048,-1.348,-1.3696,-1.3311,-1.2224,-1.1959,-1.7443,-1.8151,-1.8516,-1.8635,-1.8811,-1.9132,-1.9359,-1.9366,-1.9366,-1.9366,-1.9366,-1.9366,-1.9366,-1.9366,-1.9366,-1.9366,-1.9366,-1.9366,-1.9366,-1.9366,-1.9366,-1.9366,-1.9366,-1.9366,-1.9366,-1.9379,-1.9526,-2.0128,-2.0766,-2.0835,-2.1005,-2.1243,-2.1804,-2.3047,-2.3799,-2.4278,-2.4984,-2.444,-2.5308,-2.7679,-2.839,-3.0392,-3.0645,-3.0898,-3.0898,-3.0898,-3.0898,-3.0908,-3.0957,-3.0986,-3.118,-3.1246,-3.1696,-3.2056,-3.2396,-3.2679,-3.2998,-3.3174,-3.335,-3.3379,-0.8897,-0.8873,-0.8863,-0.896,-0.8944,-0.894,-0.8937,-0.8937,-0.8937,-0.8937,-0.8937,-0.8937,-0.8937,-0.8937,-0.8937,-0.8937,-0.8937,-0.8937,-0.8937,-0.8937,-0.8937,-0.8937,-0.8937,-0.8937,-0.8937,-0.8937,-0.8937,-0.8937,-0.8937,-0.8937,-0.8937,-0.8937,-0.8937,-0.8937,-0.8937,-0.8937,-0.9154,-0.9265,-0.9261,-0.9372,-0.891,-0.9669,-1.0752,-1.2091,-1.0874,-1.021,-1.0558,-1.0781,-1.1538,-1.3156,-1.4443,-1.553,-1.6162,-1.5877,-1.6374,-1.7229,-1.8123,-1.837,-1.8524,-1.8965,-1.9245,-1.9359,-1.9366,-1.9366,-1.9366,-1.9366,-1.9366,-1.9366,-1.9366,-1.9366,-1.9366,-1.9366,-1.9366,-1.9366,-1.9366,-1.9482,-1.9482,-1.9591,-1.9557,-1.9394,-1.9455,-1.9549,-2.0137,-2.0963,-2.1596,-2.184,-2.2162,-2.2914,-2.417,-2.4585,-2.4739,-2.5684,-2.6456,-2.8036,-2.9992,-3.0128,-3.0772,-3.0772,-3.0898,-3.0898,-3.0898,-3.0898,-3.0918,-3.0947,-3.0986,-3.0986,-3.119,-3.1394,-3.1498,-3.1808,-3.2289,-3.2773,-3.291,-3.3037,-3.3281,-0.8886,-0.8863,-0.896,-0.895,-0.894,-0.8937,-0.8937,-0.8937,-0.8937,-0.8937,-0.8937,-0.8937,-0.8937,-0.8937,-0.8937,-0.8937,-0.8937,-0.8937,-0.8937,-0.8937,-0.8937,-0.8937,-0.8937,-0.8937,-0.8937,-0.8937,-0.8937,-0.8933,-0.8937,-0.8937,-0.8937,-0.8937,-0.8937,-0.8937,-0.9154,-0.9699,-0.9915,-1.0135,-1.0672,-1.0307,-0.9625,-1.1394,-1.4234,-1.4467,-1.412,-1.3108,-1.2073,-1.2186,-1.2945,-1.4234,-1.499,-1.6174,-1.7147,-1.7595,-1.7615,-1.7629,-1.7928,-1.8227,-1.8497,-1.8911,-1.9172,-1.9345,-1.9359,-1.9366,-1.9366,-1.9366,-1.9366,-1.9366,-1.9366,-1.9366,-1.9366,-1.9366,-1.9366,-1.9366,-1.9482,-1.9815,-2.0263,-2.0479,-2.0165,-1.9738,-1.9611,-1.9727,-1.9856,-2.0911,-2.223,-2.278,-2.3065,-2.4045,-2.5197,-2.5537,-2.5819,-2.7288,-2.8482,-2.9111,-3.0626,-3.0762,-3.0898,-3.0898,-3.0898,-3.0898,-3.0898,-3.0898,-3.0898,-3.0908,-3.0947,-3.0869,-3.1016,-3.1191,-3.1149,-3.1233,-3.1774,-3.2197,-3.249,-3.2734,-3.2978,-0.8876,-0.8967,-0.8947,-0.8937,-0.8937,-0.8937,-0.8937,-0.8937,-0.8937,-0.8937,-0.8937,-0.8937,-0.8937,-0.8937,-0.8937,-0.8937,-0.8937,-0.8937,-0.8937,-0.8937,-0.8937,-0.8937,-0.8937,-0.9265,-0.9482,-0.9585,-0.8992,-0.8913,-0.8937,-0.8937,-0.8937,-0.8937,-0.8937,-0.8937,-0.9154,-1.0241,-1.0891,-1.1542,-1.2507,-1.1882,-1.1635,-1.4628,-1.7593,-1.7587,-1.7593,-1.6162,-1.404,-1.3696,-1.4126,-1.5097,-1.5743,-1.6387,-1.7371,-1.7589,-1.7589,-1.7629,-1.7635,-1.7912,-1.8267,-1.8664,-1.8951,-1.9192,-1.9259,-1.9299,-1.9366,-1.9366,-1.9366,-1.9366,-1.9366,-1.9366,-1.9366,-1.9366,-1.9366,-1.9366,-1.9482,-1.9809,-2.0923,-2.1336,-2.124,-2.0764,-2.0266,-2.0687,-2.1377,-2.1569,-2.3056,-2.3757,-2.4057,-2.5202,-2.6225,-2.6946,-2.7567,-2.9427,-3.0382,-3.0382,-3.0889,-3.0762,-3.0898,-3.0898,-3.0898,-3.0898,-3.0898,-3.0898,-3.0898,-3.0898,-3.0898,-3.0928,-3.0898,-3.0898,-3.0986,-3.118,-3.1426,-3.166,-3.2002,-3.2363,-3.2676,-0.8964,-0.894,-0.894,-0.8937,-0.8937,-0.8937,-0.8937,-0.8937,-0.8937,-0.8937,-0.8937,-0.8937,-0.8937,-0.8937,-0.8937,-0.8937,-0.8937,-0.8937,-0.8937,-0.8937,-0.8937,-0.8937,-0.9154,-1.0347,-1.0457,-1.0445,-0.9584,-0.8948,-0.9343,-0.9372,-0.9154,-0.9265,-0.9372,-0.9044,-0.9699,-1.0996,-1.1109,-1.1433,-1.2729,-1.3214,-1.3372,-1.6022,-1.729,-1.7596,-1.751,-1.6863,-1.5435,-1.5204,-1.5417,-1.553,-1.6717,-1.7364,-1.7589,-1.7589,-1.7589,-1.7662,-1.7609,-1.7705,-1.8048,-1.839,-1.8664,-1.8918,-1.9005,-1.9125,-1.9285,-1.9366,-1.9366,-1.9366,-1.9366,-1.9366,-1.9366,-1.9366,-1.9366,-1.9366,-1.9482,-2.0256,-2.1365,-2.2251,-2.2143,-2.3365,-2.3326,-2.3343,-2.364,-2.3636,-2.3936,-2.4553,-2.5247,-2.6285,-2.7272,-2.7943,-2.8612,-3.0238,-3.0869,-3.0898,-3.0898,-3.0898,-3.0898,-3.0898,-3.0898,-3.0898,-3.0898,-3.0898,-3.0898,-3.0898,-3.0898,-3.0898,-3.0898,-3.0908,-3.0937,-3.1035,-3.1221,-3.1377,-3.1562,-3.1934,-3.2324,-0.8947,-0.8937,-0.8937,-0.8937,-0.8937,-0.8937,-0.8937,-0.8937,-0.8937,-0.8937,-0.8937,-0.8937,-0.8937,-0.8937,-0.8937,-0.8937,-0.8937,-0.8937,-0.8937,-0.8937,-0.8937,-0.8937,-0.9265,-1.0351,-1.1109,-1.1302,-1.1372,-1.1693,-1.1424,-1.1433,-1.1433,-1.1437,-1.1319,-1.1538,-1.1214,-1.2719,-1.3372,-1.4019,-1.499,-1.5719,-1.6031,-1.6836,-1.7642,-1.7589,-1.7642,-1.7192,-1.6842,-1.6605,-1.6605,-1.6717,-1.7364,-1.7582,-1.7589,-1.7589,-1.7589,-1.7595,-1.7576,-1.7735,-1.8036,-1.817,-1.8384,-1.8651,-1.8831,-1.9065,-1.9285,-1.9359,-1.9359,-1.9366,-1.9366,-1.9366,-1.9366,-1.9366,-1.9366,-1.9482,-1.9815,-2.1152,-2.2258,-2.2702,-2.3462,-2.5032,-2.6273,-2.5936,-2.5744,-2.5872,-2.5673,-2.5578,-2.6304,-2.7382,-2.8276,-2.8994,-2.967,-3.0594,-3.0954,-3.0898,-3.0898,-3.0898,-3.0898,-3.0898,-3.0898,-3.0898,-3.0898,-3.0898,-3.0898,-3.0898,-3.0898,-3.0898,-3.0898,-3.0898,-3.0918,-3.0967,-3.1035,-3.1162,-3.1289,-3.1543,-3.1934,-0.8937,-0.8937,-0.8937,-0.8937,-0.8937,-0.8937,-0.8937,-0.8937,-0.8937,-0.8937,-0.8937,-0.8937,-0.8937,-0.8937,-0.8937,-0.8937,-0.8937,-0.8937,-0.8937,-0.8937,-0.8937,-0.9154,-0.9915,-1.1,-1.1973,-1.2181,-1.389,-1.433,-1.4336,-1.4352,-1.4369,-1.4304,-1.3181,-1.3166,-1.3588,-1.4341,-1.5204,-1.5849,-1.6717,-1.7252,-1.747,-1.747,-1.7595,-1.7589,-1.7589,-1.7589,-1.7589,-1.7582,-1.7477,-1.7477,-1.7477,-1.7589,-1.7589,-1.7589,-1.7589,-1.7589,-1.7622,-1.7689,-1.7829,-1.7943,-1.8103,-1.8357,-1.8637,-1.8984,-1.9314,-1.9442,-1.9387,-1.9354,-1.9461,-1.9352,-1.9482,-1.9707,-2.0148,-2.0371,-2.0594,-2.2266,-2.3607,-2.4044,-2.4931,-2.6391,-2.7394,-2.7726,-2.7676,-2.7927,-2.7663,-2.6971,-2.7479,-2.8388,-2.8965,-2.9429,-3.0035,-3.0576,-3.0873,-3.0868,-3.0879,-3.0879,-3.0889,-3.0898,-3.0898,-3.0898,-3.0898,-3.0898,-3.0898,-3.0898,-3.0898,-3.0898,-3.0898,-3.0898,-3.0898,-3.0937,-3.0957,-3.0928,-3.1045,-3.1289,-3.1533,-0.8937,-0.8937,-0.8937,-0.8937,-0.8937,-0.8937,-0.8937,-0.8937,-0.8937,-0.8937,-0.8937,-0.8937,-0.8937,-0.8937,-0.9158,-0.9272,-0.9047,-0.8937,-0.9261,-0.9265,-0.9047,-1.0025,-1.1109,-1.2403,-1.3696,-1.477,-1.5956,-1.6717,-1.7147,-1.6505,-1.6964,-1.701,-1.4951,-1.3819,-1.4019,-1.5204,-1.628,-1.6929,-1.7477,-1.7582,-1.7589,-1.7589,-1.7589,-1.7589,-1.7589,-1.7589,-1.7589,-1.7589,-1.7589,-1.7589,-1.7589,-1.7589,-1.7589,-1.7589,-1.7589,-1.7589,-1.7589,-1.7629,-1.7682,-1.7709,-1.7802,-1.8063,-1.8337,-1.8689,-1.9207,-1.9371,-1.9326,-1.9401,-1.9442,-1.9448,-1.9802,-2.0486,-2.0916,-2.1252,-2.1813,-2.3375,-2.4608,-2.527,-2.6164,-2.7736,-2.8301,-2.8301,-2.8301,-2.8301,-2.833,-2.7638,-2.7628,-2.8428,-2.8652,-2.916,-2.9682,-3.027,-3.072,-3.0892,-3.0937,-3.0869,-3.0889,-3.0898,-3.0898,-3.0898,-3.0898,-3.0898,-3.0898,-3.0898,-3.0898,-3.0898,-3.0898,-3.0898,-3.0898,-3.0898,-3.0898,-3.0898,-3.0947,-3.1162,-3.1437,-0.8937,-0.8937,-0.8937,-0.8937,-0.8937,-0.8937,-0.8937,-0.8937,-0.8937,-0.8937,-0.8937,-0.8937,-0.8937,-0.9158,-1.037,-1.1046,-1.1498,-1.1669,-1.1546,-1.1647,-1.1751,-1.1969,-1.294,-1.3691,-1.4877,-1.5737,-1.6823,-1.7589,-1.7477,-1.7589,-1.7622,-1.7013,-1.6217,-1.6193,-1.6287,-1.6287,-1.6935,-1.7364,-1.7589,-1.7589,-1.7589,-1.7589,-1.7589,-1.7589,-1.7589,-1.7589,-1.7589,-1.7589,-1.7589,-1.7589,-1.7589,-1.7589,-1.7589,-1.7589,-1.7589,-1.7589,-1.7589,-1.7589,-1.7589,-1.7602,-1.7722,-1.7976,-1.8163,-1.84,-1.8775,-1.8854,-1.9142,-1.9278,-1.9401,-1.9381,-1.957,-2.0702,-2.1586,-2.1919,-2.3031,-2.4599,-2.5608,-2.6273,-2.6834,-2.8067,-2.8291,-2.8301,-2.8301,-2.831,-2.831,-2.8184,-2.831,-2.8359,-2.8564,-2.875,-2.916,-2.9623,-3.0069,-3.066,-3.0708,-3.079,-3.0859,-3.0869,-3.0859,-3.0898,-3.0898,-3.0898,-3.0898,-3.0898,-3.0898,-3.0898,-3.0898,-3.0898,-3.0898,-3.0898,-3.0898,-3.0898,-3.0976,-3.1064,-3.1465,-0.8937,-0.8937,-0.8937,-0.8937,-0.8937,-0.8937,-0.8937,-0.8937,-0.8937,-0.8937,-0.8937,-0.8937,-0.8923,-0.9464,-1.0684,-1.2935,-1.3723,-1.3666,-1.3285,-1.3156,-1.3048,-1.3588,-1.4126,-1.477,-1.5524,-1.6174,-1.6823,-1.7589,-1.7589,-1.7589,-1.7602,-1.7602,-1.7589,-1.7477,-1.7477,-1.7589,-1.7589,-1.7589,-1.7589,-1.7589,-1.7589,-1.7589,-1.7589,-1.7589,-1.7589,-1.7589,-1.7589,-1.7589,-1.7589,-1.7589,-1.7589,-1.7589,-1.7589,-1.7589,-1.7589,-1.7589,-1.7589,-1.7589,-1.7589,-1.7609,-1.7675,-1.7842,-1.7883,-1.8016,-1.817,-1.8297,-1.8444,-1.8709,-1.8969,-1.9172,-1.9307,-2.0651,-2.1948,-2.2511,-2.3917,-2.5489,-2.6499,-2.7168,-2.7511,-2.8174,-2.8184,-2.8301,-2.8301,-2.8301,-2.8301,-2.8301,-2.8301,-2.831,-2.8379,-2.8447,-2.8622,-2.8953,-2.9244,-2.9849,-3.0428,-3.0581,-3.0692,-3.0635,-3.0674,-3.0859,-3.0898,-3.0898,-3.0898,-3.0898,-3.0898,-3.0898,-3.0898,-3.0898,-3.0898,-3.0898,-3.0898,-3.0898,-3.0908,-3.1084,-3.1828,-0.8937,-0.8937,-0.8937,-0.8937,-0.8937,-0.8937,-0.8937,-0.8937,-0.8937,-0.8937,-0.8937,-0.8937,-0.8903,-0.9308,-1.0757,-1.3469,-1.5851,-1.4752,-1.3804,-1.4019,-1.4239,-1.4454,-1.4984,-1.5737,-1.6287,-1.7259,-1.7589,-1.7589,-1.7589,-1.7589,-1.7589,-1.7589,-1.7589,-1.7589,-1.7589,-1.7589,-1.7589,-1.7589,-1.7589,-1.7589,-1.7589,-1.7589,-1.7589,-1.7589,-1.7589,-1.7589,-1.7589,-1.7589,-1.7589,-1.7589,-1.7589,-1.7589,-1.7589,-1.7589,-1.7589,-1.7589,-1.7589,-1.7589,-1.7589,-1.7589,-1.7622,-1.7655,-1.7702,-1.7722,-1.7722,-1.7735,-1.7744,-1.8147,-1.8253,-1.8749,-1.9486,-2.0623,-2.195,-2.3308,-2.4691,-2.6236,-2.7239,-2.7736,-2.8067,-2.8184,-2.8291,-2.8301,-2.8301,-2.8301,-2.8301,-2.8301,-2.8301,-2.8301,-2.831,-2.8379,-2.8417,-2.8484,-2.8775,-2.9017,-2.9731,-3.0276,-3.0522,-3.0466,-3.0488,-3.0674,-3.084,-3.0898,-3.0898,-3.0889,-3.0898,-3.0898,-3.0898,-3.0898,-3.1248,-3.148,-3.1015,-3.0898,-3.0898,-3.1334,-3.2207,-0.8937,-0.8937,-0.8937,-0.8937,-0.8937,-0.8937,-0.8937,-0.8937,-0.8937,-0.8937,-0.8937,-0.8937,-0.8903,-0.9632,-1.1607,-1.4423,-1.6794,-1.7145,-1.6174,-1.6068,-1.5962,-1.6393,-1.6711,-1.6717,-1.7041,-1.7477,-1.7589,-1.7589,-1.7589,-1.7589,-1.7589,-1.7589,-1.7589,-1.7589,-1.7589,-1.7589,-1.7589,-1.7589,-1.7589,-1.7589,-1.7589,-1.7589,-1.7589,-1.7589,-1.7589,-1.7589,-1.7589,-1.7589,-1.7589,-1.7589,-1.7589,-1.7589,-1.7589,-1.7589,-1.7589,-1.7589,-1.7589,-1.7589,-1.7589,-1.7589,-1.7589,-1.7589,-1.7589,-1.7589,-1.7615,-1.7649,-1.7589,-1.7734,-1.809,-1.8453,-1.8386,-2.0865,-2.2521,-2.367,-2.5118,-2.6845,-2.7922,-2.8135,-2.8291,-2.8291,-2.8291,-2.8301,-2.8301,-2.8301,-2.8301,-2.8301,-2.8301,-2.8301,-2.8301,-2.8301,-2.8281,-2.8369,-2.8455,-2.851,-2.8901,-2.94,-2.9996,-3.0019,-3.0234,-3.0488,-3.0644,-3.0742,-3.083,-3.0781,-3.084,-3.0889,-3.1082,-3.1285,-3.1933,-3.2079,-3.1903,-3.1546,-3.1556,-3.2217,-3.3201,-0.8937,-0.8937,-0.8937,-0.8937,-0.8937,-0.8937,-0.8937,-0.9047,-0.9372,-0.9471,-0.9233,-0.99,-0.973,-1.0221,-1.2435,-1.512,-1.7483,-1.7629,-1.7582,-1.7589,-1.7589,-1.7477,-1.7477,-1.7589,-1.7477,-1.7589,-1.7589,-1.7589,-1.7589,-1.7589,-1.7589,-1.7589,-1.7589,-1.7589,-1.7589,-1.7589,-1.7589,-1.7589,-1.7589,-1.7589,-1.7589,-1.7589,-1.7589,-1.7589,-1.7589,-1.7589,-1.7589,-1.7589,-1.7589,-1.7589,-1.7589,-1.7589,-1.7589,-1.7589,-1.7589,-1.7589,-1.7589,-1.7589,-1.7589,-1.7589,-1.7589,-1.7589,-1.7589,-1.7589,-1.7589,-1.7609,-1.7576,-1.7796,-1.8317,-1.894,-1.9563,-2.2209,-2.292,-2.3952,-2.5201,-2.7017,-2.7959,-2.8047,-2.8262,-2.8262,-2.8291,-2.8291,-2.8301,-2.8301,-2.8301,-2.8301,-2.8301,-2.8301,-2.8301,-2.8301,-2.8301,-2.8262,-2.832,-2.8348,-2.8404,-2.8516,-2.8974,-2.9527,-2.9789,-3.0137,-3.0264,-3.0332,-3.0508,-3.0693,-3.0752,-3.0907,-3.1206,-3.1677,-3.3121,-3.3441,-3.318,-3.284,-3.2426,-3.3201,-3.4292,-0.8937,-0.8937,-0.8937,-0.8937,-0.8937,-0.8937,-0.8937,-0.9158,-1.0457,-1.0311,-0.9279,-1.1941,-1.1868,-1.0646,-1.3683,-1.6062,-1.7378,-1.7589,-1.7589,-1.7589,-1.7589,-1.7589,-1.7589,-1.7589,-1.7589,-1.7589,-1.7589,-1.7589,-1.7589,-1.7589,-1.7589,-1.7589,-1.7589,-1.7589,-1.7589,-1.7589,-1.7589,-1.7589,-1.7589,-1.7589,-1.7589,-1.7589,-1.7589,-1.7589,-1.7589,-1.7589,-1.7589,-1.7589,-1.7589,-1.7589,-1.7589,-1.7589,-1.7589,-1.7589,-1.7589,-1.7589,-1.7589,-1.7589,-1.7589,-1.7589,-1.7589,-1.7687,-1.7786,-1.7687,-1.7793,-1.7779,-1.7575,-1.8464,-1.9284,-2.0814,-2.212,-2.2595,-2.3073,-2.4027,-2.5117,-2.6389,-2.7437,-2.7861,-2.8125,-2.8232,-2.8271,-2.8291,-2.8291,-2.8301,-2.8301,-2.8301,-2.8301,-2.8301,-2.8301,-2.8301,-2.8301,-2.8301,-2.833,-2.832,-2.8251,-2.8327,-2.841,-2.8998,-2.9303,-2.9639,-2.9766,-2.9941,-3.0098,-3.0303,-3.0711,-3.0981,-3.1107,-3.2818,-3.501,-3.5135,-3.5135,-3.4382,-3.408,-3.4736,-3.5727,-0.8937,-0.8937,-0.8937,-0.8937,-0.8937,-0.8937,-0.9482,-1.0457,-1.0996,-1.1306,-1.2041,-1.2126,-1.3286,-1.5074,-1.5062,-1.6143,-1.7015,-1.7589,-1.7589,-1.7582,-1.7569,-1.7582,-1.7589,-1.7589,-1.7589,-1.7589,-1.7589,-1.7589,-1.7589,-1.7589,-1.7589,-1.7589,-1.7589,-1.7589,-1.7589,-1.7589,-1.7687,-1.7687,-1.7687,-1.7589,-1.7589,-1.7589,-1.7589,-1.7589,-1.7589,-1.7589,-1.7589,-1.7589,-1.7589,-1.7589,-1.7589,-1.7589,-1.7589,-1.7589,-1.7589,-1.7589,-1.7589,-1.7589,-1.7589,-1.7589,-1.7793,-1.8094,-1.8603,-1.9013,-1.8812,-1.8471,-1.797,-1.8572,-2.0529,-2.2328,-2.3255,-2.3715,-2.3892,-2.4395,-2.5442,-2.6266,-2.7226,-2.7539,-2.7917,-2.8278,-2.8327,-2.8242,-2.8262,-2.8301,-2.8301,-2.8301,-2.8301,-2.8301,-2.8301,-2.8301,-2.8301,-2.8301,-2.8301,-2.8301,-2.8301,-2.833,-2.8259,-2.8452,-2.8875,-2.9209,-2.9443,-2.96,-2.9707,-3.0059,-3.0452,-3.0697,-3.0944,-3.3283,-3.6691,-3.7449,-3.75,-3.6483,-3.5836,-3.6476,-3.6918,-0.8757,-0.8757,-0.8757,-0.897,-0.9507,-0.9503,-1.0568,-1.2186,-1.2116,-1.2606,-1.3311,-1.3955,-1.5364,-1.6832,-1.6212,-1.6241,-1.7105,-1.7335,-1.7388,-1.7402,-1.7508,-1.7575,-1.7589,-1.7569,-1.7589,-1.7589,-1.7582,-1.7589,-1.7694,-1.7694,-1.7589,-1.7589,-1.7589,-1.7687,-1.7589,-1.7687,-1.7996,-1.8101,-1.7996,-1.7687,-1.7582,-1.7575,-1.7582,-1.7589,-1.7589,-1.7589,-1.7589,-1.7589,-1.7687,-1.7589,-1.7589,-1.7589,-1.7589,-1.7589,-1.7589,-1.7589,-1.7589,-1.7996,-1.8401,-1.8506,-1.8708,-1.922,-1.993,-2.0641,-2.0641,-2.042,-1.9052,-1.852,-2.1481,-2.3803,-2.4473,-2.5036,-2.4936,-2.4855,-2.5672,-2.6404,-2.6826,-2.7158,-2.7678,-2.8202,-2.8285,-2.8337,-2.8319,-2.8262,-2.8301,-2.8301,-2.8301,-2.8301,-2.8301,-2.8301,-2.8301,-2.8301,-2.8301,-2.8301,-2.8301,-2.8301,-2.831,-2.8309,-2.8466,-2.8809,-2.9082,-2.9479,-2.9678,-2.9998,-3.0318,-3.0884,-3.1803,-3.5317,-3.827,-3.8631,-3.8589,-3.7883,-3.7403,-3.7935,-3.8287,-0.8591,-0.8703,-0.8793,-0.9646,-1.0448,-1.0573,-1.2014,-1.4395,-1.3652,-1.3586,-1.4261,-1.6373,-1.7341,-1.7407,-1.678,-1.6438,-1.6826,-1.6919,-1.7114,-1.7121,-1.7281,-1.7375,-1.7402,-1.7522,-1.7468,-1.7522,-1.7687,-1.7918,-1.8128,-1.8422,-1.8506,-1.7793,-1.8199,-1.8401,-1.8094,-1.8506,-1.9013,-1.9524,-1.9005,-1.8387,-1.7745,-1.7647,-1.7569,-1.7582,-1.7589,-1.7589,-1.7687,-1.7687,-1.7793,-1.7793,-1.7996,-1.8199,-1.7698,-1.758,-1.7586,-1.8304,-1.8506,-1.9013,-1.9517,-1.9826,-2.0333,-2.1041,-2.1853,-2.2265,-2.2265,-2.155,-2.0085,-2.0628,-2.3391,-2.459,-2.5296,-2.5408,-2.5379,-2.5309,-2.5759,-2.6191,-2.6357,-2.6709,-2.707,-2.7589,-2.8197,-2.8167,-2.8298,-2.8337,-2.831,-2.8242,-2.8301,-2.8301,-2.8301,-2.8301,-2.8301,-2.8301,-2.8301,-2.8301,-2.8301,-2.8301,-2.8301,-2.834,-2.8466,-2.8398,-2.8652,-2.9154,-2.9748,-3.0411,-3.1159,-3.2147,-3.3524,-3.6252,-3.7763,-3.7975,-3.8014,-3.8642,-3.8842,-3.8851,-3.9072,-0.9104,-1.0028,-1.1061,-1.1676,-1.1883,-1.1883,-1.2899,-1.4451,-1.4356,-1.5047,-1.6521,-1.7171,-1.7583,-1.7392,-1.6579,-1.616,-1.626,-1.6607,-1.6794,-1.6928,-1.7049,-1.7347,-1.7198,-1.7579,-1.7544,-1.7328,-1.7748,-1.8646,-2.0335,-2.0568,-2.0143,-1.9324,-1.9723,-1.9922,-1.9213,-1.9826,-2.0538,-2.1049,-2.0594,-1.9545,-1.8587,-1.7936,-1.7617,-1.7732,-1.7793,-1.7891,-1.8199,-1.8708,-1.8916,-1.922,-2.0231,-1.9543,-1.7858,-1.7756,-1.8811,-2.0248,-2.0688,-2.0995,-2.0947,-2.1245,-2.155,-2.2055,-2.2667,-2.3176,-2.3176,-2.2257,-2.2349,-2.3574,-2.4529,-2.5242,-2.5702,-2.5703,-2.5742,-2.5801,-2.585,-2.5889,-2.5928,-2.618,-2.6468,-2.7084,-2.7819,-2.8068,-2.8107,-2.8315,-2.8298,-2.827,-2.8262,-2.8301,-2.8301,-2.8301,-2.8301,-2.8301,-2.8301,-2.8301,-2.8301,-2.8417,-2.8534,-2.8631,-2.8767,-2.8641,-2.8504,-2.9813,-3.1031,-3.1555,-3.2172,-3.3218,-3.414,-3.5206,-3.6417,-3.701,-3.7604,-3.814,-3.8253,-3.8329,-3.888,-1.0403,-1.1107,-1.1913,-1.2509,-1.3004,-1.3109,-1.3805,-1.4906,-1.5115,-1.5731,-1.6728,-1.7018,-1.7093,-1.6878,-1.6064,-1.5757,-1.5849,-1.6348,-1.6493,-1.6626,-1.7202,-1.7612,-1.7682,-1.8139,-1.8929,-1.8853,-1.8058,-1.9184,-2.2605,-2.3303,-2.2766,-2.0995,-2.1448,-2.1448,-2.0633,-2.1448,-2.2156,-2.2558,-2.218,-2.1435,-2.0163,-1.9294,-1.9016,-1.9155,-1.9665,-1.9539,-1.962,-2.0231,-2.0333,-2.0641,-2.1245,-2.1071,-1.9867,-1.9735,-2.0929,-2.2646,-2.341,-2.3213,-2.2846,-2.2667,-2.2868,-2.3384,-2.389,-2.4609,-2.4707,-2.3989,-2.3998,-2.5011,-2.503,-2.5732,-2.5713,-2.5742,-2.5732,-2.5762,-2.5781,-2.5801,-2.582,-2.5878,-2.609,-2.6241,-2.6676,-2.6793,-2.7133,-2.7973,-2.8062,-2.8055,-2.8057,-2.8242,-2.8262,-2.8601,-2.8495,-2.8601,-2.8698,-2.8495,-2.8301,-2.8651,-2.901,-2.9096,-2.9404,-2.9848,-3.0317,-3.144,-3.2454,-3.2944,-3.3616,-3.4423,-3.526,-3.571,-3.6014,-3.6584,-3.7139,-3.7626,-3.7688,-3.7776,-3.8278,-1.1648,-1.2344,-1.2446,-1.3113,-1.4076,-1.4178,-1.4777,-1.5655,-1.5743,-1.5757,-1.5925,-1.6444,-1.6255,-1.596,-1.5771,-1.5807,-1.6068,-1.6615,-1.6587,-1.7036,-1.8059,-1.8334,-1.8877,-1.9516,-2.0037,-2.0024,-1.9453,-2.1837,-2.5095,-2.5058,-2.4063,-2.24,-2.2055,-2.2156,-2.2055,-2.2357,-2.2968,-2.3448,-2.3619,-2.3764,-2.2637,-2.142,-2.1593,-2.2139,-2.2629,-2.2123,-2.1887,-2.1853,-2.1853,-2.2165,-2.2366,-2.2424,-2.2398,-2.2255,-2.3164,-2.4664,-2.5039,-2.4672,-2.4198,-2.3989,-2.4609,-2.5216,-2.5625,-2.5635,-2.5635,-2.5635,-2.5635,-2.5645,-2.5655,-2.5655,-2.5732,-2.5732,-2.5732,-2.5732,-2.5732,-2.5732,-2.5742,-2.5655,-2.5761,-2.5794,-2.5772,-2.5867,-2.6464,-2.7418,-2.7737,-2.7741,-2.7957,-2.8057,-2.831,-2.887,-2.9102,-2.9408,-2.9713,-2.9303,-2.8495,-2.9046,-2.9615,-3.0465,-3.0966,-3.1538,-3.214,-3.2855,-3.3662,-3.4569,-3.5246,-3.551,-3.5821,-3.621,-3.6363,-3.6458,-3.6709,-3.7086,-3.7111,-3.7249,-3.76,-1.1279,-1.5069,-1.5089,-1.5248,-1.5432,-1.5439,-1.5534,-1.573,-1.5825,-1.5825,-1.5913,-1.5846,-1.5886,-1.5912,-1.581,-1.6035,-1.6515,-1.7072,-1.7413,-1.7725,-1.8871,-1.9204,-1.9666,-2.0439,-2.0732,-2.0942,-2.1248,-2.3037,-2.5226,-2.5546,-2.5036,-2.334,-2.4492,-2.4304,-2.3583,-2.3989,-2.4599,-2.4875,-2.4875,-2.5011,-2.5185,-2.4505,-2.4683,-2.4941,-2.5052,-2.352,-2.2696,-2.2885,-2.3176,-2.3592,-2.4106,-2.451,-2.451,-2.4412,-2.5036,-2.521,-2.571,-2.5525,-2.5049,-2.5011,-2.5528,-2.5528,-2.5732,-2.5732,-2.5635,-2.5635,-2.5635,-2.5635,-2.5742,-2.5742,-2.5732,-2.5732,-2.5732,-2.5732,-2.5732,-2.5732,-2.5732,-2.5742,-2.5723,-2.5702,-2.5722,-2.5778,-2.59,-2.6579,-2.7088,-2.7396,-2.8008,-2.8227,-2.8719,-2.9288,-2.986,-3.0193,-3.0586,-2.9702,-2.889,-2.9817,-3.0599,-3.1495,-3.2485,-3.3069,-3.3552,-3.3871,-3.4678,-3.5475,-3.587,-3.6143,-3.637,-3.637,-3.637,-3.6408,-3.6395,-3.6521,-3.6584,-3.6734,-3.7073]}]]